[[{"header":{"parameterUnit":"m.s-1","parameterCategory":1,"la1":31.0,"la2":29.5877,"lo1":-88.7671,"lo2":-86.6584,"dy":0.0162,"dx":0.0185,"nx":115,"ny":88,"refTime":"2025-11-06T12:00:00:Z","depth":0,"parameterNumber":2,"parameterNumberName":"U-component_of_WINDS"},"data":[0.0,0.0,0.0,0.0,0.0,0.0,0.0,0.0,0.0,0.0,0.0,0.0,0.0,0.0,0.0,0.0,0.0,0.0,0.0,0.0,0.0,0.0,0.0,0.0,0.0,0.0,0.0,0.0,0.0,0.0,0.0,0.0,0.0,0.0,0.0,0.0,0.0,0.0,0.0,0.0,0.0,0.0,0.0,0.0,0.0,0.0,0.0,0.0,0.0,0.0,0.0,0.0,0.0,0.0,0.0,0.0,0.0,0.0,0.0,0.0,0.0,0.0,0.0,0.0,0.0,0.0,0.0,0.0,0.0,0.0,0.0,0.0,0.0,0.0,0.0,0.0,0.0,0.0,0.0,0.0,0.0,0.0,0.0,0.0,0.0,0.0,0.0,0.0,0.0,0.0,0.0,0.0,0.0,0.0,0.0,0.0,0.0,0.0,0.0,0.0,0.0,0.0,0.0,0.0,0.0,0.0,0.0,0.0,0.0,0.0,0.0,0.0,0.0,0.0,0.0,0.0,0.0,0.0,0.0,0.0,0.0,0.0,0.0,0.0,0.0,0.0,0.0,0.0,0.0,0.0,0.0,0.0,0.0,0.0,0.0,0.0,0.0,0.0,0.0,0.0,0.0,0.0,0.0,0.0,0.0,0.0,0.0,0.0,0.0,0.0,0.0,0.0,0.0,0.0,0.0,0.0,0.0,0.0,0.0,0.0,0.0,0.0,0.0,0.0,0.0,0.0,0.0,0.0,0.0,0.0,0.0,0.0,0.0,0.0,0.0,0.0,0.0,0.0,0.0,0.0,0.0,0.0,0.0,0.0,0.0,0.0,0.0,0.0,0.0,0.0,0.0,0.0,0.0,0.0,0.0,0.0,0.0,0.0,0.0,0.0,0.0,0.0,0.0,0.0,0.0,0.0,0.0,0.0,0.0,0.0,0.0,0.0,0.0,0.0,0.0,0.0,0.0,0.0,0.0,0.0,0.0,0.0,0.0,0.0,0.0,0.0,0.0,0.0,0.0,0.0,0.0,0.0,0.0,0.0,0.0,0.0,0.0,0.0,0.0,0.0,0.0,0.0,0.0,0.0,0.0,0.0,0.0,0.0,0.0,0.0,0.0,0.0,0.0,0.0,0.0,0.0,0.0,0.0,0.0,0.0,0.0,0.0,0.0,0.0,0.0,0.0,0.0,0.0,0.0,0.0,0.0,0.0,0.0,0.0,0.0,0.0,0.0,0.0,0.0,0.0,0.0,0.0,0.0,0.0,0.0,0.0,0.0,0.0,0.0,0.0,0.0,0.0,0.0,0.0,0.0,0.0,0.0,0.0,0.0,0.0,0.0,0.0,0.0,0.0,0.0,0.0,0.0,0.0,0.0,0.0,0.0,0.0,0.0,0.0,0.0,0.0,0.0,0.0,0.0,0.0,0.0,0.0,0.0,0.0,0.0,0.0,0.0,0.0,0.0,0.0,0.0,0.0,0.0,0.0,0.0,0.0,0.0,0.0,0.0,0.0,0.0,0.0,0.0,0.0,0.0,0.0,0.0,0.0,0.0,0.0,0.0,0.0,0.0,0.0,0.0,0.0,0.0,0.0,0.0,0.0,0.0,0.0,0.0,0.0,0.0,0.0,0.0,0.0,0.0,0.0,0.0,0.0,0.0,0.0,0.0,0.0,0.0,0.0,0.0,0.0,0.0,0.0,0.0,0.0,0.0,0.0,0.0,0.0,0.0,0.0,0.0,0.0,0.0,0.0,0.0,0.0,0.0,0.0,0.0,0.0,0.0,0.0,0.0,0.0,0.0,0.0,0.0,0.0,0.0,0.0,0.0,0.0,0.0,0.0,0.0,0.0,0.0,0.0,0.0,0.0,0.0,0.0,0.0,0.0,0.0,0.0,0.0,0.0,0.0,0.0,0.0,0.0,0.0,0.0,0.0,0.0,0.0,0.0,0.0,0.0,0.0,0.0,0.0,0.0,0.0,0.0,0.0,0.0,0.0,0.0,0.0,0.0,0.0,0.0,0.0,0.0,0.0,0.0,0.0,0.0,0.0,0.0,0.0,0.0,0.0,0.0,0.0,0.0,0.0,0.0,0.0,0.0,0.0,0.0,0.0,0.0,0.0,0.0,0.0,0.0,0.0,0.0,0.0,0.0,0.0,0.0,0.0,0.0,0.0,0.0,0.0,0.0,0.0,0.0,0.0,0.0,0.0,0.0,0.0,0.0,0.0,0.0,0.0,0.0,0.0,0.0,0.0,0.0,0.0,0.0,0.0,0.0,0.0,0.0,0.0,0.0,0.0,0.0,0.0,0.0,0.0,0.0,0.0,0.0,0.0,0.0,0.0,0.0,0.0,0.0,0.0,0.0,0.0,0.0,0.0,0.0,0.0,0.0,0.0,0.0,0.0,0.0,0.0,0.0,0.0,0.0,0.0,0.0,0.0,0.0,0.0,0.0,0.0,0.0,0.0,0.0,0.0,0.0,0.0,0.0,0.0,0.0,0.0,0.0,0.0,0.0,0.0,0.0,0.0,0.0,0.0,0.0,0.0,0.0,0.0,0.0,0.0,0.0,0.0,0.0,0.0,0.0,0.0,0.0,0.0,0.0,0.0,0.0,0.0,0.0,0.0,0.0,0.0,0.0,0.0,0.0,0.0,0.0,0.0,0.0,0.0,0.0,0.0,0.0,0.0,0.0,0.0,0.0,0.0,0.0,0.0,0.0,0.0,0.0,0.0,0.0,0.0,0.0,0.0,0.0,0.0,0.0,0.0,0.0,0.0,0.0,0.0,0.0,0.0,0.0,0.0,0.0,0.0,0.0,0.0,0.0,0.0,0.0,0.0,0.0,0.0,0.0,0.0,0.0,0.0,0.0,0.0,0.0,0.0,0.0,0.0,0.0,0.0,0.0,0.0,0.0,0.0,0.0,0.0,0.0,0.0,0.0,0.0,0.0,0.0,0.0,0.0,0.0,0.0,0.0,0.0,0.0,0.0,0.0,0.0,0.0,0.0,0.0,0.0,0.0,0.0,0.0,0.0,0.0,0.0,0.0,0.0,0.0,0.0,0.0,0.0,0.0,0.0,0.0,0.0,0.0,0.0,0.0,0.0,0.0,0.0,0.0,0.0,0.0,0.0,0.0,0.0,0.0,0.0,0.0,0.0,0.0,0.0,0.0,0.0,0.0,0.0,0.0,0.0,0.0,0.0,0.0,0.0,0.0,0.0,0.0,0.0,0.0,0.0,0.0,0.0,0.0,0.0,0.0,0.0,0.0,0.0,0.0,0.0,0.0,0.0,0.0,0.0,0.0,0.0,0.0,0.0,0.0,0.0,0.0,0.0,0.0,0.0,0.0,0.0,0.0,0.0,0.0,0.0,0.0,0.0,0.0,0.0,0.0,0.0,0.0,0.0,0.0,0.0,0.0,0.0,0.0,0.0,0.0,0.0,0.0,0.0,0.0,0.0,0.0,0.0,0.0,0.0,0.0,0.0,0.0,0.0,0.0,0.0,0.0,0.0,0.0,0.0,0.0,0.0,0.0,0.0,0.0,0.0,0.0,0.0,0.0,0.0,0.0,0.0,0.0,0.0,0.0,0.0,0.0,0.0,0.0,0.0,0.0,0.0,0.0,0.0,0.0,0.0,0.0,0.0,0.0,0.0,0.0,0.0,0.0,0.0,0.0,0.0,0.0,0.0,0.0,0.0,0.0,0.0,0.0,0.0,0.0,0.0,0.0,0.0,0.0,0.0,0.0,0.0,0.0,0.0,0.0,0.0,0.0,0.0,0.0,0.0,0.0,0.0,0.0,0.0,0.0,0.0,0.0,0.0,0.0,0.0,0.0,0.0,0.0,0.0,0.0,0.0,0.0,0.0,0.0,0.0,0.0,0.0,0.0,0.0,0.0,0.0,0.0,0.0,0.0,0.0,0.0,0.0,0.0,0.0,0.0,0.0,0.0,0.0,0.0,0.0,0.0,0.0,0.0,0.0,0.0,0.0,0.0,0.0,0.0,0.0,0.0,0.0,0.0,0.0,0.0,0.0,0.0,0.0,0.0,0.0,0.0,0.0,0.0,0.0,0.0,0.0,0.0,0.0,0.0,0.0,0.0,0.0,0.0,0.0,0.0,0.0,0.0,0.0,0.0,0.0,0.0,0.0,0.0,0.0,0.0,0.0,0.0,0.0,0.0,0.0,0.0,0.0,0.0,0.0,0.0,0.0,0.0,0.0,0.0,0.0,0.0,0.0,0.0,0.0,0.0,0.0,0.0,0.0,0.0,0.0,0.0,0.0,0.0,0.4911,0.0,0.0,0.0,0.0,0.0,0.0,0.0,0.0,0.0,0.0,0.0,0.0,0.0,0.0,0.0,0.0,0.0,0.0,0.0,0.0,0.0,0.0,0.0,0.0,0.0,0.0,0.0,0.0,0.0,0.0,0.0,0.0,0.0,0.0,0.0,0.0,0.0,0.0,0.0,0.0,0.0,0.0,0.0,0.0,0.0,0.0,0.0,0.0,0.0,0.0,0.0,0.0,0.0,0.0,0.0,0.0,0.0,0.0,0.0,0.0,0.0,0.0,0.0,0.0,0.0,0.0,0.0,0.0,0.0,0.0,0.0,0.0,0.0,0.0,0.0,0.0,0.0,0.0,0.0,0.0,0.0,0.0,0.0,0.0,0.0,0.0,0.0,0.0,0.0,0.0,0.0,0.0,0.0,0.0,0.0,0.0,0.0,0.0,0.0,0.0,0.0,0.0,0.0,0.0,0.0,0.0,0.0,0.0,0.0,0.0,0.5618,0.523,0.503,0.488,0.4796,0.0,0.0,0.0,0.0,0.0,0.0,0.0,0.0,0.0,0.0,0.0,0.0,0.0,0.0,0.0,0.0,0.0,0.0,0.0,0.0,0.0,0.0,0.0,0.0,0.0,0.0,0.0,0.0,0.0,0.0,0.0,0.0,0.0,0.0,0.0,0.0,0.0,0.0,0.0,0.0,0.0,0.0,0.0,0.0,0.0,0.0,0.0,0.0,0.0,0.0,0.0,0.0,0.0,0.0,0.0,0.0,0.0,0.0,0.0,0.0,0.0,0.0,0.0,0.0,0.0,0.0,0.0,0.0,0.0,0.0,0.0,0.0,0.0,0.0,0.0,0.0,0.0,0.0,0.0,0.0,0.0,0.0,0.0,0.0,0.0,0.0,0.0,0.0,0.0,0.0,0.0,0.0,0.0,0.0,0.0,0.0,0.0,0.0,0.0,0.0,0.0,0.0,0.0,0.0,0.0,0.0,0.0,0.0,0.0,0.0,0.0,0.0,0.5342,0.5128,0.4796,0.0,0.0,0.0,0.0,0.0,0.0,0.0,0.0,0.0,0.0,0.0,0.0,0.0,0.0,0.0,0.0,0.0,0.0,0.0,0.0,0.0,0.0,0.0,0.0,0.0,0.0,0.0,0.0,0.0,0.0,0.0,0.0,0.0,0.0,0.0,0.0,0.0,0.0,0.0,0.0,0.0,0.0,0.0,0.0,0.0,0.0,0.0,0.0,0.0,0.0,0.0,0.0,0.0,0.0,0.0,0.0,0.0,0.0,0.0,0.0,0.0,0.0,0.0,0.0,0.0,0.0,0.0,0.0,0.0,0.0,0.0,0.0,0.0,0.0,0.0,0.0,0.0,0.0,0.0,0.0,0.0,0.0,0.0,0.0,0.0,0.0,0.0,0.0,0.0,0.0,0.0,0.0,0.0,0.0,0.0,0.0,0.0,0.0,0.0,0.0,0.0,0.0,0.0,0.0,0.0,0.0,0.0,0.0,0.0,0.0,0.7058,0.7068,0.6573,0.0,0.5108,0.0,0.0,0.0,0.0,0.0,0.0,0.0,0.0,0.0,0.0,0.0,0.0,0.0,0.0,0.0,0.0,0.0,0.0,0.0,0.0,0.0,0.0,0.0,0.0,0.0,0.0,0.0,0.0,0.0,0.0,0.0,0.0,0.0,0.0,0.0,0.0,0.0,0.0,0.0,0.0,0.0,0.0,0.0,0.0,0.0,0.0,0.0,0.0,0.0,0.0,0.0,0.0,0.0,0.0,0.0,0.0,0.0,0.0,0.0,0.0,0.0,0.0,0.0,0.0,0.0,0.0,0.0,0.0,0.0,0.0,0.0,0.0,0.0,0.0,0.0,0.0,0.0,0.0,0.0,0.0,0.0,0.0,0.0,0.0,0.0,0.0,0.0,0.0,0.0,0.0,0.0,0.0,0.0,0.0,0.0,0.0,0.0,0.0,0.0,0.0,0.0,0.0,0.0,0.0,0.0,0.0,0.0,0.0,0.0,0.0,0.8202,0.7819,0.7108,0.6527,0.0,0.0,0.0,0.0,0.0,0.0,0.0,0.0,0.0,0.0,0.0,0.0,0.0,0.0,0.0,0.0,0.0,0.0,0.0,0.0,0.0,0.0,0.0,0.0,0.0,0.0,0.0,0.0,0.0,0.0,0.0,0.0,0.0,0.0,0.0,0.0,0.0,0.0,0.0,0.0,0.0,0.0,0.0,0.0,0.0,0.0,0.0,0.0,0.0,0.0,0.0,0.0,0.0,0.0,0.0,0.0,0.0,0.0,0.0,0.0,0.0,0.0,0.0,0.0,0.0,0.0,0.0,0.0,0.0,0.0,0.0,0.0,0.0,0.0,0.0,0.0,0.0,0.0,0.0,0.0,0.0,0.0,0.0,0.0,0.0,0.0,0.0,0.0,0.0,0.0,0.0,0.0,0.0,0.0,0.0,0.0,0.0,0.0,0.0,0.0,0.0,0.0,0.0,0.0,0.0,0.0,0.0,0.0,0.0,0.0,0.9668,0.9256,0.8646,0.7797,0.7186,0.6706,0.0,0.0,0.0,0.0,0.0,0.0,0.0,0.0,0.0,0.0,0.0,0.0,0.0,0.0,0.0,0.0,0.0,0.0,0.0,0.0,0.0,0.0,0.0,0.0,0.0,0.0,0.0,0.0,0.0,0.0,0.0,0.0,0.0,0.0,0.0,0.0,0.0,0.0,0.0,0.0,0.0,0.0,0.0,0.0,0.0,0.0,0.0,0.0,0.0,0.0,0.0,0.0,0.0,0.0,0.0,0.0,0.0,0.0,0.0,0.0,0.0,0.0,0.0,0.0,0.0,0.0,0.0,0.0,0.0,0.0,0.0,0.0,0.0,0.0,0.0,0.0,0.0,0.0,0.0,0.0,0.0,0.0,0.0,0.0,0.0,0.0,0.0,0.0,0.0,0.0,0.0,0.0,0.0,0.0,0.0,0.0,0.0,0.0,0.0,0.0,0.0,0.0,0.0,0.0,0.0,0.0,0.0,0.0,1.1155,1.0471,0.9958,0.9691,0.8938,0.7807,0.0,0.0,0.0,0.0,0.0,0.0,0.0,0.0,0.0,0.0,0.0,0.0,0.0,0.0,0.0,0.0,0.0,0.0,0.0,0.0,0.0,0.0,0.0,0.0,0.0,0.0,0.0,0.0,0.0,0.0,0.0,0.0,0.0,0.0,0.0,0.0,0.0,0.0,0.0,0.0,0.0,0.0,0.0,0.0,0.0,0.0,0.0,0.0,0.0,0.0,0.0,0.0,0.0,0.0,0.0,0.0,0.0,0.0,0.0,0.0,0.0,0.0,0.0,0.0,0.0,0.0,0.0,0.0,0.0,0.0,0.0,0.0,0.0,0.0,0.0,0.0,0.0,0.0,0.0,0.0,0.0,0.0,0.0,0.0,0.0,0.0,0.0,0.0,0.0,0.0,0.0,0.0,0.0,0.0,0.0,0.0,0.0,0.0,0.0,0.0,0.0,0.0,0.0,0.0,0.0,0.0,0.0,0.0,0.0,0.9726,0.9987,1.0522,1.1234,0.9726,0.8528,0.0,0.0,0.0,0.0,0.0,0.0,0.0,0.0,0.0,0.0,0.0,0.0,0.0,0.0,0.0,0.0,0.0,0.0,0.0,0.0,0.0,0.0,0.0,0.0,0.0,0.0,0.0,0.0,0.0,0.0,0.0,0.0,0.0,0.0,0.0,0.0,0.0,0.0,0.0,0.0,0.0,0.0,0.0,0.0,0.0,0.0,0.0,0.0,0.0,0.0,0.0,0.0,0.0,0.0,0.0,0.0,0.0,0.0,0.0,0.0,0.0,0.0,0.0,0.0,0.0,0.0,0.0,0.0,0.0,0.0,0.0,0.0,0.0,0.0,0.0,0.0,0.0,0.0,0.0,0.0,0.0,0.0,0.0,0.0,0.0,0.0,0.0,0.0,0.0,0.0,0.0,0.0,0.0,0.0,0.0,0.0,0.0,0.0,0.0,0.0,0.0,0.0,0.0,0.0,0.0,0.0,0.0,0.0,0.0,0.9512,0.0,1.1069,1.1797,1.045,0.9155,0.0,0.0,0.0,0.0,0.0,0.0,0.0,0.0,0.0,0.0,0.0,0.0,0.0,0.0,0.0,0.0,0.0,0.0,0.0,0.0,0.0,0.0,0.0,0.0,0.0,0.0,0.0,0.0,0.0,0.0,0.0,0.0,0.0,0.0,0.0,0.0,0.0,0.0,0.0,0.0,0.0,0.0,0.0,0.0,0.0,0.0,0.0,0.0,0.0,0.0,0.0,0.0,0.0,0.0,0.0,0.0,0.0,0.0,0.0,0.0,0.0,0.0,0.0,0.0,0.0,0.0,0.0,0.0,0.0,0.0,0.0,0.0,0.0,0.0,0.0,0.0,0.0,0.0,0.0,0.0,0.0,0.0,0.0,0.0,0.0,0.0,0.0,0.0,0.0,0.0,0.0,0.0,0.0,0.0,0.0,0.0,0.0,0.0,0.0,0.0,0.0,0.0,0.0,0.0,0.0,0.0,0.0,0.0,0.9526,1.0889,1.149,1.155,1.1049,1.0969,0.96,0.0,0.0,0.0,0.0,0.0,0.0,0.0,0.0,0.0,0.0,0.0,0.0,0.0,0.0,0.0,0.0,0.0,0.0,0.0,0.0,0.0,0.0,0.0,0.0,0.0,0.0,0.0,0.0,0.0,0.0,0.0,0.0,0.0,0.0,0.0,0.0,0.0,0.0,0.0,0.0,0.0,0.0,0.0,0.0,0.0,0.0,0.0,0.0,0.0,0.0,0.0,0.0,0.0,0.0,0.0,0.0,0.0,0.0,0.0,0.0,0.0,0.0,0.0,0.0,0.0,0.0,0.0,0.0,0.0,0.0,0.0,0.0,0.0,0.0,0.0,0.0,0.0,0.0,0.0,0.0,0.0,0.0,0.0,0.0,0.0,0.0,0.0,0.0,0.0,0.0,0.0,0.0,0.0,0.0,0.0,0.0,0.0,0.0,0.0,0.0,0.0,0.0,0.0,0.0,0.0,0.0,0.0,0.0,0.0,1.0107,1.0862,1.1463,1.1837,1.0722,0.981,0.0,0.0,0.0,0.0,0.0,0.0,0.0,0.0,0.0,0.0,0.0,0.0,0.0,0.0,0.0,0.0,0.0,0.0,0.0,0.0,0.0,0.0,0.0,0.0,0.0,0.0,0.0,0.0,0.0,0.0,0.0,0.0,0.0,0.0,0.0,0.0,0.0,0.0,0.0,0.0,0.0,0.0,0.0,0.0,0.0,0.0,0.0,0.0,0.0,0.0,0.0,0.0,0.0,0.0,0.0,0.0,0.0,0.0,0.0,0.0,0.0,0.0,0.0,0.0,0.0,0.0,0.0,0.0,0.0,0.0,0.0,0.0,0.0,0.0,0.0,0.0,0.0,0.0,0.0,0.0,0.0,0.0,0.0,0.0,0.0,0.0,0.0,0.0,0.0,0.0,0.0,0.0,0.0,0.0,0.0,0.0,0.0,0.0,0.0,0.0,0.0,0.0,0.0,0.0,0.0,0.0,0.0,0.0,0.0,1.0708,1.1423,1.1971,1.2291,1.0915,1.0037,0.9675,0.0,0.0,0.0,0.0,0.0,0.0,0.0,0.0,0.0,0.0,0.0,0.0,0.0,0.0,0.0,0.0,0.0,0.0,0.0,0.0,0.0,0.0,0.0,0.0,0.0,0.0,0.0,0.0,0.0,0.0,0.0,0.0,0.0,0.0,0.0,0.0,0.0,0.0,0.0,0.0,0.0,0.0,0.0,0.0,0.0,0.0,0.0,0.0,0.0,0.0,0.0,0.0,0.0,0.0,0.0,0.0,0.0,0.0,0.0,0.0,0.0,0.0,0.0,0.0,0.0,0.0,0.0,0.0,0.0,0.0,0.0,0.0,0.0,0.0,0.0,0.0,0.0,0.0,0.0,0.0,0.0,0.0,0.0,0.0,0.0,0.0,0.0,0.0,0.0,0.0,0.0,0.0,0.0,0.0,0.0,0.0,0.0,0.0,0.0,0.0,0.0,0.0,0.0,0.0,0.0,0.0,0.0,0.0,1.2392,1.2993,1.3033,1.2458,1.1536,1.0328,0.0,0.0,0.0,0.0,0.0,0.0,0.0,0.0,0.0,0.0,0.0,0.0,0.0,0.0,0.0,0.0,0.0,0.0,0.0,0.0,0.0,0.0,0.0,0.0,0.0,0.0,0.0,0.0,0.0,0.0,0.0,0.0,0.0,0.0,0.0,0.0,0.0,0.0,0.0,0.0,0.0,0.0,0.0,0.0,0.0,0.0,0.0,0.0,0.0,0.0,0.0,0.0,0.0,0.0,0.0,0.0,0.0,0.0,0.0,0.0,0.0,0.0,0.0,0.0,0.0,0.0,0.0,0.0,0.0,0.0,0.0,0.0,0.0,0.0,0.0,0.0,0.0,0.0,0.0,0.0,0.0,0.0,0.0,0.0,0.0,0.0,0.0,0.0,0.0,0.0,0.0,0.0,0.0,0.0,0.0,0.0,0.0,0.0,0.0,0.0,0.0,0.0,0.0,0.0,0.0,0.0,0.0,0.0,0.0,1.3581,1.4202,1.4322,1.3921,1.2452,1.1246,0.0,0.0,0.0,0.0,0.0,0.0,0.0,0.0,0.0,0.0,0.0,0.0,0.0,0.0,0.0,0.0,0.0,0.0,0.0,0.0,0.0,0.0,0.0,0.0,0.0,0.0,0.0,0.0,0.0,0.0,0.0,0.0,0.0,0.0,0.0,0.0,0.0,0.0,0.0,0.0,0.0,0.0,0.0,0.0,0.0,0.0,0.0,0.0,0.0,0.0,0.0,0.0,0.0,0.0,0.0,0.0,0.0,0.0,0.0,0.0,0.0,0.0,0.0,0.0,0.0,0.0,0.0,0.0,0.0,0.0,0.0,0.0,0.0,0.0,0.0,0.0,0.0,0.0,0.0,0.0,0.0,0.0,0.0,0.0,0.0,0.0,0.0,0.0,0.0,0.0,0.0,0.0,0.0,0.0,0.0,0.0,0.0,0.0,0.0,0.0,0.0,0.0,0.0,0.0,0.0,0.0,0.0,0.0,1.3093,1.4429,1.5264,1.5212,1.4242,1.3231,1.2016,0.0,0.0,0.0,0.0,0.0,0.0,0.0,0.0,0.0,0.0,0.0,0.0,0.0,0.0,0.0,0.0,0.0,0.0,0.0,0.0,0.0,0.0,0.0,0.0,0.0,0.0,0.0,0.0,0.0,0.0,0.0,0.0,0.0,0.0,0.0,0.0,0.0,0.0,0.0,0.0,0.0,0.0,0.0,0.0,0.0,0.0,0.0,0.0,0.0,0.0,0.0,0.0,0.0,0.0,0.0,0.0,0.0,0.0,0.0,0.0,0.0,0.0,0.0,0.0,0.0,0.0,0.0,0.0,0.0,0.0,0.0,0.0,0.0,0.0,0.0,0.0,0.0,0.0,0.0,0.0,0.0,0.0,0.0,0.0,0.0,0.0,0.0,0.0,0.0,0.0,0.0,0.0,0.0,0.0,0.0,0.0,0.0,0.0,0.0,0.0,0.0,0.0,0.0,0.0,0.0,0.0,0.0,0.0,1.3868,1.5037,1.6132,1.5939,1.4238,1.3779,1.2472,0.0,0.0,0.0,0.0,0.0,0.0,0.0,0.0,0.0,0.0,0.0,0.0,0.0,0.0,0.0,0.0,0.0,0.0,0.0,0.0,0.0,0.0,0.0,0.0,0.0,0.0,0.0,0.0,0.0,0.0,0.0,0.0,0.0,0.0,0.0,0.0,0.0,0.0,0.0,0.0,0.0,0.0,0.0,0.0,0.0,0.0,0.0,0.0,0.0,0.0,0.0,0.0,0.0,0.0,0.0,0.0,0.0,0.0,0.0,0.0,0.0,0.0,0.0,0.0,0.0,0.0,0.0,0.0,0.0,0.0,0.0,0.0,0.0,0.0,0.0,0.0,0.0,0.0,0.0,0.0,0.0,0.0,0.0,0.0,0.0,0.0,0.0,0.0,0.0,0.0,0.0,0.0,0.0,0.0,0.0,0.0,0.0,0.0,0.0,0.0,0.0,0.0,0.0,0.0,0.0,0.0,0.0,0.0,1.4462,1.5618,1.6339,1.6547,1.611,1.4066,1.1869,0.0,0.0,0.0,0.0,0.0,0.0,0.0,0.0,0.0,0.0,0.0,0.0,0.0,0.0,0.0,0.0,0.0,0.0,0.0,0.0,0.0,0.0,0.0,0.0,0.0,0.0,0.0,0.0,0.0,0.0,0.0,0.0,0.0,0.0,0.0,0.0,0.0,0.0,0.0,0.0,0.0,0.0,0.0,0.0,0.0,0.0,0.0,0.0,0.4799,0.0,0.0,0.0,0.0,0.0,0.0,0.0,0.0,0.0,0.0,0.0,0.0,0.0,0.0,0.0,0.0,0.0,0.0,0.0,0.0,0.0,0.0,0.0,0.0,0.0,0.0,0.0,0.0,0.0,0.0,0.0,0.0,0.0,0.0,0.0,0.0,0.0,0.0,0.0,0.0,0.0,0.0,0.0,0.0,0.0,0.0,0.0,0.0,0.0,0.0,0.0,0.0,0.0,0.0,0.0,0.0,0.0,0.0,0.0,1.4997,1.6012,1.6613,1.6472,1.5562,1.4042,1.2342,0.0,0.0,0.0,0.0,0.0,0.0,0.0,0.0,0.0,0.0,0.0,0.0,0.0,0.0,0.0,0.0,0.0,0.0,0.0,0.0,0.0,0.0,0.0,0.0,0.0,0.0,0.0,0.0,0.0,0.0,0.0,0.0,0.0,0.0,0.0,0.0,0.0,0.0,0.0,0.0,0.0,0.0,0.0,0.0,0.0,0.0,0.0,0.0,0.0,0.0,0.0,0.0,0.0,0.0,0.0,0.0,0.0,0.0,0.0,0.0,0.0,0.0,0.0,0.0,0.0,0.0,0.0,0.0,0.0,0.0,0.0,0.0,0.0,0.0,0.0,0.0,0.0,0.0,0.0,0.0,0.0,0.0,0.0,0.0,0.0,0.0,0.0,0.0,0.0,0.0,0.0,0.0,0.0,0.0,0.0,0.0,0.0,0.0,0.0,0.0,0.0,0.0,0.0,0.0,0.0,0.0,0.0,1.4128,1.5317,1.6179,1.6734,1.6231,1.4612,1.4099,1.3273,1.1945,0.0,0.0,0.0,0.0,0.0,0.0,0.0,0.0,0.0,0.0,0.0,0.0,0.0,0.0,0.0,0.0,0.0,0.0,0.0,0.0,0.0,0.0,0.0,0.0,0.0,0.0,0.0,0.0,0.0,0.0,0.0,0.0,0.0,0.0,0.0,0.0,0.0,0.0,0.4301,0.4737,0.0,0.0,0.0,0.0,0.0,0.0,0.0,0.0,0.4945,0.0,0.0,0.0,0.0,0.0,0.0,0.0,0.0,0.0,0.0,0.0,0.0,0.0,0.0,0.0,0.0,0.0,0.0,0.0,0.0,0.0,0.0,0.0,0.0,0.0,0.0,0.0,0.0,0.0,0.0,0.0,0.0,0.0,0.0,0.0,0.0,0.0,0.0,0.0,0.0,0.0,0.0,0.0,0.0,0.0,0.0,0.0,0.0,0.0,0.0,0.0,0.0,0.0,0.0,0.0,0.0,1.4115,1.4442,1.5023,1.5879,1.6239,1.6155,1.5606,1.5055,1.4137,1.2582,0.0,0.0,0.0,0.0,0.0,0.0,0.0,0.0,0.0,0.0,0.0,0.0,0.0,0.0,0.0,0.0,0.0,0.0,0.0,0.0,0.0,0.0,0.0,0.0,0.0,0.0,0.0,0.0,0.0,0.0,0.0,0.0,0.0,0.0,0.0,0.0,0.0,0.0,0.0,0.5142,0.5325,0.0,0.0,0.0,0.0,0.0,0.0,0.0,0.0,0.4901,0.0,0.0,0.0,0.0,0.0,0.0,0.0,0.0,0.0,0.0,0.0,0.0,0.0,0.0,0.0,0.0,0.0,0.0,0.0,0.0,0.0,0.0,0.0,0.0,0.0,0.0,0.0,0.0,0.0,0.0,0.0,0.0,0.0,0.0,0.0,0.0,0.0,0.0,0.0,0.0,0.0,0.0,0.0,0.0,0.0,0.0,0.0,0.0,0.0,0.0,0.0,0.0,0.0,0.0,0.0,1.3554,1.4509,1.5177,1.5591,1.5745,1.5752,1.5585,1.4232,1.2977,0.0,0.0,0.0,0.0,0.0,0.0,0.0,0.0,0.0,0.0,0.0,0.0,0.0,0.0,0.0,0.0,0.0,0.0,0.0,0.0,0.0,0.0,0.0,0.0,0.0,0.0,0.0,0.0,0.0,0.0,0.0,0.0,0.0,0.0,0.0,0.0,0.0,0.0,0.0,0.0,0.5315,0.5487,0.5569,0.0,0.0,0.0,0.0,0.0,0.0,0.5162,0.5016,0.0,0.0,0.0,0.0,0.0,0.0,0.0,0.0,0.0,0.0,0.0,0.0,0.0,0.0,0.0,0.0,0.0,0.0,0.0,0.0,0.0,0.0,0.0,0.0,0.0,0.0,0.0,0.0,0.0,0.0,0.0,0.0,0.0,0.0,0.0,0.0,0.0,0.0,0.0,0.0,0.0,0.0,0.0,0.0,0.0,0.0,0.0,0.0,0.0,0.0,0.0,0.0,0.0,0.0,0.0,1.2849,1.4322,1.5164,1.5217,1.5217,1.5251,1.5284,1.3522,1.2145,0.0,0.0,0.0,0.0,0.0,0.0,0.0,0.0,0.0,0.0,0.0,0.0,0.0,0.0,0.0,0.0,0.0,0.0,0.0,0.0,0.0,0.0,0.0,0.0,0.0,0.0,0.0,0.0,0.0,0.0,0.0,0.0,0.0,0.0,0.0,0.0,0.0,0.0,0.0,0.0,0.0,0.5684,0.5827,0.5431,0.0,0.0,0.0,0.0,0.5555,0.5481,0.0,0.0,0.0,0.0,0.0,0.0,0.0,0.0,0.0,0.0,0.0,0.0,0.0,0.0,0.0,0.0,0.0,0.0,0.0,0.0,0.0,0.0,0.0,0.0,0.0,0.0,0.0,0.0,0.0,0.0,0.0,0.0,0.0,0.0,0.0,0.0,0.0,0.0,0.0,0.0,0.0,0.0,0.0,0.0,0.0,0.0,0.0,0.0,0.0,0.0,0.0,0.0,0.0,0.0,0.0,0.0,1.2808,1.3728,1.4362,1.4603,1.4616,1.4743,1.4997,1.4256,1.3373,0.0,0.0,0.0,0.0,0.0,0.0,0.0,0.0,0.0,0.0,0.0,0.0,0.0,0.0,0.0,0.0,0.0,0.0,0.0,0.0,0.0,0.0,0.0,0.0,0.0,0.0,0.0,0.0,0.0,0.0,0.0,0.0,0.0,0.0,0.0,0.0,0.0,0.0,0.0,0.0,0.0,0.6165,0.5979,0.5825,0.5718,0.0,0.0,0.5867,0.6278,0.6329,0.0,0.0,0.0,0.0,0.0,0.0,0.0,0.0,0.0,0.0,0.0,0.0,0.0,0.0,0.0,0.0,0.0,0.0,0.0,0.0,0.0,0.0,0.0,0.0,0.0,0.0,0.0,0.0,0.0,0.0,0.0,0.0,0.0,0.0,0.0,0.0,0.0,0.0,0.0,0.0,0.0,0.0,0.0,0.0,0.0,0.0,0.0,0.0,0.0,0.0,0.0,0.0,0.0,0.0,0.0,1.2071,1.2842,1.4115,1.4723,1.4529,1.4516,1.4663,1.4957,1.3315,1.2434,0.0,0.0,0.0,0.0,0.0,0.0,0.0,0.0,0.0,0.0,0.0,0.0,0.0,0.0,0.0,0.0,0.0,0.0,0.0,0.0,0.0,0.0,0.0,0.0,0.0,0.0,0.0,0.0,0.0,0.0,0.0,0.0,0.0,0.0,0.0,0.0,0.0,0.0,0.0,0.0,0.0,0.0,0.6317,0.6493,0.0,0.0,0.0,0.6478,0.6583,0.0,0.0,0.0,0.0,0.0,0.0,0.0,0.0,0.0,0.0,0.0,0.0,0.0,0.0,0.0,0.0,0.0,0.0,0.0,0.0,0.0,0.0,0.0,0.0,0.0,0.0,0.0,0.0,0.0,0.0,0.0,0.0,0.0,0.0,0.0,0.0,0.0,0.0,0.0,0.0,0.0,0.0,0.0,0.0,0.0,0.0,0.0,0.0,0.0,0.0,0.0,0.0,0.0,0.0,0.0,0.0,0.0,1.2849,1.4496,1.511,1.4543,1.4516,1.4663,1.4923,1.2949,0.0,0.0,0.0,0.0,0.0,0.0,0.0,0.0,0.0,0.0,0.0,0.0,0.0,0.0,0.0,0.0,0.0,0.0,0.0,0.0,0.0,0.0,0.0,0.0,0.0,0.0,0.0,0.2927,0.0,0.0,0.0,0.0,0.0,0.0,0.0,0.0,0.0,0.0,0.0,0.0,0.0,0.0,0.5707,0.6729,0.7079,0.7128,0.0,0.0,0.7068,0.6993,0.7044,0.6776,0.0,0.0,0.0,0.0,0.0,0.0,0.0,0.0,0.0,0.0,0.0,0.0,0.0,0.0,0.0,0.0,0.0,0.0,0.0,0.0,0.0,0.0,0.0,0.0,0.0,0.0,0.0,0.0,0.0,0.0,0.0,0.0,0.0,0.0,0.0,0.0,0.0,0.0,0.0,0.0,0.0,0.0,0.0,0.0,0.0,0.0,0.0,0.0,0.0,0.0,0.0,0.0,0.0,0.0,1.2445,1.2869,1.4496,1.5117,1.4543,1.4516,1.4663,1.4937,1.3964,1.3074,0.0,0.0,0.0,0.0,0.0,0.0,0.0,0.0,0.0,0.0,0.0,0.0,0.0,0.0,0.0,0.0,0.0,0.0,0.0,0.0,0.0,0.0,0.0,0.0,0.0,0.0,0.0,0.0,0.0,0.0,0.0,0.0,0.0,0.0,0.0,0.0,0.0,0.0,0.0,0.0,0.0,0.6766,0.7302,0.7448,0.7638,0.0,0.0,0.7597,0.7719,0.7974,0.7672,0.6234,0.0,0.0,0.0,0.0,0.0,0.0,0.0,0.0,0.0,0.0,0.0,0.0,0.0,0.0,0.0,0.0,0.0,0.0,0.0,0.0,0.0,0.0,0.0,0.0,0.0,0.0,0.0,0.0,0.0,0.0,0.0,0.0,0.0,0.0,0.0,0.0,0.0,0.0,0.0,0.0,0.0,0.0,0.0,0.0,0.0,0.0,0.0,0.0,0.0,0.0,0.0,0.0,0.0,1.2545,1.3046,1.4763,1.5471,1.507,1.489,1.4937,1.5224,1.4195,1.3307,0.0,0.0,0.0,0.0,0.0,0.0,0.0,0.0,0.0,0.0,0.0,0.0,0.0,0.0,0.0,0.0,0.0,0.0,0.0,0.0,0.0,0.0,0.0,0.0,0.0,0.0,0.0,0.0,0.364,0.4087,0.4982,0.0,0.0,0.0,0.0,0.0,0.0,0.0,0.0,0.0,0.0,0.674,0.7627,0.8119,0.0,0.0,0.816,0.813,0.8099,0.796,0.7502,0.6468,0.6051,0.0,0.0,0.0,0.0,0.0,0.0,0.0,0.0,0.0,0.0,0.0,0.0,0.0,0.0,0.0,0.0,0.0,0.0,0.0,0.0,0.0,0.0,0.0,0.0,0.0,0.0,0.0,0.0,0.0,0.0,0.0,0.0,0.0,0.0,0.0,0.0,0.0,0.0,0.0,0.0,0.0,0.0,0.0,0.0,0.0,0.0,0.0,0.0,0.0,0.0,0.0,0.0,1.2639,1.3333,1.4983,1.5685,1.5404,1.5117,1.5064,1.5231,1.4295,1.3494,0.0,0.0,0.0,0.0,0.0,0.0,0.0,0.0,0.0,0.0,0.0,0.0,0.0,0.0,0.0,0.0,0.0,0.0,0.0,0.0,0.0,0.0,0.0,0.0,0.0,0.0,0.0,0.0,0.399,0.4166,0.4738,0.0,0.0,0.0,0.0,0.0,0.0,0.0,0.0,0.0,0.0,0.6967,0.7989,0.8544,0.871,0.8433,0.8343,0.8316,0.8218,0.7936,0.7475,0.6729,0.0,0.0,0.0,0.0,0.0,0.0,0.0,0.0,0.0,0.0,0.0,0.0,0.0,0.0,0.0,0.0,0.0,0.0,0.0,0.0,0.0,0.0,0.0,0.0,0.0,0.0,0.0,0.0,0.0,0.0,0.8804,0.0,0.0,0.0,0.0,0.0,0.0,0.0,0.0,0.0,0.0,0.0,0.0,0.0,0.0,0.0,0.0,0.0,0.0,0.0,0.0,0.0,0.0,1.2739,1.3627,1.5077,1.5691,1.5404,1.511,1.4977,1.4983,1.4402,1.3808,1.32,0.0,0.0,0.0,0.0,0.0,0.0,0.0,0.0,0.0,0.0,0.0,0.0,0.0,0.0,0.0,0.0,0.0,0.0,0.0,0.0,0.0,0.0,0.0,0.0,0.0,0.0,0.4457,0.4652,0.4684,0.0,0.0,0.0,0.0,0.0,0.0,0.0,0.0,0.0,0.0,0.7221,0.7454,0.8294,0.8464,0.8543,0.8459,0.8245,0.8058,0.8062,0.8035,0.778,0.0,0.0,0.0,0.0,0.0,0.0,0.0,0.0,0.0,0.0,0.0,0.0,0.0,0.0,0.0,0.0,0.0,0.0,0.0,0.0,0.0,0.0,0.0,0.0,0.0,0.0,0.0,1.1182,1.0568,0.0,0.0,0.0,0.0,0.0,0.0,0.0,0.0,0.0,0.0,0.0,1.3933,1.4128,0.0,0.0,0.0,0.0,0.0,0.0,0.0,0.0,0.0,0.0,0.0,0.0,1.2222,1.3572,1.5084,1.5785,1.5685,1.5398,1.5344,1.5524,1.4977,1.4215,1.324,0.0,0.0,0.0,0.0,0.0,0.0,0.0,0.0,0.0,0.0,0.0,0.0,0.0,0.0,0.0,0.0,0.0,0.0,0.0,0.0,0.0,0.0,0.0,0.0,0.0,0.4618,0.0,0.0,0.0,0.0,0.0,0.0,0.0,0.0,0.0,0.0,0.0,0.699,0.7584,0.772,0.789,0.8452,0.8526,0.8474,0.0,0.0,0.0,0.0,0.0,0.0,0.0,0.0,0.0,0.0,0.0,0.0,0.0,0.0,0.7546,0.6461,0.6298,0.6312,0.6257,0.0,0.0,0.0,0.0,0.0,0.0,0.0,0.0,0.0,0.0,0.0,0.0,0.0,0.0,1.2732,0.0,1.1977,0.0,0.0,0.0,0.0,0.0,0.0,0.0,0.0,1.4771,1.5402,1.5304,1.5886,1.5705,0.0,1.4556,1.3373,0.0,0.0,0.0,0.0,0.0,0.0,0.0,0.0,1.2207,1.3913,1.5139,1.5825,1.5818,1.5545,1.5484,1.5665,1.5217,1.4556,1.3687,1.2652,1.1579,0.0,0.0,0.0,0.0,0.0,0.0,0.0,0.0,0.0,0.0,0.0,0.0,0.0,0.0,0.0,0.0,0.0,0.0,0.0,0.0,0.0,0.0,0.0,0.4826,0.0,0.0,0.0,0.0,0.0,0.0,0.0,0.0,0.0,0.6441,0.7068,0.7678,0.8072,0.8193,0.8243,0.855,0.0,0.0,0.0,0.0,0.0,0.0,0.0,0.7987,0.7984,0.7906,0.7821,0.7667,0.7961,0.8344,0.8296,0.0,0.0,0.7326,0.7139,0.7153,0.7109,0.7336,0.7489,0.7346,0.746,0.7541,0.0,0.0,0.0,0.0,0.0,0.0,0.0,0.0,1.3778,1.3834,0.0,1.316,0.0,0.0,0.0,0.0,0.0,0.0,0.0,0.0,1.7223,1.766,1.682,1.7388,1.7225,1.638,1.6567,1.5939,1.4522,1.2572,0.0,0.0,0.0,0.0,0.0,0.0,1.27,1.4641,1.5465,1.5852,1.5838,1.5578,1.5424,1.5411,1.5144,1.4856,1.4556,1.3874,1.2932,1.1571,1.0987,0.0,0.0,0.0,0.0,0.0,0.0,0.0,0.0,0.0,0.0,0.0,0.0,0.0,0.0,0.0,0.0,0.0,0.0,0.0,0.0,0.5071,0.0,0.0,0.0,0.0,0.0,0.0,0.0,0.0,0.0,0.0,0.7251,0.7831,0.8394,0.8672,0.0,0.0,0.0,0.0,0.8666,0.8932,0.8711,0.856,0.8703,0.871,0.8703,0.872,0.0,0.0,0.8615,0.924,0.9431,0.8539,0.8838,0.9086,0.8788,0.836,0.8133,0.8255,0.8299,0.8364,0.8499,0.8487,0.8572,1.7395,0.0,0.0,0.0,0.0,1.6239,1.6834,1.7695,1.7275,1.662,1.5805,1.5431,0.0,0.0,0.0,0.0,0.0,0.0,1.6046,1.6673,1.7828,1.8373,1.8283,1.8285,1.8138,1.7842,1.7295,1.6807,1.6359,1.5378,1.3627,1.1229,0.0,0.0,0.0,0.0,1.3069,1.5019,1.5939,1.6241,1.5816,1.5949,1.5919,1.5712,1.5625,1.5444,1.5157,1.465,1.4268,1.3988,1.3121,0.0,0.0,0.0,0.0,0.0,0.0,0.0,0.0,0.0,0.0,0.0,0.0,0.0,0.0,0.0,0.0,0.0,0.0,0.0,0.5114,0.523,0.512,0.0,0.0,0.0,0.0,0.0,0.0,0.0,0.0,0.0,0.8425,0.8608,0.8777,0.0,0.0,0.8722,0.8504,0.8852,0.9203,0.9248,0.0,0.0,0.0,0.8849,0.8818,0.914,0.9281,0.9411,0.9768,0.9964,1.0103,0.9713,0.9751,0.9761,0.9666,0.93,0.9028,0.9062,0.915,0.9269,0.9408,0.9275,0.9202,2.0094,1.8497,1.7983,1.7929,1.8203,1.833,1.8885,1.9679,1.9212,1.8664,1.807,1.7549,1.6573,1.5277,1.481,0.0,0.0,0.0,1.7174,1.7876,1.8417,1.8751,1.8905,1.8744,1.8657,1.8631,1.7996,1.7682,1.7669,1.7081,1.5571,1.326,0.0,0.0,1.3714,1.3224,1.3964,1.5719,1.6639,1.6853,1.6558,1.6333,1.6192,1.6012,1.5892,1.5752,1.5571,1.5258,1.5324,1.5616,1.4881,1.3529,0.0,0.0,0.0,0.0,0.0,0.0,0.0,0.0,0.0,0.0,0.0,0.5698,0.6667,0.0,0.0,0.0,0.5279,0.5508,0.565,0.5857,0.0,0.0,0.0,0.0,0.0,0.0,0.0,0.8102,0.8747,0.9184,0.9276,0.934,0.9313,0.9137,0.9,0.8871,0.8841,0.0,0.9733,0.9735,0.9631,0.953,0.9588,0.9452,0.9429,0.9693,0.9701,0.9774,1.0126,1.028,1.041,1.0397,1.0202,1.0141,1.0141,0.9914,0.9713,0.9663,0.9768,0.9903,0.9988,0.9878,0.9751,2.2298,2.1924,2.0314,1.976,1.996,2.0201,2.0301,2.0281,1.9987,2.0007,2.016,1.9359,1.8831,1.849,1.7435,0.0,1.7762,1.7776,1.8223,1.8991,1.8991,1.8978,1.8958,1.8931,1.8925,1.8911,1.8624,1.8504,1.849,1.7956,1.7154,1.6132,1.5838,1.5752,1.573,1.4823,1.5118,1.676,1.7351,1.7573,1.7538,1.6783,1.6299,1.6273,1.6005,1.5865,1.5865,1.5783,1.6014,1.6531,1.614,1.5141,1.346,0.0,0.0,0.0,0.0,0.0,0.0,0.0,0.0,0.0,0.0,0.0,0.0,0.0,0.0,0.6051,0.6232,0.0,0.6546,0.6803,0.0,0.0,0.0,0.7432,0.8532,0.8439,0.8486,0.8767,0.0,0.0,0.9859,0.0,0.9917,0.9503,0.9202,0.9,0.938,0.9898,1.0382,1.0263,1.0187,1.011,1.0181,1.0215,1.0219,1.0249,1.0307,1.0324,1.0199,1.0462,1.0583,1.0465,1.0321,1.0317,1.0314,1.0304,1.027,1.0124,1.0195,1.029,1.031,1.0314,1.0314,2.2719,2.2619,2.2205,2.169,2.1129,2.0962,2.0902,2.0875,2.0595,2.0381,2.0201,1.9786,1.9439,1.9158,1.9092,1.9145,1.9285,1.9506,1.9593,1.9593,1.9593,1.9472,1.9259,1.9038,1.8925,1.8905,1.8631,1.8604,1.8804,1.8677,1.8577,1.8524,1.8457,1.7555,1.5919,1.5939,1.6547,1.7368,1.7499,1.7495,1.7279,1.6867,1.6493,1.6279,1.6206,1.6166,1.6172,1.5934,1.5834,1.6038,1.6305,1.6088,1.5175,1.2906,0.0,0.0,0.0,0.0,0.0,0.0,0.0,0.0,0.0,0.4792,0.6712,0.0,0.6005,0.0,0.6321,0.6797,0.7282,0.7292,0.0,0.0,0.7024,0.7948,0.9666,0.9297,0.9122,0.9534,0.992,1.0171,1.0171,1.0202,1.0188,1.0076,0.9585,0.9274,0.9435,1.0049,1.0656,1.0601,1.0366,1.0236,1.0287,1.0375,1.0443,1.0443,1.0534,1.0612,1.0616,1.0616,1.0619,1.0616,1.0616,1.0616,1.0612,1.0616,1.0605,1.0561,1.05,1.048,1.0588,1.0612,1.0612,2.2866,2.2846,2.2719,2.2378,2.1924,2.1757,2.169,2.1663,2.1249,2.0975,2.0808,2.0508,2.0294,2.0147,2.0174,2.0187,2.0194,2.0221,2.0147,1.9993,1.9993,1.9907,1.9746,1.9446,1.9319,1.9305,1.9018,1.8898,1.8925,1.8925,1.8945,1.8978,1.8978,1.8323,1.7101,1.7384,1.7528,1.7556,1.7642,1.7502,1.7341,1.6927,1.6627,1.6466,1.6206,1.6019,1.5892,1.6142,1.6229,1.6229,1.6272,1.5604,1.4128,1.2663,1.1253,0.0,0.0,0.0,0.0,0.0,0.0,0.0,0.0,0.0,0.0,0.0,0.7071,0.6682,0.7146,0.7685,0.8153,0.8241,0.8213,0.7929,0.8295,0.896,1.0369,1.0068,0.9777,1.011,1.0331,1.0477,1.0477,1.0477,1.0477,1.0477,1.0141,0.9927,0.9872,1.0324,1.0666,1.0729,1.0606,1.0477,1.0477,1.0541,1.0592,1.0599,1.0666,1.0721,1.0721,1.0782,1.0939,1.0748,1.0826,1.0894,1.0839,1.0877,1.0917,1.0907,1.085,1.0778,1.0731,1.0775,1.0672,2.2866,2.2839,2.2585,2.2478,2.2472,2.2432,2.2398,2.2331,2.183,2.159,2.153,2.1243,2.1102,2.1089,2.0842,2.0735,2.0708,2.0421,2.0287,2.0287,2.0254,2.0234,2.0221,1.9973,1.9853,1.984,1.9599,1.9325,1.9045,1.9038,1.8885,1.8611,1.8604,1.8604,1.8617,1.8605,1.8315,1.7744,1.7682,1.7642,1.7635,1.7108,1.678,1.6687,1.6206,1.5785,1.5471,1.6123,1.6472,1.6557,1.6,1.4468,1.1941,1.176,1.0947,0.0,0.8458,0.0,0.0,0.0,0.0,0.0,0.0,0.0,0.0,0.7661,0.8007,0.774,0.8289,0.875,0.9055,0.9313,0.9412,0.9093,0.9588,1.0141,1.0692,1.0677,1.0575,1.0575,1.0694,1.0775,1.0778,1.0778,1.0778,1.0775,1.0635,1.0581,1.0471,1.0551,1.0699,1.0707,1.0721,1.0683,1.0697,1.0727,1.0751,1.0751,1.0645,1.0775,1.0658,1.1028,1.1077,1.0977,1.0985,1.1104,1.0999,1.1077,1.1151,1.1141,1.1151,1.1087,1.0877,1.0752,1.0782,2.2866,2.2853,2.2799,2.2779,2.2759,2.2519,2.2285,2.2058,2.1951,2.177,2.1537,2.1236,2.1102,2.1102,2.1056,2.1029,2.1015,2.0722,2.0595,2.0581,2.0341,2.0234,2.0227,2.018,2.0154,2.0147,2.0094,1.9913,1.9639,1.9639,1.9486,1.9212,1.9199,1.9205,1.9205,0.0,0.0,0.0,1.8116,1.8077,1.7949,1.7609,1.7188,1.6727,1.66,0.0,1.5785,1.5441,1.5551,1.5893,1.5403,0.0,0.0,0.0,0.0,0.0,0.0,0.0,0.0,0.0,0.0,0.0,0.7821,0.7308,0.8047,0.8535,0.8704,0.8689,0.9117,0.9517,0.9808,0.9886,0.9905,1.0035,1.0084,1.0504,1.1042,1.1066,1.1036,1.1036,1.106,1.1077,1.1067,1.108,1.1073,1.106,1.0933,1.0646,1.0607,1.0685,1.0697,1.0717,1.0744,1.0727,1.0721,1.0829,1.0904,1.0917,1.073,1.0779,1.0779,1.095,1.1265,1.1351,1.1269,1.1165,1.1128,1.1145,1.1182,1.1165,1.1263,1.1294,1.1118,1.0819,1.0829,2.2866,0.0,2.2866,2.2866,0.0,2.2706,2.2559,2.2398,2.2111,2.1904,2.1757,2.1467,2.1401,2.153,2.139,2.1336,2.1316,2.1022,2.0889,2.0882,2.0735,2.0661,2.0668,2.0664,2.0584,2.0448,2.0301,2.016,2.002,2.0013,1.994,1.9793,1.9653,1.9579,1.9579,1.9439,1.9273,1.8962,1.8541,1.8196,1.8043,1.7749,1.7375,1.6947,0.0,0.0,0.0,0.0,0.0,0.0,0.0,0.0,0.0,0.0,0.0,0.9713,0.9268,0.9151,0.9314,0.9086,0.9039,0.9315,0.9052,0.9064,0.9358,0.9437,0.9486,0.9493,0.9829,1.0137,1.0354,1.0446,1.0451,1.0518,1.0614,1.0972,1.1326,1.1403,1.1303,1.1162,1.1162,1.1162,1.1162,1.1162,1.1162,1.1162,1.102,1.0882,1.0869,1.09,1.0941,1.0938,1.0938,1.0938,1.0945,1.0995,1.1053,1.1063,1.0973,1.101,1.1017,1.1226,1.1399,1.1621,1.1423,1.1369,1.1301,1.1335,1.1389,1.1396,1.145,1.1484,1.1396,1.1324,1.1107,2.2946,2.2939,2.2886,2.2866,2.2866,2.2866,2.2866,2.2826,0.0,0.0,0.0,2.2004,2.1977,2.1964,2.1737,2.1623,2.161,2.1376,2.1236,2.1189,2.1182,2.1162,2.1102,2.1139,2.1031,2.0742,2.0508,2.0368,2.0314,2.0307,2.0281,2.0214,1.9987,1.9846,1.9661,1.9559,1.9428,1.9394,1.8843,1.845,1.8196,1.7903,1.7575,1.7235,1.6987,1.606,1.4586,1.4535,1.4517,1.4317,1.2761,1.1947,1.2183,1.1032,0.9896,0.9102,0.9066,0.9157,0.9303,0.9452,0.9493,0.9169,1.016,1.0631,1.0428,1.0183,1.0168,1.0171,1.0439,1.066,1.0785,1.0907,1.0903,1.076,1.1057,1.1351,1.1525,1.1532,1.1545,1.1382,1.1257,1.1246,1.1257,1.1257,1.1243,1.1246,1.1267,1.1246,1.1236,1.1331,1.1276,1.1134,1.1121,1.1148,1.1162,1.1189,1.1199,1.1206,1.1229,1.1243,1.1263,1.1492,1.1516,1.1577,1.1609,1.1531,1.1467,1.1521,1.1613,1.1616,1.1616,1.1616,1.1606,1.1664,1.1543,2.326,2.324,2.2973,2.2866,2.2866,2.2866,2.2866,2.2832,2.2809,2.2653,2.2345,2.2681,2.2433,2.1984,2.1937,2.1924,2.1924,2.1884,2.173,0.0,2.149,2.1356,2.1109,2.1069,2.1056,2.1049,2.1002,2.0855,2.0635,2.0615,2.0488,2.0267,2.0194,1.9913,1.9549,1.9628,1.9599,1.9428,1.9018,1.8844,1.8798,1.8517,1.809,1.7555,1.7482,1.6972,1.6012,1.3908,1.2526,1.1986,1.06,0.9859,0.9884,1.0614,1.0475,0.9428,0.9557,0.9764,0.991,1.007,1.0143,1.0133,1.0737,1.1027,1.0717,1.0579,1.0626,1.0633,1.0884,1.1077,1.1101,1.1124,1.1199,1.1188,1.1211,1.1265,1.1525,1.1541,1.1535,1.1531,1.1555,1.1541,1.1528,1.1535,1.1528,1.1545,1.1504,1.1541,1.1491,1.1615,1.1466,1.1303,1.1162,1.1162,1.1206,1.1284,1.1348,1.1362,1.146,1.1518,1.1518,1.1541,1.1555,1.1548,1.1582,1.1599,1.1579,1.1599,1.1616,1.1616,1.1616,1.1616,1.1616,1.1589,1.1569,2.3567,2.3547,2.3414,2.3267,2.31,2.2933,2.2866,2.2853,2.2875,2.2815,2.2645,2.2822,2.2761,2.2452,2.2291,2.2218,2.2211,2.2058,2.1917,2.1797,2.164,2.1573,2.1577,2.143,2.1356,2.1336,2.1182,2.1042,2.0922,2.0915,2.0835,2.0702,2.0555,2.0327,2.0054,2.0034,1.9973,1.9972,1.9399,1.9092,1.8931,1.8791,1.8059,1.6848,1.6727,1.579,1.3821,1.4672,1.3609,1.0206,0.9831,0.9667,0.9841,1.0244,1.0176,0.9859,0.9995,1.0171,1.0402,1.0494,1.0538,1.0528,1.1097,1.1326,1.1185,1.1018,1.0958,1.0968,1.1162,1.1287,1.129,1.1362,1.144,1.1358,1.1368,1.1399,1.1603,1.1616,1.1616,1.1616,1.1616,1.1616,1.1616,1.1616,1.1616,1.1616,1.1619,1.1619,1.1616,1.165,1.1554,1.1413,1.1409,1.1413,1.1409,1.1463,1.1511,1.1514,1.1572,1.1613,1.1616,1.1616,1.1616,1.1616,1.1616,1.1616,1.1616,1.1616,1.1616,1.1616,1.1616,1.1616,1.1616,1.1616,1.1616,2.3868,2.3868,2.3801,2.3634,2.34,2.31,2.2966,2.2959,2.2899,2.2866,2.2866,2.2866,2.2866,2.2839,2.2619,2.2519,2.2485,2.2291,2.2144,2.2084,2.1932,2.1905,2.1971,2.1881,2.178,2.163,2.141,2.1303,2.1303,2.1243,2.1169,2.1096,2.0882,2.0758,2.0483,2.0341,2.0307,2.0355,1.9925,1.9452,1.9232,1.9219,1.8486,1.7061,1.6576,1.5161,1.3058,1.5335,1.4681,1.0358,0.9884,1.0023,1.0299,1.0163,1.0055,1.0351,1.0378,1.051,1.0799,1.089,1.0889,1.0783,1.1355,1.1657,1.1549,1.1406,1.125,1.1236,1.1352,1.1443,1.1453,1.1538,1.1616,1.1616,1.1616,1.1633,1.1664,1.167,1.1687,1.1708,1.1721,1.1725,1.1718,1.1721,1.1714,1.1684,1.1667,1.1657,1.1626,1.1616,1.1616,1.1616,1.1616,1.1603,1.1616,1.1609,1.1609,1.1616,1.1616,1.1616,1.1616,1.1616,1.1616,1.1616,1.1616,1.1616,1.1616,1.1616,1.1616,1.1616,1.1616,1.1616,1.1616,1.1616,1.1616,2.4168,2.4128,2.3901,2.3754,2.3701,2.3414,2.328,2.3233,2.2993,2.2866,2.2866,2.2866,2.2866,2.2859,2.2826,2.2806,2.2806,2.2792,2.2625,2.2398,2.2378,2.2238,2.2024,2.1964,2.1944,2.1937,2.1897,2.185,2.1837,2.1623,2.1376,2.1136,2.1076,2.0935,2.0681,2.0641,2.0508,2.0247,2.018,2.014,2.0114,2.0114,1.9847,1.945,1.7851,1.6901,1.5853,1.4852,1.3778,1.3197,1.0986,1.008,1.0608,1.0513,1.0388,1.0656,1.068,1.0809,1.1087,1.1289,1.1229,1.1208,1.1372,1.1574,1.1558,1.1575,1.1514,1.1443,1.1514,1.1582,1.1599,1.1616,1.1633,1.1636,1.1643,1.1667,1.1938,1.2108,1.2017,1.201,1.1986,1.2016,1.1986,1.1986,1.1945,1.1677,1.1663,1.163,1.1691,1.1667,1.165,1.1633,1.1623,1.1623,1.1619,1.1616,1.1616,1.1616,1.1616,1.1616,1.1616,1.1616,1.1616,1.1616,1.1616,1.1616,1.1616,1.1616,1.1616,1.1616,1.1616,1.1616,1.1616,1.1616,1.1616,2.4456,2.4449,2.4335,2.4182,2.3995,2.3714,2.3494,2.3313,2.3034,2.2881,2.2873,2.2866,2.2866,2.2866,2.2866,2.2866,2.2866,2.2866,2.2806,2.2686,2.2679,2.2619,2.2498,2.2318,2.2238,2.2218,2.2071,2.1984,2.1964,2.1864,2.175,2.1617,2.1463,2.1316,2.1182,2.1022,2.0875,2.0762,1.9725,1.9212,1.9181,1.8896,1.8185,1.7103,1.5489,1.3981,1.3053,1.2209,1.1756,1.1701,1.0774,1.0513,1.0936,1.0896,1.0901,1.0965,1.1067,1.1168,1.129,1.1382,1.1457,1.1379,1.1528,1.1732,1.1877,1.1748,1.1748,1.1775,1.1687,1.1616,1.163,1.1694,1.1742,1.1606,1.1524,1.175,1.2107,1.2272,1.2303,1.2057,1.206,1.2064,1.206,1.206,1.2033,1.1824,1.1814,1.1633,1.1881,1.1881,1.1837,1.1769,1.1745,1.1704,1.1643,1.1616,1.1616,1.1616,1.1616,1.1616,1.1623,1.1619,1.1616,1.1623,1.163,1.1626,1.1616,1.1616,1.1616,1.163,1.1619,1.1616,1.1616,1.1616,1.1616,2.4629,2.4629,2.4629,2.4516,2.4302,2.4015,2.3768,2.3567,2.3172,2.3014,2.3113,2.3033,2.2993,2.2979,2.2906,2.2866,2.2866,2.2866,2.2866,2.2866,2.2866,2.2859,2.2839,2.2652,2.2539,2.2505,2.2338,2.2191,2.2118,2.2104,2.2064,2.1964,2.177,2.167,2.165,2.1443,2.1087,2.0567,1.9247,1.8459,1.7888,1.7063,1.6192,1.5322,1.3798,1.229,1.1162,1.0823,1.0463,1.0466,1.0602,1.086,1.1114,1.1229,1.1354,1.1219,1.1372,1.1474,1.1508,1.1616,1.1694,1.1583,1.1742,1.1786,1.2021,1.1894,1.1942,1.2013,1.1864,1.1752,1.1752,1.1833,1.1887,1.175,1.1696,1.1914,1.2118,1.2432,1.2449,1.2176,1.2213,1.2182,1.2186,1.2193,1.2189,1.2138,1.1968,1.1941,1.2074,1.2199,1.2162,1.1915,1.1898,1.1813,1.1664,1.1616,1.1616,1.1633,1.1643,1.1691,1.1687,1.1701,1.1697,1.1745,1.1701,1.1657,1.164,1.163,1.1708,1.1714,1.1694,1.166,1.1539,1.1653,1.1623,2.4629,2.4629,2.4629,2.4623,2.4589,2.4309,2.4168,2.4088,2.3698,2.3572,2.3654,2.3581,2.3467,2.3287,2.3033,2.2873,2.2866,2.2866,2.2866,2.2866,2.2866,2.2866,2.2866,2.2853,2.2832,2.2806,2.2766,2.2632,2.2412,2.2398,2.2258,2.2017,2.1852,2.1964,2.1826,2.1648,2.0989,1.9326,1.8928,1.8145,1.652,1.4887,1.4539,1.5279,1.4074,1.3037,1.2795,1.1766,1.0911,1.0637,1.0746,1.0839,1.1138,1.1441,1.1528,1.1382,1.1531,1.1674,1.1786,1.1816,1.1724,1.1692,1.1851,1.2037,1.2199,1.205,1.2067,1.2071,1.2071,1.2043,1.204,1.2043,1.2054,1.2054,1.2064,1.2145,1.2422,1.2436,1.2505,1.243,1.2444,1.243,1.2457,1.2484,1.2396,1.2471,1.2436,1.2398,1.2446,1.24,1.2387,1.2216,1.2033,1.1952,1.1697,1.165,1.1643,1.166,1.1735,1.1816,1.187,1.1757,1.1744,1.1724,1.1843,1.1786,1.1697,1.1731,1.1864,1.1874,1.1772,1.1742,1.1613,1.1539,1.166,2.4629,2.4629,2.4629,2.4629,2.4623,2.4523,2.4376,2.4202,2.4253,2.4092,2.3774,2.3809,2.3769,2.3601,2.3494,2.3233,2.2886,2.2866,2.2866,2.2866,2.2866,2.2866,2.2866,2.2866,2.2866,2.2866,2.2866,2.2812,2.2719,2.2706,2.2652,2.2255,2.1116,2.0484,2.0184,1.9084,1.8061,1.7389,1.631,1.5362,1.4697,1.3062,1.2456,1.2887,1.2342,1.1939,1.1939,1.1463,1.1084,1.1084,1.0997,1.1206,1.1458,1.1636,1.176,1.1677,1.1816,1.1928,1.1972,1.1979,1.1999,1.1894,1.2057,1.2118,1.234,1.221,1.2244,1.2315,1.2338,1.2345,1.2325,1.2264,1.2206,1.2065,1.2288,1.2352,1.241,1.258,1.245,1.2491,1.2501,1.2501,1.2501,1.2501,1.2481,1.244,1.258,1.2549,1.2519,1.2501,1.2457,1.2233,1.2203,1.2138,1.1945,1.1809,1.1759,1.1765,1.1813,1.1894,1.1959,1.2023,1.2026,1.2162,1.2134,1.1969,1.1898,1.1884,1.2013,1.203,1.1925,1.1843,1.1683,1.1653,1.1775,2.4629,2.4629,2.4629,2.4629,2.4629,2.4629,2.4529,2.4356,2.4508,2.4401,2.4068,2.4125,2.4071,2.3895,2.3814,2.3567,2.318,2.316,2.3106,2.3013,2.3013,2.2959,2.2873,2.2866,2.2866,2.2866,2.2866,2.2585,2.2016,2.2016,2.1734,2.0876,1.9456,1.8826,1.8518,1.7275,1.6382,1.5697,1.4604,1.3783,1.3098,1.1999,1.1311,1.1307,1.1311,1.1257,1.1172,1.1209,1.1233,1.124,1.128,1.1519,1.1684,1.1721,1.1853,1.1908,1.1999,1.2088,1.2128,1.2138,1.2155,1.2199,1.2206,1.2254,1.2501,1.2362,1.241,1.2478,1.2501,1.2501,1.2484,1.2413,1.2359,1.2209,1.244,1.2501,1.2501,1.2498,1.2498,1.2498,1.2501,1.2501,1.2501,1.2501,1.2498,1.2501,1.2501,1.2501,1.2501,1.2498,1.2478,1.2383,1.2359,1.2288,1.2159,1.2047,1.1948,1.1938,1.1976,1.2037,1.2088,1.2145,1.2316,1.2453,1.2442,1.2289,1.2121,1.2091,1.2115,1.2166,1.2088,1.1982,1.1965,1.1948,1.1925,2.4629,2.4629,2.4629,2.4629,2.4629,2.4629,2.4629,2.4603,2.4609,2.4569,2.4489,2.4495,2.438,2.4162,2.3968,2.3794,2.3781,2.3774,2.3581,2.3307,2.332,2.3166,2.2919,2.2913,2.2611,2.2461,2.2722,2.1747,2.0231,2.0074,1.9217,1.7674,1.7373,1.7207,1.7243,1.6772,1.5948,1.4664,1.409,1.3413,1.1896,1.1582,1.1575,1.1586,1.1582,1.1467,1.1212,1.1324,1.1392,1.1261,1.1385,1.1828,1.1945,1.186,1.1911,1.2043,1.2077,1.2152,1.2271,1.2291,1.2345,1.2423,1.2478,1.2461,1.2467,1.2481,1.2488,1.2494,1.2501,1.2501,1.2501,1.2488,1.2481,1.2494,1.2498,1.2498,1.2501,1.2501,1.2501,1.2501,1.2501,1.2501,1.2501,1.2501,1.2501,1.2501,1.2501,1.2501,1.2501,1.2501,1.2501,1.2491,1.2464,1.2396,1.2338,1.2281,1.2189,1.2128,1.2182,1.2233,1.2274,1.2322,1.2328,1.2467,1.2443,1.2288,1.2277,1.2254,1.2277,1.2294,1.2199,1.2138,1.2121,1.2108,1.2081,2.4629,2.4629,2.4629,2.4629,2.4629,2.4629,2.4629,2.4629,2.4629,2.4629,2.4616,2.4549,2.4509,2.4482,2.4396,2.4362,2.4369,2.4349,2.4001,2.3467,2.3541,2.3474,2.3227,2.3021,2.1685,1.9895,2.0515,2.0011,1.8557,1.8174,1.7669,1.7112,1.5844,1.5274,1.5137,1.4014,1.2888,1.2606,1.2466,1.2183,1.1616,1.1619,1.1619,1.1616,1.1616,1.1606,1.1619,1.1579,1.1548,1.1409,1.1536,1.1687,1.1976,1.2091,1.2169,1.2223,1.2315,1.2376,1.242,1.2433,1.2447,1.2491,1.2501,1.2501,1.2501,1.2501,1.2501,1.2501,1.2501,1.2501,1.2501,1.2501,1.2501,1.2501,1.2501,1.2501,1.2501,1.2501,1.2501,1.2501,1.2501,1.2501,1.2501,1.2501,1.2501,1.2501,1.2501,1.2501,1.2501,1.2501,1.2501,1.2501,1.2494,1.2491,1.2433,1.2393,1.2349,1.2281,1.2311,1.2349,1.2403,1.2433,1.2447,1.2447,1.2427,1.2416,1.241,1.241,1.2416,1.243,1.2376,1.2332,1.2298,1.2264,1.223,2.4629,2.4629,2.4629,2.4629,2.4629,2.4629,2.4629,2.4629,2.4629,2.4629,2.4629,2.4629,2.4629,2.4629,2.4629,2.4629,2.4629,2.4629,2.4282,2.3748,2.3821,2.3768,2.3373,2.2461,2.0645,1.8402,1.8785,1.8275,1.6663,1.6344,1.5956,1.5101,1.3908,1.3305,1.3309,1.2183,1.1616,1.1623,1.1674,1.1697,1.1711,1.1755,1.1786,1.1782,1.1782,1.1826,1.1904,1.183,1.1782,1.1647,1.187,1.1989,1.2289,1.224,1.2315,1.2379,1.2444,1.2498,1.2501,1.2494,1.2501,1.2501,1.2501,1.2501,1.2501,1.2501,1.2501,1.2501,1.2501,1.2501,1.2501,1.2501,1.2501,1.2501,1.2501,1.2501,1.2501,1.2501,1.2501,1.2501,1.2501,1.2501,1.2501,1.2501,1.2501,1.2501,1.2501,1.2501,1.2501,1.2501,1.2501,1.2501,1.2498,1.2498,1.2501,1.2491,1.2494,1.245,1.2416,1.2433,1.2464,1.2474,1.2484,1.2481,1.2467,1.2464,1.2457,1.2467,1.2478,1.2498,1.2501,1.2457,1.2396,1.2389,1.2366,2.4629,2.4629,2.4629,2.4629,2.4629,2.4629,2.4629,2.4629,2.4629,2.4629,2.4629,2.4629,2.4629,2.4629,2.4629,2.4629,2.4629,2.4629,2.4502,2.411,2.3912,2.378,2.3575,2.1606,1.917,1.7334,1.7383,1.6576,1.4843,1.4679,1.3724,1.2411,1.2167,1.1653,1.1976,1.1653,1.1681,1.1704,1.1792,1.1843,1.1847,1.1965,1.204,1.2033,1.203,1.204,1.2067,1.2081,1.1928,1.1765,1.222,1.2453,1.2426,1.2305,1.2372,1.2474,1.2498,1.2501,1.2501,1.2532,1.2535,1.2539,1.2559,1.2528,1.2573,1.2586,1.2573,1.2545,1.2535,1.2528,1.2532,1.2535,1.2539,1.2532,1.2528,1.2508,1.2501,1.2501,1.2501,1.2501,1.2501,1.2501,1.2501,1.2501,1.2501,1.2501,1.2501,1.2501,1.2501,1.2501,1.2501,1.2501,1.2501,1.2501,1.2501,1.2501,1.2501,1.2491,1.2464,1.2478,1.2491,1.2498,1.2501,1.2501,1.2501,1.2501,1.2501,1.2501,1.2501,1.2501,1.2501,1.2501,1.2488,1.2464,1.2454,2.4629,2.4629,2.4629,2.4629,2.4629,2.4629,2.4629,2.4629,2.4629,2.4629,2.4629,2.4629,2.4629,2.4629,2.4629,2.4629,2.4629,2.4629,2.4616,2.4235,2.2861,2.3241,2.3241,2.0428,1.7059,1.4613,1.518,1.4765,1.31,1.2958,1.2589,1.1999,1.1952,1.1935,1.1945,1.1928,1.1945,1.1948,1.1972,1.2003,1.2006,1.204,1.206,1.206,1.2071,1.2128,1.223,1.2332,1.2325,1.2079,1.2233,1.2453,1.2577,1.2437,1.2461,1.2501,1.2508,1.2508,1.2532,1.2613,1.2664,1.2521,1.2591,1.2675,1.284,1.2834,1.2783,1.2708,1.2671,1.2671,1.2671,1.2671,1.2558,1.247,1.2494,1.2525,1.2511,1.2501,1.2501,1.2501,1.2501,1.2501,1.2501,1.2501,1.2501,1.2501,1.2501,1.2501,1.2501,1.2501,1.2501,1.2501,1.2501,1.2501,1.2501,1.2501,1.2501,1.2501,1.2491,1.2491,1.2498,1.2498,1.2501,1.2501,1.2501,1.2501,1.2501,1.2501,1.2501,1.2501,1.2501,1.2501,1.2501,1.2488,1.2484,2.4629,2.4629,2.4629,2.4629,2.4629,2.4629,2.4629,2.4629,2.4629,2.4629,2.4629,2.4629,2.4629,2.4629,2.4629,2.4629,2.4629,2.4629,2.4173,2.2806,2.0375,1.987,2.0103,1.7931,1.5475,1.2856,1.3435,1.3343,1.2488,1.223,1.2162,1.2142,1.2094,1.206,1.2047,1.206,1.2064,1.2067,1.2118,1.2159,1.2155,1.222,1.2247,1.2247,1.2247,1.2298,1.2386,1.2457,1.2457,1.2393,1.2386,1.2577,1.2491,1.2501,1.2528,1.2583,1.2596,1.2623,1.2695,1.2783,1.282,1.2675,1.2755,1.2949,1.3116,1.3123,1.3068,1.2844,1.283,1.2827,1.2827,1.2827,1.2864,1.2745,1.2796,1.2667,1.2606,1.2603,1.2566,1.2528,1.2501,1.2501,1.2501,1.2505,1.2501,1.2501,1.2501,1.2501,1.2501,1.2501,1.2501,1.2501,1.2501,1.2501,1.2501,1.2501,1.2501,1.2501,1.2501,1.2501,1.2501,1.2501,1.2501,1.2501,1.2501,1.2501,1.2501,1.2501,1.2501,1.2501,1.2501,1.2501,1.2501,1.2501,1.2501,2.4629,2.4629,2.4629,2.4629,2.4629,2.4629,2.4629,2.4629,2.4629,2.4629,2.4629,2.4629,2.4629,2.4629,2.4629,2.4629,2.4629,2.4179,2.2509,2.0386,1.7659,1.6416,1.6371,1.5798,1.4252,1.2689,1.2464,1.2628,1.245,1.2355,1.2315,1.2288,1.2186,1.2128,1.2159,1.2138,1.2115,1.2162,1.2257,1.2308,1.2325,1.24,1.244,1.2444,1.2447,1.2454,1.2484,1.2522,1.2528,1.2528,1.2511,1.2511,1.2522,1.2532,1.2606,1.2722,1.2759,1.2807,1.2925,1.2949,1.2983,1.2986,1.3003,1.3171,1.3374,1.3387,1.3205,1.2986,1.2983,1.2979,1.2986,1.3154,1.3034,1.3054,1.3017,1.2935,1.2655,1.2604,1.2701,1.2576,1.2559,1.2549,1.2528,1.2525,1.2525,1.2501,1.2501,1.2501,1.2501,1.2501,1.2501,1.2501,1.2501,1.2501,1.2501,1.2501,1.2501,1.2501,1.2501,1.2501,1.2501,1.2501,1.2501,1.2501,1.2501,1.2501,1.2501,1.2501,1.2501,1.2501,1.2501,1.2501,1.2501,1.2501,1.2501,2.4629,2.4629,2.4629,2.4629,2.4629,2.4629,2.4629,2.4629,2.4629,2.4629,2.4629,2.4629,2.4629,2.4629,2.4488,2.4629,2.4179,2.2812,2.0386,1.6904,1.6146,1.4625,1.3849,1.341,1.2944,1.2474,1.2488,1.2501,1.2484,1.2467,1.2454,1.2437,1.2396,1.2403,1.2386,1.2366,1.2406,1.241,1.2437,1.244,1.244,1.2474,1.2501,1.2501,1.2511,1.2508,1.2528,1.262,1.2678,1.2494,1.2589,1.2586,1.2821,1.2684,1.2756,1.2868,1.2912,1.2929,1.2976,1.3071,1.3129,1.2973,1.3214,1.3305,1.3308,1.3456,1.3401,1.3163,1.3129,1.3129,1.3132,1.3241,1.3264,1.3268,1.3271,1.3227,1.3264,1.2979,1.2895,1.2857,1.2837,1.2817,1.2698,1.2671,1.2627,1.2535,1.2501,1.2501,1.2501,1.2501,1.2501,1.2501,1.2501,1.2501,1.2501,1.2501,1.2501,1.2501,1.2501,1.2501,1.2501,1.2501,1.2501,1.2501,1.2501,1.2501,1.2501,1.2501,1.2501,1.2501,1.2501,1.2501,1.2501,1.2501,1.2501,2.4629,2.4629,2.4629,2.4629,2.4629,2.4629,2.4629,2.4629,2.4629,2.4629,2.4629,2.4629,2.4629,2.4482,2.3722,2.3116,2.2509,2.008,1.7659,1.554,1.4629,1.3568,1.2804,1.2501,1.2501,1.2501,1.2501,1.2501,1.2501,1.2501,1.2494,1.2501,1.2501,1.2481,1.2501,1.2501,1.2491,1.2488,1.2501,1.2501,1.2501,1.2501,1.2501,1.2525,1.2566,1.261,1.2623,1.2762,1.2827,1.2817,1.2762,1.2749,1.2979,1.284,1.2915,1.3027,1.3061,1.3105,1.3169,1.323,1.3278,1.3275,1.3359,1.3383,1.34,1.34,1.337,1.3302,1.3278,1.3278,1.3281,1.3329,1.3393,1.34,1.34,1.3363,1.3278,1.3152,1.3027,1.2986,1.2939,1.2912,1.2861,1.2813,1.2732,1.2644,1.2518,1.2511,1.2501,1.2501,1.2501,1.2501,1.2501,1.2501,1.2501,1.2501,1.2501,1.2501,1.2501,1.2501,1.2501,1.2501,1.2501,1.2501,1.2501,1.2501,1.2501,1.2501,1.2501,1.2501,1.2501,1.2501,1.2501,1.2501,1.2501,2.4629,2.4629,2.4629,2.4629,2.4629,2.4629,2.4629,2.4629,2.4629,2.4629,2.4629,2.4629,2.4629,2.4179,2.2509,2.1446,1.9779,1.7659,1.554,1.4629,1.3414,1.2807,1.2501,1.2501,1.2501,1.2501,1.2501,1.2501,1.2501,1.2501,1.2501,1.2501,1.2501,1.2501,1.2501,1.2501,1.2501,1.2501,1.2501,1.2501,1.2501,1.2505,1.2511,1.2576,1.2644,1.2735,1.2779,1.2901,1.2993,1.2993,1.3017,1.3027,1.302,1.3007,1.3057,1.319,1.3207,1.3251,1.3322,1.3373,1.3383,1.34,1.34,1.34,1.34,1.34,1.339,1.3393,1.3376,1.3376,1.34,1.3397,1.3397,1.34,1.34,1.34,1.3376,1.3281,1.3169,1.3088,1.3095,1.3085,1.3,1.2932,1.284,1.2745,1.262,1.2535,1.2535,1.2511,1.2518,1.2505,1.2501,1.2501,1.2501,1.2501,1.2501,1.2501,1.2501,1.2501,1.2501,1.2501,1.2501,1.2501,1.2501,1.2501,1.2501,1.2501,1.2501,1.2501,1.2501,1.2501,1.2501,1.2501,1.2501,2.4629,2.4629,2.4629,2.4629,2.4629,2.4629,2.4629,2.4629,2.4629,2.4629,2.4629,2.4629,2.4629,2.4025,2.2515,1.993,1.7051,1.5387,1.4479,1.3414,1.2656,1.2501,1.2501,1.2501,1.2501,1.2501,1.2501,1.2501,1.2501,1.2501,1.2501,1.2501,1.2501,1.2501,1.2501,1.2501,1.2501,1.2501,1.2501,1.2501,1.2501,1.2525,1.2573,1.2664,1.2742,1.282,1.2932,1.3054,1.3139,1.2983,1.3258,1.3305,1.3278,1.3193,1.3217,1.3302,1.3339,1.3359,1.3393,1.34,1.34,1.34,1.34,1.34,1.34,1.34,1.34,1.34,1.34,1.34,1.34,1.34,1.34,1.34,1.34,1.34,1.3393,1.3363,1.3329,1.3271,1.3275,1.3261,1.3159,1.3068,1.299,1.2895,1.2776,1.2708,1.2691,1.2623,1.2556,1.2532,1.2501,1.2501,1.2501,1.2501,1.2501,1.2501,1.2501,1.2501,1.2501,1.2501,1.2501,1.2501,1.2501,1.2501,1.2501,1.2501,1.2501,1.2501,1.2501,1.2501,1.2501,1.2501,1.2501,2.4502,2.4629,2.4629,2.4629,2.4629,2.4629,2.4629,2.4629,2.4629,2.4629,2.4629,2.4629,2.4629,2.3722,2.1291,1.781,1.4931,1.3868,1.3417,1.2501,1.2501,1.2501,1.2501,1.2501,1.2501,1.2501,1.2501,1.2501,1.2501,1.2501,1.2501,1.2501,1.2501,1.2501,1.2501,1.2501,1.2501,1.2501,1.2505,1.2508,1.2518,1.2573,1.2671,1.2735,1.2881,1.2993,1.3071,1.3214,1.3288,1.3302,1.3356,1.339,1.3376,1.3353,1.3319,1.3383,1.34,1.34,1.34,1.34,1.34,1.34,1.34,1.34,1.34,1.34,1.34,1.34,1.34,1.34,1.34,1.34,1.34,1.34,1.34,1.34,1.34,1.34,1.34,1.34,1.3366,1.3329,1.3305,1.322,1.3146,1.3044,1.2932,1.2881,1.2851,1.2769,1.2678,1.2664,1.2637,1.2559,1.2542,1.2508,1.2505,1.2501,1.2501,1.2501,1.2501,1.2501,1.2501,1.2501,1.2501,1.2501,1.2501,1.2501,1.2501,1.2501,1.2501,1.2501,1.2501,1.2501,1.2501,2.4422,2.4629,2.4629,2.4629,2.4629,2.4629,2.4629,2.4629,2.4629,2.4629,2.4629,2.4629,2.4327,2.2961,1.9784,1.5998,1.2652,1.2656,1.2501,1.2501,1.2501,1.2501,1.2501,1.2501,1.2501,1.2501,1.2501,1.2501,1.2501,1.2501,1.2501,1.2501,1.2501,1.2501,1.2501,1.2501,1.2501,1.2511,1.2542,1.2556,1.262,1.2708,1.2796,1.2823,1.3051,1.3173,1.323,1.3319,1.3373,1.3383,1.3393,1.34,1.34,1.34,1.34,1.34,1.34,1.34,1.34,1.34,1.34,1.34,1.34,1.34,1.34,1.34,1.34,1.34,1.34,1.34,1.34,1.34,1.34,1.34,1.34,1.34,1.34,1.34,1.34,1.34,1.34,1.3383,1.3353,1.3339,1.3258,1.3203,1.3091,1.3027,1.299,1.3095,1.3027,1.2854,1.28,1.2667,1.2596,1.2525,1.2511,1.2501,1.2501,1.2501,1.2501,1.2501,1.2501,1.2501,1.2501,1.2501,1.2501,1.2501,1.2501,1.2501,1.2501,1.2501,1.2501,1.2501,1.2501,2.4603,2.4629,2.4629,2.4629,2.4629,2.4629,2.4629,2.4629,2.4629,2.4629,2.4334,2.4334,2.3419,2.1141,1.7815,1.4782,1.3112,1.2501,1.2501,1.2501,1.2501,1.2501,1.2501,1.2501,1.2501,1.2511,1.2511,1.2501,1.2515,1.2515,1.2522,1.2528,1.2522,1.2508,1.2535,1.2511,1.2501,1.2528,1.2793,1.292,1.2868,1.2915,1.2993,1.3078,1.3159,1.3237,1.3332,1.3386,1.3397,1.34,1.34,1.34,1.34,1.34,1.34,1.34,1.34,1.34,1.34,1.34,1.34,1.34,1.34,1.34,1.34,1.34,1.34,1.34,1.34,1.34,1.34,1.34,1.34,1.34,1.34,1.34,1.34,1.34,1.34,1.34,1.34,1.34,1.3383,1.3383,1.337,1.3319,1.3261,1.319,1.3139,1.3253,1.3178,1.299,1.2935,1.2813,1.2667,1.2593,1.2535,1.2515,1.2501,1.2501,1.2501,1.2501,1.2501,1.2501,1.2501,1.2501,1.2501,1.2501,1.2501,1.2501,1.2501,1.2501,1.2501,1.2501,1.2501,2.4629,2.4629,2.4629,2.4629,2.4629,2.4629,2.4629,2.4629,2.4629,2.3877,2.3116,2.2961,2.1141,1.8265,1.5994,1.4479,1.2807,1.2501,1.2501,1.2501,1.2501,1.2501,1.2501,1.2501,1.2501,1.2522,1.2583,1.264,1.261,1.2562,1.2562,1.2715,1.2596,1.2559,1.2589,1.2539,1.2511,1.2701,1.297,1.313,1.3106,1.3041,1.3108,1.3176,1.3251,1.3329,1.3376,1.34,1.34,1.34,1.34,1.34,1.34,1.34,1.34,1.34,1.34,1.34,1.34,1.34,1.34,1.34,1.34,1.34,1.34,1.34,1.34,1.34,1.34,1.34,1.34,1.34,1.34,1.34,1.34,1.34,1.34,1.34,1.34,1.34,1.34,1.34,1.34,1.3397,1.339,1.3366,1.3339,1.3308,1.3288,1.3285,1.3193,1.3095,1.3034,1.2952,1.2793,1.2671,1.2589,1.2552,1.2505,1.2505,1.2501,1.2501,1.2501,1.2505,1.2508,1.2505,1.2505,1.2501,1.2501,1.2501,1.2501,1.2501,1.2501,1.2501,1.2501,2.4569,2.4629,2.4629,2.4629,2.4629,2.4629,2.4629,2.4636,2.4031,2.329,2.2097,2.1026,1.8426,1.5994,1.4931,1.3718,1.2501,1.2501,1.2501,1.2501,1.2501,1.2501,1.2501,1.2501,1.2501,1.2501,1.2579,1.2657,1.2674,1.2654,1.2708,1.2935,1.263,1.2603,1.2651,1.2596,1.2532,1.2671,1.3127,1.3276,1.3246,1.3183,1.322,1.3268,1.3332,1.34,1.34,1.34,1.34,1.34,1.34,1.34,1.34,1.34,1.34,1.34,1.34,1.34,1.34,1.34,1.34,1.34,1.34,1.34,1.34,1.34,1.34,1.34,1.34,1.34,1.34,1.34,1.34,1.34,1.34,1.34,1.34,1.34,1.34,1.34,1.34,1.34,1.34,1.34,1.34,1.34,1.34,1.34,1.3397,1.339,1.3332,1.3214,1.3132,1.3064,1.2956,1.281,1.2708,1.2593,1.2545,1.2518,1.2525,1.2511,1.2501,1.2505,1.2539,1.2522,1.2528,1.2515,1.2501,1.2501,1.2501,1.2501,1.2501,1.2501,1.2539,2.4396,2.4629,2.4616,2.4616,2.4629,2.4629,2.4636,2.4173,2.2657,2.2738,2.2512,1.927,1.6321,1.5242,1.3718,1.2958,1.2501,1.2501,1.2501,1.2501,1.2501,1.2501,1.2501,1.2501,1.2501,1.2508,1.26,1.2674,1.2708,1.2749,1.282,1.2898,1.2681,1.2651,1.2637,1.2593,1.2661,1.2975,1.3311,1.3319,1.3275,1.3353,1.3359,1.337,1.3386,1.34,1.34,1.34,1.34,1.34,1.34,1.34,1.34,1.34,1.34,1.34,1.34,1.34,1.34,1.34,1.34,1.34,1.34,1.34,1.34,1.34,1.34,1.34,1.34,1.34,1.34,1.34,1.34,1.34,1.34,1.34,1.34,1.34,1.34,1.34,1.34,1.34,1.34,1.34,1.34,1.34,1.34,1.34,1.34,1.3397,1.3397,1.3329,1.3237,1.3169,1.3122,1.2986,1.2803,1.2674,1.26,1.2573,1.2562,1.2542,1.2556,1.2617,1.2661,1.2606,1.2573,1.2617,1.262,1.2535,1.2501,1.2501,1.2501,1.2501,1.2735,2.4001,2.4102,2.4102,2.4309,2.4629,2.4629,2.3877,2.2806,2.19,2.0408,1.8952,1.5569,1.3883,1.3417,1.3109,1.2501,1.2501,1.2501,1.2501,1.2501,1.2501,1.2501,1.2501,1.2501,1.2501,1.2542,1.2661,1.2796,1.2871,1.2854,1.2963,1.2959,1.2779,1.2708,1.2671,1.262,1.2876,1.3054,1.3202,1.3319,1.3359,1.34,1.34,1.34,1.34,1.34,1.34,1.34,1.34,1.34,1.34,1.34,1.34,1.34,1.34,1.34,1.34,1.34,1.34,1.34,1.34,1.34,1.34,1.34,1.34,1.34,1.34,1.34,1.34,1.34,1.34,1.34,1.34,1.34,1.34,1.34,1.34,1.34,1.34,1.34,1.34,1.34,1.34,1.34,1.34,1.34,1.34,1.34,1.34,1.34,1.34,1.34,1.3315,1.3247,1.32,1.3047,1.2878,1.2783,1.2681,1.2654,1.2487,1.2821,1.2845,1.2903,1.28,1.2793,1.2786,1.2786,1.2735,1.263,1.2549,1.2501,1.2501,1.2528,1.28,2.3688,2.3768,2.3774,2.4001,2.4362,2.3771,2.2768,2.1478,2.0114,1.7913,1.4475,1.3109,1.2501,1.2501,1.2501,1.2501,1.2501,1.2501,1.2501,1.2501,1.2501,1.2501,1.2501,1.2501,1.2505,1.2559,1.2678,1.2807,1.2861,1.2929,1.2996,1.3007,1.2952,1.2861,1.2715,1.2701,1.2913,1.3078,1.325,1.3166,1.339,1.34,1.34,1.34,1.34,1.34,1.34,1.34,1.34,1.34,1.34,1.34,1.34,1.34,1.34,1.34,1.34,1.34,1.34,1.34,1.34,1.34,1.34,1.34,1.34,1.34,1.34,1.34,1.34,1.34,1.34,1.34,1.34,1.34,1.34,1.34,1.34,1.34,1.34,1.34,1.34,1.34,1.34,1.34,1.34,1.34,1.34,1.34,1.34,1.34,1.34,1.34,1.338,1.3322,1.3261,1.3125,1.3007,1.2973,1.2874,1.2615,1.2598,1.2941,1.3092,1.3092,1.3162,1.3116,1.2973,1.2939,1.2834,1.2708,1.2671,1.2661,1.2531,1.2581,1.279,2.3494,2.3761,2.3741,2.3754,2.3496,2.1726,2.1002,2.0212,1.7249,1.4646,1.2951,1.2501,1.2501,1.2501,1.2501,1.2501,1.2501,1.2501,1.2501,1.2501,1.2501,1.2501,1.2501,1.2501,1.2501,1.2501,1.26,1.2698,1.2756,1.2861,1.2942,1.301,1.301,1.2969,1.2769,1.2878,1.2949,1.3,1.3237,1.3329,1.339,1.34,1.34,1.34,1.34,1.34,1.34,1.34,1.34,1.34,1.34,1.34,1.34,1.34,1.34,1.34,1.34,1.34,1.34,1.34,1.34,1.34,1.34,1.34,1.34,1.34,1.34,1.34,1.34,1.34,1.34,1.34,1.34,1.34,1.34,1.34,1.34,1.34,1.34,1.34,1.34,1.34,1.34,1.34,1.34,1.34,1.34,1.34,1.34,1.34,1.34,1.34,1.34,1.338,1.3315,1.3224,1.3142,1.3119,1.3054,1.2935,1.2901,1.3095,1.3228,1.3327,1.328,1.3132,1.3115,1.3074,1.301,1.2963,1.2901,1.2891,1.2755,1.2759,1.2939,2.3073,2.3166,2.3166,2.2458,2.1371,2.112,1.9641,1.7048,1.4633,1.3063,1.2646,1.2501,1.2501,1.2501,1.2501,1.2501,1.2501,1.2501,1.2501,1.2501,1.2501,1.2501,1.2501,1.2501,1.2501,1.2528,1.2583,1.2647,1.2739,1.2807,1.2881,1.2952,1.3041,1.2976,1.2912,1.2956,1.2996,1.326,1.3214,1.3288,1.3383,1.34,1.34,1.34,1.34,1.34,1.34,1.34,1.34,1.34,1.34,1.34,1.34,1.34,1.34,1.34,1.34,1.34,1.34,1.34,1.34,1.34,1.34,1.34,1.34,1.34,1.34,1.34,1.34,1.34,1.34,1.34,1.34,1.34,1.34,1.34,1.34,1.34,1.34,1.34,1.34,1.34,1.34,1.34,1.34,1.34,1.34,1.34,1.34,1.34,1.34,1.34,1.34,1.34,1.3363,1.3278,1.3261,1.3261,1.318,1.3064,1.3219,1.3243,1.3277,1.3419,1.337,1.3312,1.3261,1.323,1.3271,1.3247,1.3132,1.3037,1.3013,1.3003,1.2996,2.2866,2.2866,2.2866,2.1878,2.0249,1.9702,1.7549,1.4437,1.3009,1.2501,1.2501,1.2501,1.2501,1.2501,1.2501,1.2501,1.2501,1.2501,1.2501,1.2501,1.2501,1.2501,1.2501,1.2501,1.2501,1.2532,1.2586,1.2661,1.2729,1.2732,1.2854,1.3013,1.3081,1.3139,1.3112,1.3105,1.3243,1.3336,1.3408,1.3322,1.338,1.34,1.34,1.34,1.34,1.34,1.34,1.34,1.34,1.34,1.34,1.34,1.34,1.34,1.34,1.34,1.34,1.34,1.34,1.34,1.34,1.34,1.34,1.34,1.34,1.34,1.34,1.34,1.34,1.34,1.34,1.34,1.34,1.34,1.34,1.34,1.34,1.34,1.34,1.34,1.34,1.34,1.34,1.34,1.34,1.34,1.34,1.34,1.34,1.34,1.34,1.34,1.34,1.34,1.3383,1.3336,1.3339,1.339,1.3302,1.3183,1.3343,1.3363,1.3435,1.3322,1.3336,1.3353,1.338,1.3386,1.3366,1.3332,1.3264,1.3183,1.3119,1.3112,1.3119,2.2866,2.2866,2.2866,2.1734,1.9785,1.7762,1.5145,1.2237,1.2376,1.2501,1.2501,1.2501,1.2501,1.2501,1.2501,1.2501,1.2501,1.2501,1.2501,1.2501,1.2501,1.2501,1.2501,1.2501,1.2501,1.2501,1.2532,1.2603,1.2708,1.2732,1.2878,1.3085,1.32,1.3247,1.3241,1.323,1.3193,1.3411,1.3308,1.3366,1.3397,1.34,1.34,1.34,1.34,1.34,1.34,1.34,1.34,1.34,1.34,1.34,1.34,1.34,1.34,1.34,1.34,1.34,1.34,1.34,1.34,1.34,1.34,1.34,1.34,1.34,1.34,1.34,1.34,1.34,1.34,1.34,1.34,1.34,1.34,1.34,1.34,1.34,1.34,1.34,1.34,1.34,1.34,1.34,1.34,1.34,1.34,1.34,1.34,1.34,1.34,1.34,1.34,1.34,1.338,1.3359,1.3366,1.34,1.3393,1.3312,1.3315,1.3463,1.3325,1.3349,1.3363,1.338,1.3393,1.34,1.3393,1.3359,1.3325,1.3319,1.3251,1.3288,1.3305,2.2866,2.2866,2.2866,2.1038,1.7856,1.486,1.3011,1.2251,1.2372,1.2501,1.2501,1.2501,1.2501,1.2501,1.2501,1.2501,1.2501,1.2501,1.2501,1.2501,1.2501,1.2501,1.2501,1.2501,1.2501,1.2501,1.2511,1.2528,1.2589,1.2657,1.2742,1.2864,1.3125,1.321,1.3258,1.3298,1.3305,1.3322,1.3366,1.339,1.34,1.34,1.34,1.34,1.34,1.34,1.34,1.34,1.34,1.34,1.34,1.34,1.34,1.34,1.34,1.34,1.34,1.34,1.34,1.34,1.34,1.34,1.34,1.34,1.34,1.34,1.34,1.34,1.34,1.34,1.34,1.34,1.34,1.34,1.34,1.34,1.34,1.34,1.34,1.34,1.34,1.34,1.34,1.34,1.34,1.34,1.34,1.34,1.34,1.34,1.34,1.34,1.34,1.34,1.34,1.3383,1.339,1.3397,1.3393,1.3393,1.3373,1.3356,1.3366,1.3373,1.3383,1.339,1.3397,1.34,1.34,1.34,1.3376,1.3386,1.34,1.34,1.34,2.2435,2.1878,2.1741,1.9629,1.6183,1.4039,1.2701,1.2182,1.2345,1.2501,1.2501,1.2501,1.2501,1.2501,1.2501,1.2501,1.2501,1.2501,1.2501,1.2501,1.2501,1.2501,1.2501,1.2501,1.2501,1.2501,1.2501,1.2508,1.2539,1.2644,1.2739,1.2766,1.299,1.3061,1.3125,1.3207,1.3285,1.3315,1.3353,1.339,1.34,1.34,1.34,1.34,1.34,1.34,1.34,1.34,1.34,1.34,1.34,1.34,1.34,1.34,1.34,1.34,1.34,1.34,1.34,1.34,1.34,1.34,1.34,1.34,1.34,1.34,1.34,1.34,1.34,1.34,1.34,1.34,1.34,1.34,1.34,1.34,1.34,1.34,1.34,1.34,1.34,1.34,1.34,1.34,1.34,1.34,1.34,1.34,1.34,1.34,1.34,1.34,1.34,1.34,1.34,1.34,1.34,1.34,1.3397,1.3397,1.34,1.3397,1.3386,1.339,1.3397,1.34,1.34,1.34,1.34,1.34,1.34,1.34,1.34,1.34,1.34,2.1734,2.0057,1.9773,1.7664,1.4738,1.4219,1.3287,1.1881,1.2267,1.2471,1.2471,1.2494,1.2501,1.2501,1.2501,1.2501,1.2501,1.2501,1.2501,1.2501,1.2501,1.2501,1.2501,1.2501,1.2501,1.2501,1.2501,1.2501,1.2535,1.261,1.2678,1.2725,1.2864,1.2939,1.2963,1.3129,1.3214,1.3237,1.3325,1.34,1.34,1.34,1.34,1.34,1.34,1.34,1.34,1.34,1.34,1.34,1.34,1.34,1.34,1.34,1.34,1.34,1.34,1.34,1.34,1.34,1.34,1.34,1.34,1.34,1.34,1.34,1.34,1.34,1.34,1.34,1.34,1.34,1.34,1.34,1.34,1.34,1.34,1.34,1.34,1.34,1.34,1.34,1.34,1.34,1.34,1.34,1.34,1.34,1.34,1.34,1.34,1.34,1.34,1.34,1.34,1.34,1.34,1.34,1.34,1.34,1.34,1.34,1.34,1.34,1.34,1.34,1.34,1.34,1.34,1.34,1.34,1.34,1.34,1.34,1.34,2.0473,1.9773,1.6962,1.5132,1.4311,1.3058,1.2258,1.185,1.2064,1.2233,1.2345,1.244,1.2501,1.2501,1.2501,1.2501,1.2501,1.2501,1.2501,1.2501,1.2501,1.2501,1.2501,1.2501,1.2501,1.2501,1.2501,1.2501,1.2515,1.2549,1.2569,1.2579,1.2708,1.2783,1.28,1.2996,1.3125,1.3125,1.3281,1.3366,1.3376,1.339,1.34,1.34,1.34,1.34,1.34,1.34,1.34,1.34,1.34,1.34,1.34,1.34,1.34,1.34,1.34,1.34,1.34,1.34,1.34,1.34,1.34,1.34,1.34,1.34,1.34,1.34,1.34,1.34,1.34,1.34,1.34,1.34,1.34,1.34,1.34,1.34,1.34,1.34,1.34,1.34,1.34,1.34,1.34,1.34,1.34,1.34,1.34,1.34,1.34,1.34,1.34,1.34,1.34,1.34,1.34,1.34,1.34,1.34,1.34,1.34,1.34,1.34,1.34,1.34,1.34,1.34,1.34,1.34,1.34,1.34,1.34,1.34,1.34,1.9392,1.8369,1.4716,1.3167,1.2904,1.2131,1.1738,1.1765,1.1898,1.2006,1.2118,1.2301,1.244,1.2488,1.2501,1.2501,1.2501,1.2501,1.2501,1.2501,1.2501,1.2501,1.2501,1.2501,1.2501,1.2501,1.2501,1.2501,1.2501,1.2505,1.2515,1.2511,1.2603,1.2644,1.2667,1.2857,1.299,1.2976,1.319,1.3288,1.3322,1.3356,1.3393,1.34,1.34,1.34,1.34,1.34,1.34,1.34,1.34,1.34,1.34,1.34,1.34,1.34,1.34,1.34,1.34,1.34,1.34,1.34,1.34,1.34,1.34,1.34,1.34,1.34,1.34,1.34,1.34,1.34,1.34,1.34,1.34,1.34,1.34,1.34,1.34,1.34,1.34,1.34,1.34,1.34,1.34,1.34,1.34,1.34,1.34,1.34,1.34,1.34,1.34,1.34,1.34,1.34,1.34,1.34,1.34,1.34,1.34,1.34,1.34,1.34,1.34,1.34,1.34,1.34,1.34,1.34,1.34,1.34,1.34,1.34,1.34,1.8164,1.6117,1.3031,1.1616,1.1616,1.1619,1.1623,1.1647,1.1752,1.182,1.1881,1.2118,1.2311,1.2433,1.2501,1.2501,1.2501,1.2501,1.2501,1.2501,1.2501,1.2501,1.2501,1.2501,1.2501,1.2501,1.2501,1.2501,1.2501,1.2501,1.2501,1.2501,1.2501,1.2505,1.2549,1.2647,1.2776,1.2851,1.2996,1.3139,1.3227,1.3319,1.3376,1.34,1.34,1.34,1.34,1.34,1.34,1.34,1.34,1.34,1.34,1.34,1.34,1.34,1.34,1.34,1.34,1.34,1.34,1.34,1.34,1.34,1.34,1.34,1.34,1.34,1.34,1.34,1.34,1.34,1.34,1.34,1.34,1.34,1.34,1.34,1.34,1.34,1.34,1.34,1.34,1.34,1.34,1.34,1.34,1.34,1.34,1.34,1.34,1.34,1.34,1.34,1.34,1.34,1.34,1.34,1.34,1.34,1.34,1.34,1.34,1.34,1.34,1.34,1.34,1.34,1.34,1.34,1.34,1.34,1.34,1.34,1.34,1.5514,1.2606,1.1903,1.1616,1.1616,1.1616,1.1616,1.1619,1.1647,1.1718,1.1816,1.173,1.1904,1.2332,1.2457,1.2488,1.2467,1.2488,1.2501,1.2501,1.2501,1.2501,1.2501,1.2501,1.2501,1.2501,1.2501,1.2501,1.2501,1.2501,1.2501,1.2501,1.2501,1.2508,1.2525,1.262,1.2715,1.2773,1.2871,1.303,1.3173,1.3275,1.3376,1.34,1.34,1.34,1.34,1.34,1.34,1.34,1.34,1.34,1.34,1.34,1.34,1.34,1.34,1.34,1.34,1.34,1.34,1.34,1.34,1.34,1.34,1.34,1.34,1.34,1.34,1.34,1.34,1.34,1.34,1.34,1.34,1.34,1.34,1.34,1.34,1.34,1.34,1.34,1.34,1.34,1.34,1.34,1.34,1.34,1.34,1.34,1.34,1.34,1.34,1.34,1.34,1.34,1.34,1.34,1.34,1.34,1.34,1.34,1.34,1.34,1.34,1.34,1.34,1.34,1.34,1.34,1.34,1.34,1.34,1.34,1.34]},{"header":{"parameterUnit":"m.s-1","parameterCategory":1,"la1":31.0,"la2":29.5877,"lo1":-88.7671,"lo2":-86.6584,"dy":0.0162,"dx":0.0185,"nx":115,"ny":88,"refTime":"2025-11-06T12:00:00:Z","depth":0,"parameterNumber":3,"parameterNumberName":"V-component_of_WINDS"},"data":[0.0,0.0,0.0,0.0,0.0,0.0,0.0,0.0,0.0,0.0,0.0,0.0,0.0,0.0,0.0,0.0,0.0,0.0,0.0,0.0,0.0,0.0,0.0,0.0,0.0,0.0,0.0,0.0,0.0,0.0,0.0,0.0,0.0,0.0,0.0,0.0,0.0,0.0,0.0,0.0,0.0,0.0,0.0,0.0,0.0,0.0,0.0,0.0,0.0,0.0,0.0,0.0,0.0,0.0,0.0,0.0,0.0,0.0,0.0,0.0,0.0,0.0,0.0,0.0,0.0,0.0,0.0,0.0,0.0,0.0,0.0,0.0,0.0,0.0,0.0,0.0,0.0,0.0,0.0,0.0,0.0,0.0,0.0,0.0,0.0,0.0,0.0,0.0,0.0,0.0,0.0,0.0,0.0,0.0,0.0,0.0,0.0,0.0,0.0,0.0,0.0,0.0,0.0,0.0,0.0,0.0,0.0,0.0,0.0,0.0,0.0,0.0,0.0,0.0,0.0,0.0,0.0,0.0,0.0,0.0,0.0,0.0,0.0,0.0,0.0,0.0,0.0,0.0,0.0,0.0,0.0,0.0,0.0,0.0,0.0,0.0,0.0,0.0,0.0,0.0,0.0,0.0,0.0,0.0,0.0,0.0,0.0,0.0,0.0,0.0,0.0,0.0,0.0,0.0,0.0,0.0,0.0,0.0,0.0,0.0,0.0,0.0,0.0,0.0,0.0,0.0,0.0,0.0,0.0,0.0,0.0,0.0,0.0,0.0,0.0,0.0,0.0,0.0,0.0,0.0,0.0,0.0,0.0,0.0,0.0,0.0,0.0,0.0,0.0,0.0,0.0,0.0,0.0,0.0,0.0,0.0,0.0,0.0,0.0,0.0,0.0,0.0,0.0,0.0,0.0,0.0,0.0,0.0,0.0,0.0,0.0,0.0,0.0,0.0,0.0,0.0,0.0,0.0,0.0,0.0,0.0,0.0,0.0,0.0,0.0,0.0,0.0,0.0,0.0,0.0,0.0,0.0,0.0,0.0,0.0,0.0,0.0,0.0,0.0,0.0,0.0,0.0,0.0,0.0,0.0,0.0,0.0,0.0,0.0,0.0,0.0,0.0,0.0,0.0,0.0,0.0,0.0,0.0,0.0,0.0,0.0,0.0,0.0,0.0,0.0,0.0,0.0,0.0,0.0,0.0,0.0,0.0,0.0,0.0,0.0,0.0,0.0,0.0,0.0,0.0,0.0,0.0,0.0,0.0,0.0,0.0,0.0,0.0,0.0,0.0,0.0,0.0,0.0,0.0,0.0,0.0,0.0,0.0,0.0,0.0,0.0,0.0,0.0,0.0,0.0,0.0,0.0,0.0,0.0,0.0,0.0,0.0,0.0,0.0,0.0,0.0,0.0,0.0,0.0,0.0,0.0,0.0,0.0,0.0,0.0,0.0,0.0,0.0,0.0,0.0,0.0,0.0,0.0,0.0,0.0,0.0,0.0,0.0,0.0,0.0,0.0,0.0,0.0,0.0,0.0,0.0,0.0,0.0,0.0,0.0,0.0,0.0,0.0,0.0,0.0,0.0,0.0,0.0,0.0,0.0,0.0,0.0,0.0,0.0,0.0,0.0,0.0,0.0,0.0,0.0,0.0,0.0,0.0,0.0,0.0,0.0,0.0,0.0,0.0,0.0,0.0,0.0,0.0,0.0,0.0,0.0,0.0,0.0,0.0,0.0,0.0,0.0,0.0,0.0,0.0,0.0,0.0,0.0,0.0,0.0,0.0,0.0,0.0,0.0,0.0,0.0,0.0,0.0,0.0,0.0,0.0,0.0,0.0,0.0,0.0,0.0,0.0,0.0,0.0,0.0,0.0,0.0,0.0,0.0,0.0,0.0,0.0,0.0,0.0,0.0,0.0,0.0,0.0,0.0,0.0,0.0,0.0,0.0,0.0,0.0,0.0,0.0,0.0,0.0,0.0,0.0,0.0,0.0,0.0,0.0,0.0,0.0,0.0,0.0,0.0,0.0,0.0,0.0,0.0,0.0,0.0,0.0,0.0,0.0,0.0,0.0,0.0,0.0,0.0,0.0,0.0,0.0,0.0,0.0,0.0,0.0,0.0,0.0,0.0,0.0,0.0,0.0,0.0,0.0,0.0,0.0,0.0,0.0,0.0,0.0,0.0,0.0,0.0,0.0,0.0,0.0,0.0,0.0,0.0,0.0,0.0,0.0,0.0,0.0,0.0,0.0,0.0,0.0,0.0,0.0,0.0,0.0,0.0,0.0,0.0,0.0,0.0,0.0,0.0,0.0,0.0,0.0,0.0,0.0,0.0,0.0,0.0,0.0,0.0,0.0,0.0,0.0,0.0,0.0,0.0,0.0,0.0,0.0,0.0,0.0,0.0,0.0,0.0,0.0,0.0,0.0,0.0,0.0,0.0,0.0,0.0,0.0,0.0,0.0,0.0,0.0,0.0,0.0,0.0,0.0,0.0,0.0,0.0,0.0,0.0,0.0,0.0,0.0,0.0,0.0,0.0,0.0,0.0,0.0,0.0,0.0,0.0,0.0,0.0,0.0,0.0,0.0,0.0,0.0,0.0,0.0,0.0,0.0,0.0,0.0,0.0,0.0,0.0,0.0,0.0,0.0,0.0,0.0,0.0,0.0,0.0,0.0,0.0,0.0,0.0,0.0,0.0,0.0,0.0,0.0,0.0,0.0,0.0,0.0,0.0,0.0,0.0,0.0,0.0,0.0,0.0,0.0,0.0,0.0,0.0,0.0,0.0,0.0,0.0,0.0,0.0,0.0,0.0,0.0,0.0,0.0,0.0,0.0,0.0,0.0,0.0,0.0,0.0,0.0,0.0,0.0,0.0,0.0,0.0,0.0,0.0,0.0,0.0,0.0,0.0,0.0,0.0,0.0,0.0,0.0,0.0,0.0,0.0,0.0,0.0,0.0,0.0,0.0,0.0,0.0,0.0,0.0,0.0,0.0,0.0,0.0,0.0,0.0,0.0,0.0,0.0,0.0,0.0,0.0,0.0,0.0,0.0,0.0,0.0,0.0,0.0,0.0,0.0,0.0,0.0,0.0,0.0,0.0,0.0,0.0,0.0,0.0,0.0,0.0,0.0,0.0,0.0,0.0,0.0,0.0,0.0,0.0,0.0,0.0,0.0,0.0,0.0,0.0,0.0,0.0,0.0,0.0,0.0,0.0,0.0,0.0,0.0,0.0,0.0,0.0,0.0,0.0,0.0,0.0,0.0,0.0,0.0,0.0,0.0,0.0,0.0,0.0,0.0,0.0,0.0,0.0,0.0,0.0,0.0,0.0,0.0,0.0,0.0,0.0,0.0,0.0,0.0,0.0,0.0,0.0,0.0,0.0,0.0,0.0,0.0,0.0,0.0,0.0,0.0,0.0,0.0,0.0,0.0,0.0,0.0,0.0,0.0,0.0,0.0,0.0,0.0,0.0,0.0,0.0,0.0,0.0,0.0,0.0,0.0,0.0,0.0,0.0,0.0,0.0,0.0,0.0,0.0,0.0,0.0,0.0,0.0,0.0,0.0,0.0,0.0,0.0,0.0,0.0,0.0,0.0,0.0,0.0,0.0,0.0,0.0,0.0,0.0,0.0,0.0,0.0,0.0,0.0,0.0,0.0,0.0,0.0,0.0,0.0,0.0,0.0,0.0,0.0,0.0,0.0,0.0,0.0,0.0,0.0,0.0,0.0,0.0,0.0,0.0,0.0,0.0,0.0,0.0,0.0,0.0,0.0,0.0,0.0,0.0,0.0,0.0,0.0,0.0,0.0,0.0,0.0,0.0,0.0,0.0,0.0,0.0,0.0,0.0,0.0,0.0,0.0,0.0,0.0,0.0,0.0,0.0,0.0,0.0,0.0,0.0,0.0,0.0,0.0,0.0,0.0,0.0,0.0,0.0,0.0,0.0,0.0,0.0,0.0,0.0,0.0,0.0,0.0,0.0,0.0,0.0,0.0,0.0,0.0,0.0,0.0,0.0,0.0,0.0,0.0,0.0,0.0,0.0,0.0,0.0,0.0,0.0,0.0,0.0,0.0,0.0,0.0,0.0,0.0,0.0,0.0,0.0,0.0,0.0,0.0,0.0,0.0,0.0,0.0,0.0,0.0,0.0,0.0,0.0,0.0,0.0,0.0,0.0,0.0,0.0,0.0,0.0,0.0,0.0,0.0,0.0,0.0,0.0,0.0,0.0,0.0,0.0,0.0,0.0,0.0,0.0,0.0,0.0,0.0,0.0,0.0,0.0,0.0,-2.7852,0.0,0.0,0.0,0.0,0.0,0.0,0.0,0.0,0.0,0.0,0.0,0.0,0.0,0.0,0.0,0.0,0.0,0.0,0.0,0.0,0.0,0.0,0.0,0.0,0.0,0.0,0.0,0.0,0.0,0.0,0.0,0.0,0.0,0.0,0.0,0.0,0.0,0.0,0.0,0.0,0.0,0.0,0.0,0.0,0.0,0.0,0.0,0.0,0.0,0.0,0.0,0.0,0.0,0.0,0.0,0.0,0.0,0.0,0.0,0.0,0.0,0.0,0.0,0.0,0.0,0.0,0.0,0.0,0.0,0.0,0.0,0.0,0.0,0.0,0.0,0.0,0.0,0.0,0.0,0.0,0.0,0.0,0.0,0.0,0.0,0.0,0.0,0.0,0.0,0.0,0.0,0.0,0.0,0.0,0.0,0.0,0.0,0.0,0.0,0.0,0.0,0.0,0.0,0.0,0.0,0.0,0.0,0.0,0.0,0.0,-2.9589,-2.966,-2.8525,-2.7678,-2.7198,0.0,0.0,0.0,0.0,0.0,0.0,0.0,0.0,0.0,0.0,0.0,0.0,0.0,0.0,0.0,0.0,0.0,0.0,0.0,0.0,0.0,0.0,0.0,0.0,0.0,0.0,0.0,0.0,0.0,0.0,0.0,0.0,0.0,0.0,0.0,0.0,0.0,0.0,0.0,0.0,0.0,0.0,0.0,0.0,0.0,0.0,0.0,0.0,0.0,0.0,0.0,0.0,0.0,0.0,0.0,0.0,0.0,0.0,0.0,0.0,0.0,0.0,0.0,0.0,0.0,0.0,0.0,0.0,0.0,0.0,0.0,0.0,0.0,0.0,0.0,0.0,0.0,0.0,0.0,0.0,0.0,0.0,0.0,0.0,0.0,0.0,0.0,0.0,0.0,0.0,0.0,0.0,0.0,0.0,0.0,0.0,0.0,0.0,0.0,0.0,0.0,0.0,0.0,0.0,0.0,0.0,0.0,0.0,0.0,0.0,0.0,0.0,-2.8825,-2.8011,-2.7198,0.0,0.0,0.0,0.0,0.0,0.0,0.0,0.0,0.0,0.0,0.0,0.0,0.0,0.0,0.0,0.0,0.0,0.0,0.0,0.0,0.0,0.0,0.0,0.0,0.0,0.0,0.0,0.0,0.0,0.0,0.0,0.0,0.0,0.0,0.0,0.0,0.0,0.0,0.0,0.0,0.0,0.0,0.0,0.0,0.0,0.0,0.0,0.0,0.0,0.0,0.0,0.0,0.0,0.0,0.0,0.0,0.0,0.0,0.0,0.0,0.0,0.0,0.0,0.0,0.0,0.0,0.0,0.0,0.0,0.0,0.0,0.0,0.0,0.0,0.0,0.0,0.0,0.0,0.0,0.0,0.0,0.0,0.0,0.0,0.0,0.0,0.0,0.0,0.0,0.0,0.0,0.0,0.0,0.0,0.0,0.0,0.0,0.0,0.0,0.0,0.0,0.0,0.0,0.0,0.0,0.0,0.0,0.0,0.0,0.0,-2.8575,-3.0921,-3.0271,0.0,-2.8967,0.0,0.0,0.0,0.0,0.0,0.0,0.0,0.0,0.0,0.0,0.0,0.0,0.0,0.0,0.0,0.0,0.0,0.0,0.0,0.0,0.0,0.0,0.0,0.0,0.0,0.0,0.0,0.0,0.0,0.0,0.0,0.0,0.0,0.0,0.0,0.0,0.0,0.0,0.0,0.0,0.0,0.0,0.0,0.0,0.0,0.0,0.0,0.0,0.0,0.0,0.0,0.0,0.0,0.0,0.0,0.0,0.0,0.0,0.0,0.0,0.0,0.0,0.0,0.0,0.0,0.0,0.0,0.0,0.0,0.0,0.0,0.0,0.0,0.0,0.0,0.0,0.0,0.0,0.0,0.0,0.0,0.0,0.0,0.0,0.0,0.0,0.0,0.0,0.0,0.0,0.0,0.0,0.0,0.0,0.0,0.0,0.0,0.0,0.0,0.0,0.0,0.0,0.0,0.0,0.0,0.0,0.0,0.0,0.0,0.0,-2.908,-3.0236,-2.9608,-2.9141,0.0,0.0,0.0,0.0,0.0,0.0,0.0,0.0,0.0,0.0,0.0,0.0,0.0,0.0,0.0,0.0,0.0,0.0,0.0,0.0,0.0,0.0,0.0,0.0,0.0,0.0,0.0,0.0,0.0,0.0,0.0,0.0,0.0,0.0,0.0,0.0,0.0,0.0,0.0,0.0,0.0,0.0,0.0,0.0,0.0,0.0,0.0,0.0,0.0,0.0,0.0,0.0,0.0,0.0,0.0,0.0,0.0,0.0,0.0,0.0,0.0,0.0,0.0,0.0,0.0,0.0,0.0,0.0,0.0,0.0,0.0,0.0,0.0,0.0,0.0,0.0,0.0,0.0,0.0,0.0,0.0,0.0,0.0,0.0,0.0,0.0,0.0,0.0,0.0,0.0,0.0,0.0,0.0,0.0,0.0,0.0,0.0,0.0,0.0,0.0,0.0,0.0,0.0,0.0,0.0,0.0,0.0,0.0,0.0,0.0,-2.8688,-2.9357,-3.0152,-2.9878,-2.9368,-2.876,0.0,0.0,0.0,0.0,0.0,0.0,0.0,0.0,0.0,0.0,0.0,0.0,0.0,0.0,0.0,0.0,0.0,0.0,0.0,0.0,0.0,0.0,0.0,0.0,0.0,0.0,0.0,0.0,0.0,0.0,0.0,0.0,0.0,0.0,0.0,0.0,0.0,0.0,0.0,0.0,0.0,0.0,0.0,0.0,0.0,0.0,0.0,0.0,0.0,0.0,0.0,0.0,0.0,0.0,0.0,0.0,0.0,0.0,0.0,0.0,0.0,0.0,0.0,0.0,0.0,0.0,0.0,0.0,0.0,0.0,0.0,0.0,0.0,0.0,0.0,0.0,0.0,0.0,0.0,0.0,0.0,0.0,0.0,0.0,0.0,0.0,0.0,0.0,0.0,0.0,0.0,0.0,0.0,0.0,0.0,0.0,0.0,0.0,0.0,0.0,0.0,0.0,0.0,0.0,0.0,0.0,0.0,0.0,-3.0858,-2.8966,-2.9126,-3.1696,-3.1957,-3.1025,0.0,0.0,0.0,0.0,0.0,0.0,0.0,0.0,0.0,0.0,0.0,0.0,0.0,0.0,0.0,0.0,0.0,0.0,0.0,0.0,0.0,0.0,0.0,0.0,0.0,0.0,0.0,0.0,0.0,0.0,0.0,0.0,0.0,0.0,0.0,0.0,0.0,0.0,0.0,0.0,0.0,0.0,0.0,0.0,0.0,0.0,0.0,0.0,0.0,0.0,0.0,0.0,0.0,0.0,0.0,0.0,0.0,0.0,0.0,0.0,0.0,0.0,0.0,0.0,0.0,0.0,0.0,0.0,0.0,0.0,0.0,0.0,0.0,0.0,0.0,0.0,0.0,0.0,0.0,0.0,0.0,0.0,0.0,0.0,0.0,0.0,0.0,0.0,0.0,0.0,0.0,0.0,0.0,0.0,0.0,0.0,0.0,0.0,0.0,0.0,0.0,0.0,0.0,0.0,0.0,0.0,0.0,0.0,0.0,-2.6722,-2.7438,-2.9508,-3.2859,-3.0847,-2.9739,0.0,0.0,0.0,0.0,0.0,0.0,0.0,0.0,0.0,0.0,0.0,0.0,0.0,0.0,0.0,0.0,0.0,0.0,0.0,0.0,0.0,0.0,0.0,0.0,0.0,0.0,0.0,0.0,0.0,0.0,0.0,0.0,0.0,0.0,0.0,0.0,0.0,0.0,0.0,0.0,0.0,0.0,0.0,0.0,0.0,0.0,0.0,0.0,0.0,0.0,0.0,0.0,0.0,0.0,0.0,0.0,0.0,0.0,0.0,0.0,0.0,0.0,0.0,0.0,0.0,0.0,0.0,0.0,0.0,0.0,0.0,0.0,0.0,0.0,0.0,0.0,0.0,0.0,0.0,0.0,0.0,0.0,0.0,0.0,0.0,0.0,0.0,0.0,0.0,0.0,0.0,0.0,0.0,0.0,0.0,0.0,0.0,0.0,0.0,0.0,0.0,0.0,0.0,0.0,0.0,0.0,0.0,0.0,0.0,-2.6135,0.0,-3.0411,-3.2412,-3.0134,-2.8815,0.0,0.0,0.0,0.0,0.0,0.0,0.0,0.0,0.0,0.0,0.0,0.0,0.0,0.0,0.0,0.0,0.0,0.0,0.0,0.0,0.0,0.0,0.0,0.0,0.0,0.0,0.0,0.0,0.0,0.0,0.0,0.0,0.0,0.0,0.0,0.0,0.0,0.0,0.0,0.0,0.0,0.0,0.0,0.0,0.0,0.0,0.0,0.0,0.0,0.0,0.0,0.0,0.0,0.0,0.0,0.0,0.0,0.0,0.0,0.0,0.0,0.0,0.0,0.0,0.0,0.0,0.0,0.0,0.0,0.0,0.0,0.0,0.0,0.0,0.0,0.0,0.0,0.0,0.0,0.0,0.0,0.0,0.0,0.0,0.0,0.0,0.0,0.0,0.0,0.0,0.0,0.0,0.0,0.0,0.0,0.0,0.0,0.0,0.0,0.0,0.0,0.0,0.0,0.0,0.0,0.0,0.0,0.0,-2.6172,-2.9916,-3.1568,-3.1733,-3.0356,-3.0136,-2.8484,0.0,0.0,0.0,0.0,0.0,0.0,0.0,0.0,0.0,0.0,0.0,0.0,0.0,0.0,0.0,0.0,0.0,0.0,0.0,0.0,0.0,0.0,0.0,0.0,0.0,0.0,0.0,0.0,0.0,0.0,0.0,0.0,0.0,0.0,0.0,0.0,0.0,0.0,0.0,0.0,0.0,0.0,0.0,0.0,0.0,0.0,0.0,0.0,0.0,0.0,0.0,0.0,0.0,0.0,0.0,0.0,0.0,0.0,0.0,0.0,0.0,0.0,0.0,0.0,0.0,0.0,0.0,0.0,0.0,0.0,0.0,0.0,0.0,0.0,0.0,0.0,0.0,0.0,0.0,0.0,0.0,0.0,0.0,0.0,0.0,0.0,0.0,0.0,0.0,0.0,0.0,0.0,0.0,0.0,0.0,0.0,0.0,0.0,0.0,0.0,0.0,0.0,0.0,0.0,0.0,0.0,0.0,0.0,0.0,-2.7769,-2.9843,-3.1494,-3.2522,-2.9457,-2.8289,0.0,0.0,0.0,0.0,0.0,0.0,0.0,0.0,0.0,0.0,0.0,0.0,0.0,0.0,0.0,0.0,0.0,0.0,0.0,0.0,0.0,0.0,0.0,0.0,0.0,0.0,0.0,0.0,0.0,0.0,0.0,0.0,0.0,0.0,0.0,0.0,0.0,0.0,0.0,0.0,0.0,0.0,0.0,0.0,0.0,0.0,0.0,0.0,0.0,0.0,0.0,0.0,0.0,0.0,0.0,0.0,0.0,0.0,0.0,0.0,0.0,0.0,0.0,0.0,0.0,0.0,0.0,0.0,0.0,0.0,0.0,0.0,0.0,0.0,0.0,0.0,0.0,0.0,0.0,0.0,0.0,0.0,0.0,0.0,0.0,0.0,0.0,0.0,0.0,0.0,0.0,0.0,0.0,0.0,0.0,0.0,0.0,0.0,0.0,0.0,0.0,0.0,0.0,0.0,0.0,0.0,0.0,0.0,0.0,-2.942,-3.1384,-3.2889,-3.377,-2.9989,-2.854,-2.9776,0.0,0.0,0.0,0.0,0.0,0.0,0.0,0.0,0.0,0.0,0.0,0.0,0.0,0.0,0.0,0.0,0.0,0.0,0.0,0.0,0.0,0.0,0.0,0.0,0.0,0.0,0.0,0.0,0.0,0.0,0.0,0.0,0.0,0.0,0.0,0.0,0.0,0.0,0.0,0.0,0.0,0.0,0.0,0.0,0.0,0.0,0.0,0.0,0.0,0.0,0.0,0.0,0.0,0.0,0.0,0.0,0.0,0.0,0.0,0.0,0.0,0.0,0.0,0.0,0.0,0.0,0.0,0.0,0.0,0.0,0.0,0.0,0.0,0.0,0.0,0.0,0.0,0.0,0.0,0.0,0.0,0.0,0.0,0.0,0.0,0.0,0.0,0.0,0.0,0.0,0.0,0.0,0.0,0.0,0.0,0.0,0.0,0.0,0.0,0.0,0.0,0.0,0.0,0.0,0.0,0.0,0.0,0.0,-3.4045,-3.5697,-3.5807,-3.4229,-3.1696,-2.937,0.0,0.0,0.0,0.0,0.0,0.0,0.0,0.0,0.0,0.0,0.0,0.0,0.0,0.0,0.0,0.0,0.0,0.0,0.0,0.0,0.0,0.0,0.0,0.0,0.0,0.0,0.0,0.0,0.0,0.0,0.0,0.0,0.0,0.0,0.0,0.0,0.0,0.0,0.0,0.0,0.0,0.0,0.0,0.0,0.0,0.0,0.0,0.0,0.0,0.0,0.0,0.0,0.0,0.0,0.0,0.0,0.0,0.0,0.0,0.0,0.0,0.0,0.0,0.0,0.0,0.0,0.0,0.0,0.0,0.0,0.0,0.0,0.0,0.0,0.0,0.0,0.0,0.0,0.0,0.0,0.0,0.0,0.0,0.0,0.0,0.0,0.0,0.0,0.0,0.0,0.0,0.0,0.0,0.0,0.0,0.0,0.0,0.0,0.0,0.0,0.0,0.0,0.0,0.0,0.0,0.0,0.0,0.0,0.0,-3.7312,-3.9019,-3.935,-3.8248,-3.4211,-3.1759,0.0,0.0,0.0,0.0,0.0,0.0,0.0,0.0,0.0,0.0,0.0,0.0,0.0,0.0,0.0,0.0,0.0,0.0,0.0,0.0,0.0,0.0,0.0,0.0,0.0,0.0,0.0,0.0,0.0,0.0,0.0,0.0,0.0,0.0,0.0,0.0,0.0,0.0,0.0,0.0,0.0,0.0,0.0,0.0,0.0,0.0,0.0,0.0,0.0,0.0,0.0,0.0,0.0,0.0,0.0,0.0,0.0,0.0,0.0,0.0,0.0,0.0,0.0,0.0,0.0,0.0,0.0,0.0,0.0,0.0,0.0,0.0,0.0,0.0,0.0,0.0,0.0,0.0,0.0,0.0,0.0,0.0,0.0,0.0,0.0,0.0,0.0,0.0,0.0,0.0,0.0,0.0,0.0,0.0,0.0,0.0,0.0,0.0,0.0,0.0,0.0,0.0,0.0,0.0,0.0,0.0,0.0,0.0,-3.5973,-3.9643,-4.1937,-4.2662,-4.1656,-3.7106,-3.3931,0.0,0.0,0.0,0.0,0.0,0.0,0.0,0.0,0.0,0.0,0.0,0.0,0.0,0.0,0.0,0.0,0.0,0.0,0.0,0.0,0.0,0.0,0.0,0.0,0.0,0.0,0.0,0.0,0.0,0.0,0.0,0.0,0.0,0.0,0.0,0.0,0.0,0.0,0.0,0.0,0.0,0.0,0.0,0.0,0.0,0.0,0.0,0.0,0.0,0.0,0.0,0.0,0.0,0.0,0.0,0.0,0.0,0.0,0.0,0.0,0.0,0.0,0.0,0.0,0.0,0.0,0.0,0.0,0.0,0.0,0.0,0.0,0.0,0.0,0.0,0.0,0.0,0.0,0.0,0.0,0.0,0.0,0.0,0.0,0.0,0.0,0.0,0.0,0.0,0.0,0.0,0.0,0.0,0.0,0.0,0.0,0.0,0.0,0.0,0.0,0.0,0.0,0.0,0.0,0.0,0.0,0.0,0.0,-3.8102,-4.1313,-4.4323,-4.5326,-4.4147,-4.0018,-3.5965,0.0,0.0,0.0,0.0,0.0,0.0,0.0,0.0,0.0,0.0,0.0,0.0,0.0,0.0,0.0,0.0,0.0,0.0,0.0,0.0,0.0,0.0,0.0,0.0,0.0,0.0,0.0,0.0,0.0,0.0,0.0,0.0,0.0,0.0,0.0,0.0,0.0,0.0,0.0,0.0,0.0,0.0,0.0,0.0,0.0,0.0,0.0,0.0,0.0,0.0,0.0,0.0,0.0,0.0,0.0,0.0,0.0,0.0,0.0,0.0,0.0,0.0,0.0,0.0,0.0,0.0,0.0,0.0,0.0,0.0,0.0,0.0,0.0,0.0,0.0,0.0,0.0,0.0,0.0,0.0,0.0,0.0,0.0,0.0,0.0,0.0,0.0,0.0,0.0,0.0,0.0,0.0,0.0,0.0,0.0,0.0,0.0,0.0,0.0,0.0,0.0,0.0,0.0,0.0,0.0,0.0,0.0,0.0,-3.9735,-4.291,-4.4892,-4.5773,-4.5493,-4.1736,-3.7932,0.0,0.0,0.0,0.0,0.0,0.0,0.0,0.0,0.0,0.0,0.0,0.0,0.0,0.0,0.0,0.0,0.0,0.0,0.0,0.0,0.0,0.0,0.0,0.0,0.0,0.0,0.0,0.0,0.0,0.0,0.0,0.0,0.0,0.0,0.0,0.0,0.0,0.0,0.0,0.0,0.0,0.0,0.0,0.0,0.0,0.0,0.0,0.0,-2.7217,0.0,0.0,0.0,0.0,0.0,0.0,0.0,0.0,0.0,0.0,0.0,0.0,0.0,0.0,0.0,0.0,0.0,0.0,0.0,0.0,0.0,0.0,0.0,0.0,0.0,0.0,0.0,0.0,0.0,0.0,0.0,0.0,0.0,0.0,0.0,0.0,0.0,0.0,0.0,0.0,0.0,0.0,0.0,0.0,0.0,0.0,0.0,0.0,0.0,0.0,0.0,0.0,0.0,0.0,0.0,0.0,0.0,0.0,0.0,-4.1203,-4.3993,-4.5645,-4.6194,-4.5519,-4.2897,-3.9442,0.0,0.0,0.0,0.0,0.0,0.0,0.0,0.0,0.0,0.0,0.0,0.0,0.0,0.0,0.0,0.0,0.0,0.0,0.0,0.0,0.0,0.0,0.0,0.0,0.0,0.0,0.0,0.0,0.0,0.0,0.0,0.0,0.0,0.0,0.0,0.0,0.0,0.0,0.0,0.0,0.0,0.0,0.0,0.0,0.0,0.0,0.0,0.0,0.0,0.0,0.0,0.0,0.0,0.0,0.0,0.0,0.0,0.0,0.0,0.0,0.0,0.0,0.0,0.0,0.0,0.0,0.0,0.0,0.0,0.0,0.0,0.0,0.0,0.0,0.0,0.0,0.0,0.0,0.0,0.0,0.0,0.0,0.0,0.0,0.0,0.0,0.0,0.0,0.0,0.0,0.0,0.0,0.0,0.0,0.0,0.0,0.0,0.0,0.0,0.0,0.0,0.0,0.0,0.0,0.0,0.0,0.0,-3.8817,-4.2084,-4.4452,-4.5975,-4.6155,-4.4971,-4.3392,-4.0251,-3.5443,0.0,0.0,0.0,0.0,0.0,0.0,0.0,0.0,0.0,0.0,0.0,0.0,0.0,0.0,0.0,0.0,0.0,0.0,0.0,0.0,0.0,0.0,0.0,0.0,0.0,0.0,0.0,0.0,0.0,0.0,0.0,0.0,0.0,0.0,0.0,0.0,0.0,0.0,-2.4707,-2.6196,0.0,0.0,0.0,0.0,0.0,0.0,0.0,0.0,-2.8044,0.0,0.0,0.0,0.0,0.0,0.0,0.0,0.0,0.0,0.0,0.0,0.0,0.0,0.0,0.0,0.0,0.0,0.0,0.0,0.0,0.0,0.0,0.0,0.0,0.0,0.0,0.0,0.0,0.0,0.0,0.0,0.0,0.0,0.0,0.0,0.0,0.0,0.0,0.0,0.0,0.0,0.0,0.0,0.0,0.0,0.0,0.0,0.0,0.0,0.0,0.0,0.0,0.0,0.0,0.0,0.0,-3.8781,-3.968,-4.1277,-4.3626,-4.4617,-4.4689,-4.3766,-4.222,-3.9375,-3.5285,0.0,0.0,0.0,0.0,0.0,0.0,0.0,0.0,0.0,0.0,0.0,0.0,0.0,0.0,0.0,0.0,0.0,0.0,0.0,0.0,0.0,0.0,0.0,0.0,0.0,0.0,0.0,0.0,0.0,0.0,0.0,0.0,0.0,0.0,0.0,0.0,0.0,0.0,0.0,-2.9159,-2.9821,0.0,0.0,0.0,0.0,0.0,0.0,0.0,0.0,-2.7794,0.0,0.0,0.0,0.0,0.0,0.0,0.0,0.0,0.0,0.0,0.0,0.0,0.0,0.0,0.0,0.0,0.0,0.0,0.0,0.0,0.0,0.0,0.0,0.0,0.0,0.0,0.0,0.0,0.0,0.0,0.0,0.0,0.0,0.0,0.0,0.0,0.0,0.0,0.0,0.0,0.0,0.0,0.0,0.0,0.0,0.0,0.0,0.0,0.0,0.0,0.0,0.0,0.0,0.0,0.0,-3.7239,-3.9863,-4.1699,-4.2837,-4.3259,-4.3277,-4.2818,-4.0191,-3.7423,0.0,0.0,0.0,0.0,0.0,0.0,0.0,0.0,0.0,0.0,0.0,0.0,0.0,0.0,0.0,0.0,0.0,0.0,0.0,0.0,0.0,0.0,0.0,0.0,0.0,0.0,0.0,0.0,0.0,0.0,0.0,0.0,0.0,0.0,0.0,0.0,0.0,0.0,0.0,0.0,-3.014,-3.0725,-3.1583,0.0,0.0,0.0,0.0,0.0,0.0,-2.9275,-2.8448,0.0,0.0,0.0,0.0,0.0,0.0,0.0,0.0,0.0,0.0,0.0,0.0,0.0,0.0,0.0,0.0,0.0,0.0,0.0,0.0,0.0,0.0,0.0,0.0,0.0,0.0,0.0,0.0,0.0,0.0,0.0,0.0,0.0,0.0,0.0,0.0,0.0,0.0,0.0,0.0,0.0,0.0,0.0,0.0,0.0,0.0,0.0,0.0,0.0,0.0,0.0,0.0,0.0,0.0,0.0,-3.5064,-3.935,-4.1662,-4.1809,-4.1809,-4.1901,-4.1992,-3.8722,-3.6036,0.0,0.0,0.0,0.0,0.0,0.0,0.0,0.0,0.0,0.0,0.0,0.0,0.0,0.0,0.0,0.0,0.0,0.0,0.0,0.0,0.0,0.0,0.0,0.0,0.0,0.0,0.0,0.0,0.0,0.0,0.0,0.0,0.0,0.0,0.0,0.0,0.0,0.0,0.0,0.0,0.0,-3.2237,-3.3045,-3.2023,0.0,0.0,0.0,0.0,-3.1506,-3.1083,0.0,0.0,0.0,0.0,0.0,0.0,0.0,0.0,0.0,0.0,0.0,0.0,0.0,0.0,0.0,0.0,0.0,0.0,0.0,0.0,0.0,0.0,0.0,0.0,0.0,0.0,0.0,0.0,0.0,0.0,0.0,0.0,0.0,0.0,0.0,0.0,0.0,0.0,0.0,0.0,0.0,0.0,0.0,0.0,0.0,0.0,0.0,0.0,0.0,0.0,0.0,0.0,0.0,0.0,0.0,0.0,-3.4954,-3.7716,-3.946,-4.012,-4.0157,-4.0506,-4.1203,-3.9436,-3.6993,0.0,0.0,0.0,0.0,0.0,0.0,0.0,0.0,0.0,0.0,0.0,0.0,0.0,0.0,0.0,0.0,0.0,0.0,0.0,0.0,0.0,0.0,0.0,0.0,0.0,0.0,0.0,0.0,0.0,0.0,0.0,0.0,0.0,0.0,0.0,0.0,0.0,0.0,0.0,0.0,0.0,-3.6356,-3.4347,-3.3898,-3.3718,0.0,0.0,-3.3276,-3.5603,-3.5892,0.0,0.0,0.0,0.0,0.0,0.0,0.0,0.0,0.0,0.0,0.0,0.0,0.0,0.0,0.0,0.0,0.0,0.0,0.0,0.0,0.0,0.0,0.0,0.0,0.0,0.0,0.0,0.0,0.0,0.0,0.0,0.0,0.0,0.0,0.0,0.0,0.0,0.0,0.0,0.0,0.0,0.0,0.0,0.0,0.0,0.0,0.0,0.0,0.0,0.0,0.0,0.0,0.0,0.0,0.0,-3.3164,-3.5045,-3.8781,-4.0451,-3.9918,-3.9882,-4.0286,-4.1093,-3.7864,-3.5358,0.0,0.0,0.0,0.0,0.0,0.0,0.0,0.0,0.0,0.0,0.0,0.0,0.0,0.0,0.0,0.0,0.0,0.0,0.0,0.0,0.0,0.0,0.0,0.0,0.0,0.0,0.0,0.0,0.0,0.0,0.0,0.0,0.0,0.0,0.0,0.0,0.0,0.0,0.0,0.0,0.0,0.0,-3.629,-3.6358,0.0,0.0,0.0,-3.6738,-3.7334,0.0,0.0,0.0,0.0,0.0,0.0,0.0,0.0,0.0,0.0,0.0,0.0,0.0,0.0,0.0,0.0,0.0,0.0,0.0,0.0,0.0,0.0,0.0,0.0,0.0,0.0,0.0,0.0,0.0,0.0,0.0,0.0,0.0,0.0,0.0,0.0,0.0,0.0,0.0,0.0,0.0,0.0,0.0,0.0,0.0,0.0,0.0,0.0,0.0,0.0,0.0,0.0,0.0,0.0,0.0,0.0,0.0,-3.5064,-3.9827,-4.1515,-3.9955,-3.9882,-4.0286,-4.1001,-3.7081,0.0,0.0,0.0,0.0,0.0,0.0,0.0,0.0,0.0,0.0,0.0,0.0,0.0,0.0,0.0,0.0,0.0,0.0,0.0,0.0,0.0,0.0,0.0,0.0,0.0,0.0,0.0,-1.8223,0.0,0.0,0.0,0.0,0.0,0.0,0.0,0.0,0.0,0.0,0.0,0.0,0.0,0.0,-3.6549,-3.8657,-3.915,-3.9419,0.0,0.0,-4.0085,-3.9662,-3.995,-3.843,0.0,0.0,0.0,0.0,0.0,0.0,0.0,0.0,0.0,0.0,0.0,0.0,0.0,0.0,0.0,0.0,0.0,0.0,0.0,0.0,0.0,0.0,0.0,0.0,0.0,0.0,0.0,0.0,0.0,0.0,0.0,0.0,0.0,0.0,0.0,0.0,0.0,0.0,0.0,0.0,0.0,0.0,0.0,0.0,0.0,0.0,0.0,0.0,0.0,0.0,0.0,0.0,0.0,0.0,-3.4192,-3.5119,-3.9827,-4.1534,-3.9955,-3.9882,-4.0286,-4.1038,-3.8628,-3.6166,0.0,0.0,0.0,0.0,0.0,0.0,0.0,0.0,0.0,0.0,0.0,0.0,0.0,0.0,0.0,0.0,0.0,0.0,0.0,0.0,0.0,0.0,0.0,0.0,0.0,0.0,0.0,0.0,0.0,0.0,0.0,0.0,0.0,0.0,0.0,0.0,0.0,0.0,0.0,0.0,0.0,-4.0434,-4.1412,-4.2239,-4.3316,0.0,0.0,-4.3085,-4.3778,-4.522,-4.3508,-3.5353,0.0,0.0,0.0,0.0,0.0,0.0,0.0,0.0,0.0,0.0,0.0,0.0,0.0,0.0,0.0,0.0,0.0,0.0,0.0,0.0,0.0,0.0,0.0,0.0,0.0,0.0,0.0,0.0,0.0,0.0,0.0,0.0,0.0,0.0,0.0,0.0,0.0,0.0,0.0,0.0,0.0,0.0,0.0,0.0,0.0,0.0,0.0,0.0,0.0,0.0,0.0,0.0,0.0,-3.4468,-3.5844,-4.0561,-4.2506,-4.1405,-4.091,-4.1038,-4.1827,-3.9001,-3.656,0.0,0.0,0.0,0.0,0.0,0.0,0.0,0.0,0.0,0.0,0.0,0.0,0.0,0.0,0.0,0.0,0.0,0.0,0.0,0.0,0.0,0.0,0.0,0.0,0.0,0.0,0.0,0.0,-2.3647,-2.4426,-2.5932,0.0,0.0,0.0,0.0,0.0,0.0,0.0,0.0,0.0,0.0,-4.1388,-4.3814,-4.4897,0.0,0.0,-4.6278,-4.6105,-4.5932,-4.5143,-4.2547,-3.668,-3.4314,0.0,0.0,0.0,0.0,0.0,0.0,0.0,0.0,0.0,0.0,0.0,0.0,0.0,0.0,0.0,0.0,0.0,0.0,0.0,0.0,0.0,0.0,0.0,0.0,0.0,0.0,0.0,0.0,0.0,0.0,0.0,0.0,0.0,0.0,0.0,0.0,0.0,0.0,0.0,0.0,0.0,0.0,0.0,0.0,0.0,0.0,0.0,0.0,0.0,0.0,0.0,0.0,-3.4724,-3.6633,-4.1167,-4.3094,-4.2323,-4.1534,-4.1387,-4.1846,-3.9276,-3.7074,0.0,0.0,0.0,0.0,0.0,0.0,0.0,0.0,0.0,0.0,0.0,0.0,0.0,0.0,0.0,0.0,0.0,0.0,0.0,0.0,0.0,0.0,0.0,0.0,0.0,0.0,0.0,0.0,-2.555,-2.5937,-2.6533,0.0,0.0,0.0,0.0,0.0,0.0,0.0,0.0,0.0,0.0,-4.2776,-4.5892,-4.6666,-4.6993,-4.7222,-4.7317,-4.7163,-4.6605,-4.5009,-4.2393,-3.8161,0.0,0.0,0.0,0.0,0.0,0.0,0.0,0.0,0.0,0.0,0.0,0.0,0.0,0.0,0.0,0.0,0.0,0.0,0.0,0.0,0.0,0.0,0.0,0.0,0.0,0.0,0.0,0.0,0.0,0.0,-2.419,0.0,0.0,0.0,0.0,0.0,0.0,0.0,0.0,0.0,0.0,0.0,0.0,0.0,0.0,0.0,0.0,0.0,0.0,0.0,0.0,0.0,0.0,-3.5,-3.7441,-4.1423,-4.3112,-4.2323,-4.1515,-4.1148,-4.1167,-3.957,-3.7936,-3.6266,0.0,0.0,0.0,0.0,0.0,0.0,0.0,0.0,0.0,0.0,0.0,0.0,0.0,0.0,0.0,0.0,0.0,0.0,0.0,0.0,0.0,0.0,0.0,0.0,0.0,0.0,-2.5274,-2.6053,-2.6563,0.0,0.0,0.0,0.0,0.0,0.0,0.0,0.0,0.0,0.0,-4.315,-4.515,-4.7643,-4.7395,-4.7242,-4.7971,-4.6759,-4.5701,-4.572,-4.5566,-4.4124,0.0,0.0,0.0,0.0,0.0,0.0,0.0,0.0,0.0,0.0,0.0,0.0,0.0,0.0,0.0,0.0,0.0,0.0,0.0,0.0,0.0,0.0,0.0,0.0,0.0,0.0,0.0,-3.0723,-2.9035,0.0,0.0,0.0,0.0,0.0,0.0,0.0,0.0,0.0,0.0,0.0,-3.7516,-3.8817,0.0,0.0,0.0,0.0,0.0,0.0,0.0,0.0,0.0,0.0,0.0,0.0,-3.4998,-3.7544,-4.1442,-4.3369,-4.3094,-4.2304,-4.2158,-4.2653,-4.1148,-3.9056,-3.6376,0.0,0.0,0.0,0.0,0.0,0.0,0.0,0.0,0.0,0.0,0.0,0.0,0.0,0.0,0.0,0.0,0.0,0.0,0.0,0.0,0.0,0.0,0.0,0.0,0.0,-2.586,0.0,0.0,0.0,0.0,0.0,0.0,0.0,0.0,0.0,0.0,0.0,-3.9642,-4.3008,-4.4927,-4.6523,-4.7932,-4.8355,-4.8682,0.0,0.0,0.0,0.0,0.0,0.0,0.0,0.0,0.0,0.0,0.0,0.0,0.0,0.0,-4.2797,-3.6642,-3.5718,-3.5795,-3.5488,0.0,0.0,0.0,0.0,0.0,0.0,0.0,0.0,0.0,0.0,0.0,0.0,0.0,0.0,-3.4981,0.0,-3.2908,0.0,0.0,0.0,0.0,0.0,0.0,0.0,0.0,-4.0308,-4.2032,-4.2047,-4.3353,-4.2858,0.0,-3.9992,-3.6743,0.0,0.0,0.0,0.0,0.0,0.0,0.0,0.0,-3.5705,-3.875,-4.1879,-4.3479,-4.3461,-4.2708,-4.2543,-4.3039,-4.1809,-3.9992,-3.7606,-3.5239,-3.2926,0.0,0.0,0.0,0.0,0.0,0.0,0.0,0.0,0.0,0.0,0.0,0.0,0.0,0.0,0.0,0.0,0.0,0.0,0.0,0.0,0.0,0.0,0.0,-2.7371,0.0,0.0,0.0,0.0,0.0,0.0,0.0,0.0,0.0,-3.6526,-4.0085,-4.3547,-4.5778,-4.7066,-4.7969,-4.849,0.0,0.0,0.0,0.0,0.0,0.0,0.0,-4.5297,-4.5278,-4.4836,-4.4355,-4.4045,-4.6333,-4.7931,-4.7048,0.0,0.0,-4.1546,-4.0489,-4.0566,-4.0315,-4.1604,-4.247,-4.1662,-4.2852,-4.3888,0.0,0.0,0.0,0.0,0.0,0.0,0.0,0.0,-3.8113,-3.801,0.0,-3.6156,0.0,0.0,0.0,0.0,0.0,0.0,0.0,0.0,-4.6065,-4.7549,-4.6214,-4.6817,-4.6377,-4.5002,-4.5516,-4.3791,-3.99,-3.4541,0.0,0.0,0.0,0.0,0.0,0.0,-3.7147,-4.1061,-4.2779,-4.3552,-4.3516,-4.28,-4.2378,-4.2341,-4.1607,-4.0818,-3.9992,-3.9178,-3.7294,-3.4086,-3.1684,0.0,0.0,0.0,0.0,0.0,0.0,0.0,0.0,0.0,0.0,0.0,0.0,0.0,0.0,0.0,0.0,0.0,0.0,0.0,0.0,-2.9132,0.0,0.0,0.0,0.0,0.0,0.0,0.0,0.0,0.0,0.0,-4.1123,-4.4412,-4.7605,-4.9183,0.0,0.0,0.0,0.0,-4.8529,-4.9394,-4.8779,-4.8548,-4.9356,-4.9394,-4.9356,-4.9452,0.0,0.0,-4.8856,-4.9854,-5.0275,-4.7818,-5.0125,-5.1529,-4.9837,-4.7413,-4.6124,-4.6817,-4.7067,-4.7432,-4.8202,-4.9393,-5.0548,-4.7792,0.0,0.0,0.0,0.0,-4.4617,-4.625,-4.8618,-4.7462,-4.5663,-4.3424,-4.2396,0.0,0.0,0.0,0.0,0.0,0.0,-4.4085,-4.5498,-4.8653,-5.0138,-5.0233,-4.99,-4.9496,-4.9022,-4.7517,-4.6177,-4.4947,-4.2249,-3.7441,-3.0852,0.0,0.0,0.0,0.0,-3.9927,-4.2709,-4.4393,-4.4928,-4.4354,-4.412,-4.3736,-4.3167,-4.2928,-4.2433,-4.1644,-4.1369,-4.0013,-3.7412,-3.5567,0.0,0.0,0.0,0.0,0.0,0.0,0.0,0.0,0.0,0.0,0.0,0.0,0.0,0.0,0.0,0.0,0.0,0.0,0.0,-2.9006,-2.966,-3.0194,0.0,0.0,0.0,0.0,0.0,0.0,0.0,0.0,0.0,-4.7778,-4.8817,-4.9779,0.0,0.0,-5.0106,-4.9489,-5.0202,-5.0893,-5.1143,0.0,0.0,0.0,-5.0183,-5.001,-5.1837,-5.4013,-5.5497,-5.5395,-5.5797,-5.5871,-5.5088,-5.5299,-5.5357,-5.4818,-5.2741,-5.1202,-5.1395,-5.1895,-5.2568,-5.3356,-5.3974,-5.4264,-5.5207,-5.082,-4.9407,-4.926,-5.0013,-5.0362,-5.1885,-5.4069,-5.2784,-5.1279,-4.9646,-4.8214,-4.5535,-4.1974,-4.0689,0.0,0.0,0.0,-4.7186,-4.9114,-5.06,-5.1518,-5.194,-5.1499,-5.1261,-5.1187,-4.9444,-4.8581,-4.8545,-4.6929,-4.2782,-3.6431,0.0,0.0,-3.7679,-4.0102,-4.2347,-4.4389,-4.5407,-4.5682,-4.5187,-4.4874,-4.4488,-4.3993,-4.3663,-4.3277,-4.2782,-4.2791,-4.2103,-4.068,-3.8765,-3.6186,0.0,0.0,0.0,0.0,0.0,0.0,0.0,0.0,0.0,0.0,0.0,-2.5184,-2.3059,0.0,0.0,0.0,-2.9194,-3.1237,-3.2045,-3.3218,0.0,0.0,0.0,0.0,0.0,0.0,0.0,-4.5951,-4.9606,-5.2087,-5.2606,-5.2972,-5.2818,-5.1818,-5.1703,-5.1626,-5.1453,0.0,-5.3159,-5.3834,-5.3932,-5.4049,-5.4376,-5.3606,-5.3472,-5.4972,-5.6458,-5.7634,-5.8168,-5.83,-5.8296,-5.8219,-5.7857,-5.7511,-5.7511,-5.6222,-5.5088,-5.4799,-5.5395,-5.6165,-5.6646,-5.6744,-5.6746,-6.1263,-6.0236,-5.5812,-5.4289,-5.484,-5.55,-5.5776,-5.5721,-5.4913,-5.4968,-5.539,-5.3188,-5.1738,-5.0802,-4.7902,0.0,-4.8802,-4.8838,-5.0068,-5.2179,-5.2179,-5.2142,-5.2087,-5.2013,-5.1995,-5.1958,-5.1169,-5.0839,-5.0802,-4.9334,-4.7131,-4.4323,-4.3516,-4.3277,-4.3513,-4.3666,-4.4535,-4.6049,-4.6101,-4.6079,-4.5988,-4.5187,-4.4782,-4.4709,-4.3975,-4.3589,-4.3589,-4.366,-4.3701,-4.3633,-4.1503,-3.9188,-3.6732,0.0,0.0,0.0,0.0,0.0,0.0,0.0,0.0,0.0,0.0,0.0,0.0,0.0,0.0,-3.042,-3.3626,0.0,-3.7123,-3.8584,0.0,0.0,0.0,-4.0595,-4.2412,-4.5533,-4.8125,-4.9721,0.0,0.0,-5.5915,0.0,-5.6242,-5.3895,-5.3551,-5.3783,-5.459,-5.4737,-5.5343,-5.6755,-5.7047,-5.7338,-5.7742,-5.7934,-5.7953,-5.8127,-5.8454,-5.855,-5.8591,-5.8585,-5.8523,-5.8604,-5.8531,-5.8511,-5.8492,-5.8434,-5.8242,-5.7415,-5.7819,-5.8357,-5.8473,-5.8492,-5.8492,-6.242,-6.2144,-6.1006,-5.9593,-5.8052,-5.7593,-5.7428,-5.7354,-5.6583,-5.5996,-5.55,-5.4363,-5.3408,-5.2637,-5.2454,-5.2601,-5.2986,-5.3592,-5.383,-5.383,-5.383,-5.35,-5.2913,-5.2307,-5.1995,-5.194,-5.1187,-5.1114,-5.1665,-5.1316,-5.1041,-5.0894,-5.071,-4.8233,-4.3736,-4.5326,-4.6727,-4.7719,-4.7754,-4.7423,-4.6836,-4.603,-4.5314,-4.4727,-4.4525,-4.4415,-4.4433,-4.4996,-4.5342,-4.5291,-4.4198,-4.2465,-4.0054,-3.4751,0.0,0.0,0.0,0.0,0.0,0.0,0.0,0.0,0.0,-3.2066,-2.6427,0.0,-3.3628,0.0,-3.5397,-3.8546,-4.1296,-4.1354,0.0,0.0,-4.4982,-4.6256,-4.9156,-5.1412,-5.3089,-5.4068,-5.6261,-5.7684,-5.7684,-5.7857,-5.778,-5.7146,-5.6517,-5.6173,-5.6384,-5.6992,-5.7497,-5.7905,-5.8046,-5.805,-5.8338,-5.8838,-5.9223,-5.9223,-5.9742,-6.0185,-6.0204,-6.0204,-6.0223,-6.0204,-6.0204,-6.0204,-6.0185,-6.0204,-6.0146,-5.9896,-5.955,-5.9435,-6.005,-6.0185,-6.0185,-6.2823,-6.2768,-6.242,-6.1484,-6.0236,-5.9777,-5.9593,-5.952,-5.8382,-5.7629,-5.7171,-5.6345,-5.5757,-5.5354,-5.5427,-5.5464,-5.5482,-5.5556,-5.5354,-5.4932,-5.4932,-5.4693,-5.4252,-5.3427,-5.3078,-5.3041,-5.2252,-5.1922,-5.1995,-5.1995,-5.205,-5.2142,-5.2142,-5.0343,-4.6985,-4.8419,-4.9156,-4.8897,-4.8471,-4.8086,-4.7645,-4.6507,-4.5681,-4.5241,-4.4525,-4.4011,-4.3663,-4.405,-4.4288,-4.4288,-4.3522,-4.2582,-4.1323,-3.7304,-3.4377,0.0,0.0,0.0,0.0,0.0,0.0,0.0,0.0,0.0,0.0,0.0,-3.7245,-3.7416,-4.0527,-4.3585,-4.624,-4.674,-4.7796,-5.0059,-5.093,-5.2146,-5.3974,-5.5679,-5.69,-5.7338,-5.8588,-5.9415,-5.9415,-5.9415,-5.9415,-5.9415,-5.9018,-5.8539,-5.8212,-5.855,-5.8985,-5.9331,-5.9392,-5.9415,-5.9415,-5.9781,-6.0069,-6.0108,-6.0492,-6.08,-6.08,-6.1146,-6.1257,-6.0954,-6.1396,-6.1781,-6.1473,-6.1685,-6.1916,-6.1858,-6.1531,-6.1127,-6.0858,-6.1108,-6.1304,-6.2823,-6.275,-6.2053,-6.1759,-6.1741,-6.163,-6.1539,-6.1355,-5.9979,-5.9318,-5.9153,-5.8364,-5.7978,-5.7941,-5.7262,-5.6969,-5.6895,-5.6106,-5.5739,-5.5739,-5.5647,-5.5592,-5.5556,-5.4876,-5.4546,-5.4509,-5.3849,-5.3096,-5.2325,-5.2307,-5.1885,-5.1132,-5.1114,-5.1114,-5.1151,-5.182,-5.1363,-4.9763,-4.8914,-4.8471,-4.8453,-4.7003,-4.6104,-4.5847,-4.4525,-4.3369,-4.2506,-4.2556,-4.2632,-4.2577,-4.1955,-4.1723,-4.1987,-3.9701,-3.7863,0.0,-3.5229,0.0,0.0,0.0,0.0,0.0,0.0,0.0,0.0,-4.0353,-4.1679,-4.3893,-4.7009,-4.9625,-5.1356,-5.2818,-5.407,-5.5075,-5.6536,-5.7511,-5.7689,-5.9042,-5.9973,-5.9973,-6.0646,-6.1108,-6.1127,-6.1127,-6.1127,-6.1108,-6.1093,-6.0785,-6.015,-5.9838,-5.9911,-6.0723,-6.08,-6.0589,-6.0666,-6.0839,-6.0973,-6.0973,-6.1151,-6.1108,-6.1228,-6.1757,-6.2026,-6.1469,-6.23,-6.2974,-6.2377,-6.282,-6.3243,-6.3185,-6.3243,-6.2878,-6.1685,-6.1766,-6.1939,-6.2823,-6.2787,-6.264,-6.2585,-6.253,-6.1869,-6.1227,-6.0603,-6.0309,-5.9813,-5.9171,-5.8345,-5.7978,-5.7978,-5.785,-5.7776,-5.774,-5.6932,-5.6583,-5.6547,-5.5886,-5.5592,-5.5574,-5.5445,-5.5372,-5.5354,-5.5207,-5.4711,-5.3959,-5.3959,-5.3537,-5.2784,-5.2747,-5.2766,-5.2766,0.0,0.0,0.0,-4.9774,-4.9331,-4.9315,-4.8379,-4.7223,-4.5957,-4.5608,0.0,-4.3369,-4.3907,-4.422,-4.4265,-4.4107,0.0,0.0,0.0,0.0,0.0,0.0,0.0,0.0,0.0,0.0,0.0,-4.4355,-4.367,-4.2387,-4.6052,-4.8741,-4.9279,-5.1702,-5.3972,-5.5626,-5.6069,-5.6898,-5.8402,-5.9463,-6.0342,-6.106,-6.1969,-6.2589,-6.2589,-6.2724,-6.282,-6.2762,-6.2839,-6.2801,-6.2724,-6.2805,-6.2775,-6.2544,-6.1381,-6.0666,-6.0781,-6.0935,-6.0839,-6.08,-6.1416,-6.1839,-6.1916,-6.2444,-6.2733,-6.2733,-6.2902,-6.3084,-6.2771,-6.3103,-6.332,-6.3108,-6.3205,-6.3416,-6.332,-6.3878,-6.4051,-6.3051,-6.2964,-6.3022,-6.2823,0.0,-6.2823,-6.2823,0.0,-6.2383,-6.1979,-6.1539,-6.075,-6.0181,-5.9777,-5.9383,-5.92,-5.9153,-5.8767,-5.8621,-5.8565,-5.7758,-5.7391,-5.7373,-5.6969,-5.6767,-5.6785,-5.6392,-5.6171,-5.618,-5.5776,-5.539,-5.5005,-5.4987,-5.4785,-5.4381,-5.3995,-5.3794,-5.3794,-5.3408,-5.2595,-5.1399,-5.0597,-4.9994,-4.9572,-4.8765,-4.7737,-4.6562,0.0,0.0,0.0,0.0,0.0,0.0,0.0,0.0,0.0,0.0,0.0,-4.5698,-4.5052,-4.4977,-4.5781,-4.6742,-4.8183,-5.0257,-5.1337,-5.0759,-4.8142,-5.1545,-5.3799,-5.3837,-5.5742,-5.7492,-5.8723,-5.9242,-6.0035,-6.1212,-6.177,-6.2224,-6.2636,-6.3059,-6.3295,-6.3301,-6.3301,-6.3301,-6.3301,-6.3301,-6.3301,-6.3301,-6.3306,-6.333,-6.3253,-6.2613,-6.205,-6.2031,-6.2031,-6.2031,-6.207,-6.2358,-6.2685,-6.2743,-6.3036,-6.3248,-6.3286,-6.3666,-6.3834,-6.3476,-6.3968,-6.4474,-6.4089,-6.4282,-6.4589,-6.4628,-6.4936,-6.5128,-6.4628,-6.4224,-6.3806,-6.3044,-6.3025,-6.2879,-6.2823,-6.2823,-6.2823,-6.2823,-6.2713,0.0,0.0,0.0,-6.0456,-6.0382,-6.0346,-5.9722,-5.941,-5.9373,-5.8731,-5.8345,-5.8217,-5.8198,-5.8143,-5.7978,-5.7299,-5.7006,-5.6987,-5.6345,-5.5959,-5.5812,-5.5794,-5.5721,-5.5537,-5.4913,-5.4528,-5.4387,-5.3739,-5.3017,-5.2218,-5.1422,-5.0692,-4.9994,-4.9187,-4.8288,-4.7352,-4.6673,-4.5987,-4.5226,-4.5406,-4.535,-4.5065,-4.5247,-4.6195,-4.7969,-4.8267,-4.919,-5.0971,-5.1414,-5.1933,-5.276,-5.3606,-5.4531,-5.5537,-5.6893,-5.6668,-5.4281,-5.6313,-5.7665,-5.7684,-5.9204,-6.0454,-6.1166,-6.1858,-6.2632,-6.3449,-6.3517,-6.3565,-6.3732,-6.377,-6.3847,-6.3738,-6.3839,-6.3782,-6.3839,-6.3839,-6.3762,-6.3782,-6.3897,-6.3782,-6.3724,-6.3449,-6.3142,-6.3147,-6.307,-6.3224,-6.3301,-6.3455,-6.3512,-6.3551,-6.3685,-6.3762,-6.3878,-6.4353,-6.4487,-6.402,-6.5007,-6.5397,-6.5032,-6.534,-6.5859,-6.5878,-6.5878,-6.5878,-6.582,-6.5314,-6.4641,-6.3906,-6.3851,-6.3117,-6.2823,-6.2823,-6.2823,-6.2823,-6.2732,-6.1825,-6.1404,-6.1392,-6.0664,-6.0402,-6.0401,-6.0272,-6.0236,-6.0236,-6.0126,-5.9703,0.0,-5.9043,-5.8676,-5.7997,-5.7886,-5.785,-5.7831,-5.7703,-5.7299,-5.6693,-5.6638,-5.629,-5.5684,-5.5482,-5.5085,-5.4448,-5.4295,-5.3849,-5.3017,-5.2252,-5.1775,-5.1646,-5.0875,-4.9701,-4.8233,-4.8031,-4.6948,-4.4906,-4.5847,-4.6345,-4.6346,-4.7323,-4.846,-4.969,-5.0478,-5.1484,-5.2797,-5.4203,-5.5376,-5.6203,-5.7107,-5.8264,-5.9752,-6.0123,-5.9494,-5.7824,-5.9238,-6.0262,-6.03,-6.1723,-6.282,-6.2954,-6.3089,-6.3512,-6.4268,-6.4402,-6.471,-6.5359,-6.5455,-6.5416,-6.5397,-6.5532,-6.5455,-6.5378,-6.5416,-6.5378,-6.5474,-6.5243,-6.5455,-6.5166,-6.4232,-6.3405,-6.3295,-6.3301,-6.3301,-6.3551,-6.3993,-6.4359,-6.4436,-6.4993,-6.532,-6.532,-6.5455,-6.5532,-6.5493,-6.5686,-6.5782,-6.5667,-6.5782,-6.5878,-6.5878,-6.5878,-6.5878,-6.5878,-6.5724,-6.5609,-6.4751,-6.4695,-6.4328,-6.3925,-6.3466,-6.3007,-6.2823,-6.2787,-6.2425,-6.226,-6.2218,-6.1862,-6.1697,-6.1686,-6.1245,-6.1043,-6.1025,-6.0603,-6.0217,-5.9887,-5.9861,-5.9677,-5.9281,-5.8877,-5.8676,-5.8621,-5.8198,-5.7813,-5.7483,-5.7464,-5.7244,-5.6877,-5.6473,-5.5849,-5.5097,-5.5042,-5.4876,-5.4503,-5.3298,-5.2454,-5.2013,-5.1628,-5.0998,-4.9991,-4.9991,-4.97,-4.9006,-4.9533,-4.9916,-5.0164,-5.1173,-5.2158,-5.3099,-5.3958,-5.4905,-5.5915,-5.6684,-5.7684,-5.8992,-6.0285,-6.1328,-6.2082,-6.2142,-6.1862,-6.1094,-6.17,-6.2147,-6.2204,-6.3301,-6.4012,-6.4032,-6.4436,-6.4878,-6.5249,-6.5307,-6.548,-6.5801,-6.5878,-6.5878,-6.5878,-6.5878,-6.5878,-6.5878,-6.5878,-6.5878,-6.5878,-6.5897,-6.5897,-6.5878,-6.5237,-6.4699,-6.4724,-6.4705,-6.4724,-6.4705,-6.5013,-6.5282,-6.5301,-6.5628,-6.5859,-6.5878,-6.5878,-6.5878,-6.5878,-6.5878,-6.5878,-6.5878,-6.5878,-6.5878,-6.5878,-6.5878,-6.5878,-6.5878,-6.5878,-6.5878,-6.5576,-6.5576,-6.5393,-6.4934,-6.4292,-6.3466,-6.3099,-6.308,-6.2915,-6.2823,-6.2823,-6.2823,-6.2823,-6.275,-6.2144,-6.1869,-6.1777,-6.1245,-6.0841,-6.0676,-6.0669,-6.0596,-6.0364,-5.9711,-5.9436,-5.9428,-5.8822,-5.8529,-5.8529,-5.8364,-5.8162,-5.796,-5.7373,-5.6648,-5.5896,-5.5886,-5.5794,-5.5548,-5.4374,-5.3445,-5.2839,-5.2803,-5.2567,-5.2122,-5.2176,-5.2442,-5.2864,-5.3042,-5.3389,-5.3916,-5.466,-5.5429,-5.6252,-5.6912,-5.7764,-5.8704,-5.8858,-5.9608,-6.1243,-6.2555,-6.3368,-6.3584,-6.3584,-6.3668,-6.3866,-6.3872,-6.3801,-6.3724,-6.4378,-6.4897,-6.4955,-6.5436,-6.5878,-6.5878,-6.5878,-6.5974,-6.6147,-6.6186,-6.6282,-6.6397,-6.6474,-6.6494,-6.6455,-6.6474,-6.6436,-6.6263,-6.6167,-6.6109,-6.5936,-6.5878,-6.5878,-6.5878,-6.5878,-6.5801,-6.5878,-6.584,-6.584,-6.5878,-6.5878,-6.5878,-6.5878,-6.5878,-6.5878,-6.5878,-6.5878,-6.5878,-6.5878,-6.5878,-6.5878,-6.5878,-6.5878,-6.5878,-6.5878,-6.5878,-6.5878,-6.6402,-6.6292,-6.5668,-6.5264,-6.5118,-6.4328,-6.3961,-6.3833,-6.3172,-6.2823,-6.2823,-6.2823,-6.2823,-6.2805,-6.2713,-6.2658,-6.2658,-6.2622,-6.2163,-6.1539,-6.1484,-6.1098,-6.0511,-6.0346,-6.0291,-6.0272,-6.0162,-6.0034,-5.9997,-5.941,-5.8731,-5.807,-5.7905,-5.7519,-5.6822,-5.6712,-5.6345,-5.5629,-5.5445,-5.5335,-5.5262,-5.5262,-5.4902,-5.4173,-5.4535,-5.4429,-5.3949,-5.4476,-5.5261,-5.6045,-5.652,-5.7165,-5.7943,-5.8139,-5.8915,-6.0435,-6.0569,-6.13,-6.2878,-6.3218,-6.3685,-6.4383,-6.4493,-6.4814,-6.5551,-6.5647,-6.5301,-6.4897,-6.5301,-6.5686,-6.5782,-6.5878,-6.5974,-6.5994,-6.6032,-6.6167,-6.6852,-6.6961,-6.7295,-6.8109,-6.7975,-6.8148,-6.7975,-6.7975,-6.7744,-6.7077,-6.7,-6.6808,-6.6301,-6.6167,-6.607,-6.5974,-6.5917,-6.5917,-6.5897,-6.5878,-6.5878,-6.5878,-6.5878,-6.5878,-6.5878,-6.5878,-6.5878,-6.5878,-6.5878,-6.5878,-6.5878,-6.5878,-6.5878,-6.5878,-6.5878,-6.5878,-6.5878,-6.5878,-6.5878,-6.7192,-6.7173,-6.6861,-6.6439,-6.5925,-6.5154,-6.4549,-6.4053,-6.3718,-6.3296,-6.2842,-6.2823,-6.2823,-6.2823,-6.2823,-6.2823,-6.2823,-6.2823,-6.2658,-6.2328,-6.231,-6.2144,-6.1814,-6.1318,-6.1098,-6.1043,-6.0639,-6.0401,-6.0346,-6.007,-5.9758,-5.9391,-5.8969,-5.8565,-5.8198,-5.7758,-5.7354,-5.7042,-5.7285,-5.7418,-5.7325,-5.6473,-5.5967,-5.594,-5.6327,-5.66,-5.654,-5.6828,-5.7143,-5.7513,-5.8131,-5.8873,-5.973,-6.0253,-6.1046,-6.2185,-6.2762,-6.3339,-6.4032,-6.4551,-6.4974,-6.5365,-6.5378,-6.5699,-6.6506,-6.6628,-6.6628,-6.6782,-6.6282,-6.5878,-6.5955,-6.632,-6.659,-6.6673,-6.7064,-6.75,-6.7795,-6.7864,-6.8037,-6.8379,-6.8398,-6.8417,-6.8398,-6.8398,-6.8244,-6.7924,-6.7866,-6.7699,-6.7378,-6.7378,-6.7128,-6.6744,-6.6609,-6.6378,-6.6032,-6.5878,-6.5878,-6.5878,-6.5878,-6.5878,-6.5917,-6.5897,-6.5878,-6.5917,-6.5955,-6.5936,-6.5878,-6.5878,-6.5878,-6.5955,-6.5897,-6.5878,-6.5878,-6.5878,-6.5878,-6.7669,-6.7669,-6.7669,-6.7357,-6.6769,-6.598,-6.5301,-6.4751,-6.454,-6.4099,-6.3503,-6.3282,-6.3172,-6.3135,-6.2934,-6.2823,-6.2823,-6.2823,-6.2823,-6.2823,-6.2823,-6.2805,-6.275,-6.2236,-6.1924,-6.1832,-6.1374,-6.097,-6.0768,-6.0731,-6.0621,-6.0346,-5.9813,-5.9538,-5.9483,-5.8914,-5.8731,-5.8895,-5.9237,-5.9446,-5.9437,-5.854,-5.7895,-5.7687,-5.803,-5.8448,-5.8793,-5.9115,-5.9338,-5.9358,-6.0127,-6.0815,-6.1464,-6.2098,-6.279,-6.3628,-6.4493,-6.507,-6.5263,-6.5878,-6.632,-6.6538,-6.659,-6.684,-6.7314,-6.7455,-6.7725,-6.8129,-6.7282,-6.6647,-6.6647,-6.7109,-6.7417,-6.75,-6.8065,-6.8443,-6.8725,-6.8748,-6.8844,-6.9052,-6.9263,-6.909,-6.9109,-6.9148,-6.9129,-6.884,-6.8751,-6.8597,-6.8475,-6.8314,-6.8102,-6.7571,-6.7475,-6.6994,-6.6147,-6.5878,-6.5878,-6.5974,-6.6032,-6.6301,-6.6282,-6.6359,-6.634,-6.6609,-6.6359,-6.6109,-6.6013,-6.5955,-6.6397,-6.6436,-6.632,-6.6128,-6.6288,-6.609,-6.5917,-6.7669,-6.7669,-6.7669,-6.765,-6.7559,-6.6788,-6.6402,-6.6182,-6.5555,-6.5206,-6.4989,-6.4351,-6.4039,-6.398,-6.3282,-6.2842,-6.2823,-6.2823,-6.2823,-6.2823,-6.2823,-6.2823,-6.2823,-6.2787,-6.2732,-6.2658,-6.2548,-6.2181,-6.1575,-6.1539,-6.1153,-6.0493,-6.0449,-6.0346,-6.0375,-6.0294,-6.0526,-6.0832,-6.0957,-6.1256,-6.1653,-6.2007,-6.1147,-5.9616,-5.9771,-6.0046,-6.0198,-6.1243,-6.1877,-6.1905,-6.254,-6.3079,-6.3166,-6.3271,-6.3751,-6.4551,-6.5397,-6.6205,-6.684,-6.7013,-6.7346,-6.8046,-6.8078,-6.8263,-6.8314,-6.834,-6.8436,-6.8456,-6.8456,-6.8302,-6.8282,-6.8302,-6.8359,-6.8359,-6.8417,-6.8879,-6.9563,-6.964,-7.0025,-7.0494,-7.0571,-7.0494,-7.0648,-7.0802,-7.0302,-6.9833,-6.964,-6.9429,-6.8825,-6.8575,-6.8498,-6.841,-6.8244,-6.7782,-6.634,-6.607,-6.6032,-6.6128,-6.6551,-6.7013,-6.7321,-6.7539,-6.7462,-6.7346,-6.7167,-6.684,-6.634,-6.6532,-6.7282,-6.734,-6.6763,-6.659,-6.6711,-6.6288,-6.6128,-6.7669,-6.7669,-6.7669,-6.7669,-6.765,-6.7375,-6.6971,-6.6494,-6.6184,-6.5744,-6.5319,-6.4974,-6.4864,-6.4842,-6.4549,-6.3833,-6.2879,-6.2823,-6.2823,-6.2823,-6.2823,-6.2823,-6.2823,-6.2823,-6.2823,-6.2823,-6.2823,-6.2677,-6.242,-6.2383,-6.2236,-6.1985,-6.1763,-6.1667,-6.1663,-6.1461,-6.1464,-6.1657,-6.1951,-6.2193,-6.2414,-6.2796,-6.2621,-6.1955,-6.2046,-6.2145,-6.2145,-6.2611,-6.2858,-6.2858,-6.3171,-6.3551,-6.4161,-6.516,-6.5853,-6.6224,-6.7013,-6.7648,-6.7898,-6.7936,-6.8052,-6.8328,-6.8379,-6.8725,-6.9102,-6.9244,-6.9436,-6.984,-6.9975,-7.0014,-6.9898,-6.9552,-6.9225,-6.9309,-6.9687,-7.0052,-7.0379,-7.0448,-7.061,-7.0841,-7.0898,-7.0898,-7.0898,-7.0898,-7.0783,-7.0552,-7.0448,-7.0275,-7.0102,-7.0006,-6.9756,-6.9379,-6.9206,-6.884,-6.7744,-6.6974,-6.6686,-6.6724,-6.6994,-6.7455,-6.7821,-6.8186,-6.8205,-6.8102,-6.7948,-6.7878,-6.7475,-6.7398,-6.8129,-6.8225,-6.7628,-6.7167,-6.7116,-6.6942,-6.6782,-6.7669,-6.7669,-6.7669,-6.7669,-6.7669,-6.7669,-6.7393,-6.6916,-6.6881,-6.6588,-6.6127,-6.5836,-6.5689,-6.565,-6.543,-6.4751,-6.3686,-6.3631,-6.3484,-6.3227,-6.3227,-6.308,-6.2842,-6.2823,-6.2823,-6.2823,-6.2823,-6.2904,-6.3044,-6.3044,-6.3121,-6.3307,-6.3145,-6.305,-6.3019,-6.2824,-6.278,-6.2955,-6.3258,-6.3482,-6.3667,-6.3962,-6.4147,-6.4128,-6.4147,-6.3839,-6.3358,-6.357,-6.3705,-6.3743,-6.3974,-6.4507,-6.543,-6.6474,-6.7225,-6.7532,-6.8052,-6.8552,-6.8783,-6.884,-6.8936,-6.9186,-6.9225,-6.9494,-7.0006,-7.011,-7.0379,-7.0764,-7.0898,-7.0898,-7.0802,-7.0398,-7.009,-7.0136,-7.0552,-7.0898,-7.0898,-7.0879,-7.0879,-7.0879,-7.0898,-7.0898,-7.0898,-7.0898,-7.0879,-7.0898,-7.0898,-7.0898,-7.0898,-7.0879,-7.0764,-7.0225,-7.009,-6.9687,-6.8956,-6.8321,-6.7763,-6.7705,-6.7917,-6.8263,-6.8552,-6.8879,-6.8967,-6.8863,-6.8806,-6.8814,-6.8744,-6.8571,-6.8706,-6.8994,-6.8552,-6.7955,-6.7859,-6.7763,-6.7628,-6.7669,-6.7669,-6.7669,-6.7669,-6.7669,-6.7669,-6.7669,-6.7595,-6.7614,-6.7504,-6.7283,-6.6845,-6.6533,-6.6384,-6.5852,-6.5375,-6.5338,-6.5319,-6.4787,-6.4035,-6.4071,-6.3649,-6.297,-6.2952,-6.2978,-6.299,-6.2855,-6.3158,-6.368,-6.3668,-6.385,-6.4274,-6.4275,-6.4219,-6.4351,-6.4273,-6.4563,-6.4807,-6.4894,-6.5197,-6.5788,-6.5686,-6.5647,-6.5705,-6.5686,-6.5032,-6.3589,-6.4224,-6.4609,-6.4691,-6.5403,-6.6237,-6.6891,-6.7263,-6.7552,-6.8302,-6.8494,-6.8917,-6.959,-6.9706,-7.0014,-7.0456,-7.0764,-7.0667,-7.0706,-7.0783,-7.0821,-7.086,-7.0898,-7.0898,-7.0898,-7.0821,-7.0783,-7.086,-7.0879,-7.0879,-7.0898,-7.0898,-7.0898,-7.0898,-7.0898,-7.0898,-7.0898,-7.0898,-7.0898,-7.0898,-7.0898,-7.0898,-7.0898,-7.0898,-7.0898,-7.0841,-7.0687,-7.0302,-6.9975,-6.9648,-6.9129,-6.8783,-6.909,-6.9379,-6.961,-6.9879,-6.9917,-6.9813,-6.9679,-6.9687,-6.9629,-6.9494,-6.9629,-6.9725,-6.9186,-6.884,-6.8744,-6.8667,-6.8513,-6.7669,-6.7669,-6.7669,-6.7669,-6.7669,-6.7669,-6.7669,-6.7669,-6.7669,-6.7669,-6.7632,-6.7448,-6.7338,-6.7265,-6.7026,-6.6935,-6.6953,-6.6898,-6.5944,-6.4475,-6.4677,-6.4494,-6.3815,-6.3681,-6.3881,-6.4072,-6.361,-6.3954,-6.4716,-6.4439,-6.4255,-6.4426,-6.475,-6.4866,-6.4919,-6.523,-6.5542,-6.5616,-6.5663,-6.5736,-6.5878,-6.5897,-6.5897,-6.5878,-6.5878,-6.582,-6.5897,-6.5667,-6.5493,-6.5538,-6.6269,-6.7135,-6.7917,-6.8571,-6.9013,-6.9321,-6.984,-7.0187,-7.0437,-7.0514,-7.0591,-7.0841,-7.0898,-7.0898,-7.0898,-7.0898,-7.0898,-7.0898,-7.0898,-7.0898,-7.0898,-7.0898,-7.0898,-7.0898,-7.0898,-7.0898,-7.0898,-7.0898,-7.0898,-7.0898,-7.0898,-7.0898,-7.0898,-7.0898,-7.0898,-7.0898,-7.0898,-7.0898,-7.0898,-7.0898,-7.0898,-7.0898,-7.086,-7.0841,-7.0514,-7.0283,-7.0033,-6.9648,-6.9821,-7.0033,-7.0341,-7.0514,-7.0591,-7.0591,-7.0475,-7.0417,-7.0379,-7.0379,-7.0417,-7.0494,-7.0187,-6.9937,-6.9744,-6.9552,-6.936,-6.7669,-6.7669,-6.7669,-6.7669,-6.7669,-6.7669,-6.7669,-6.7669,-6.7669,-6.7669,-6.7669,-6.7669,-6.7669,-6.7669,-6.7669,-6.7669,-6.7669,-6.7669,-6.6714,-6.5246,-6.5448,-6.5301,-6.4655,-6.4771,-6.4983,-6.5248,-6.4976,-6.5344,-6.6217,-6.5552,-6.5205,-6.5408,-6.5433,-6.5398,-6.5417,-6.5736,-6.5878,-6.5917,-6.6205,-6.634,-6.6417,-6.6667,-6.684,-6.6821,-6.6821,-6.7071,-6.7513,-6.709,-6.6821,-6.6904,-6.7321,-6.7994,-6.8814,-6.9417,-6.984,-7.0206,-7.0571,-7.0879,-7.0898,-7.086,-7.0898,-7.0898,-7.0898,-7.0898,-7.0898,-7.0898,-7.0898,-7.0898,-7.0898,-7.0898,-7.0898,-7.0898,-7.0898,-7.0898,-7.0898,-7.0898,-7.0898,-7.0898,-7.0898,-7.0898,-7.0898,-7.0898,-7.0898,-7.0898,-7.0898,-7.0898,-7.0898,-7.0898,-7.0898,-7.0898,-7.0898,-7.0898,-7.0879,-7.0879,-7.0898,-7.0841,-7.086,-7.061,-7.0417,-7.0514,-7.0687,-7.0744,-7.0802,-7.0783,-7.0706,-7.0687,-7.0648,-7.0706,-7.0764,-7.0879,-7.0898,-7.0648,-7.0302,-7.0264,-7.0129,-6.7669,-6.7669,-6.7669,-6.7669,-6.7669,-6.7669,-6.7669,-6.7669,-6.7669,-6.7669,-6.7669,-6.7669,-6.7669,-6.7669,-6.7669,-6.7669,-6.7669,-6.7669,-6.732,-6.6694,-6.6599,-6.6231,-6.5662,-6.6007,-6.6308,-6.6428,-6.6617,-6.7104,-6.7649,-6.6904,-6.6708,-6.6965,-6.6454,-6.609,-6.623,-6.609,-6.6244,-6.6378,-6.6878,-6.7167,-6.7186,-6.7859,-6.8282,-6.8244,-6.8225,-6.8282,-6.8436,-6.8513,-6.852,-6.8469,-6.8429,-6.8863,-6.9583,-6.9783,-7.0167,-7.0744,-7.0879,-7.0898,-7.0898,-7.1071,-7.1091,-7.111,-7.1225,-7.1052,-7.1302,-7.1379,-7.1302,-7.1148,-7.1091,-7.1052,-7.1071,-7.1091,-7.111,-7.1071,-7.1052,-7.0937,-7.0898,-7.0898,-7.0898,-7.0898,-7.0898,-7.0898,-7.0898,-7.0898,-7.0898,-7.0898,-7.0898,-7.0898,-7.0898,-7.0898,-7.0898,-7.0898,-7.0898,-7.0898,-7.0898,-7.0898,-7.0898,-7.0841,-7.0687,-7.0764,-7.0841,-7.0879,-7.0898,-7.0898,-7.0898,-7.0898,-7.0898,-7.0898,-7.0898,-7.0898,-7.0898,-7.0898,-7.0821,-7.0687,-7.0629,-6.7669,-6.7669,-6.7669,-6.7669,-6.7669,-6.7669,-6.7669,-6.7669,-6.7669,-6.7669,-6.7669,-6.7669,-6.7669,-6.7669,-6.7669,-6.7669,-6.7669,-6.7669,-6.7632,-6.75,-6.7833,-6.7497,-6.7022,-6.7341,-6.7789,-6.8018,-6.7774,-6.8005,-6.9002,-6.8253,-6.7925,-6.8052,-6.7782,-6.7686,-6.7744,-6.7648,-6.7744,-6.7763,-6.7898,-6.8071,-6.809,-6.8282,-6.8398,-6.8398,-6.8456,-6.8783,-6.936,-6.9937,-6.9898,-6.9386,-6.9379,-6.9736,-7.0429,-7.0533,-7.0667,-7.0898,-7.0937,-7.0937,-7.1071,-7.1533,-7.1822,-7.1926,-7.233,-7.2811,-7.2822,-7.2783,-7.2495,-7.2072,-7.186,-7.186,-7.186,-7.186,-7.2138,-7.2569,-7.1772,-7.1033,-7.0956,-7.0898,-7.0898,-7.0898,-7.0898,-7.0898,-7.0898,-7.0898,-7.0898,-7.0898,-7.0898,-7.0898,-7.0898,-7.0898,-7.0898,-7.0898,-7.0898,-7.0898,-7.0898,-7.0898,-7.0898,-7.0898,-7.0841,-7.0841,-7.0879,-7.0879,-7.0898,-7.0898,-7.0898,-7.0898,-7.0898,-7.0898,-7.0898,-7.0898,-7.0898,-7.0898,-7.0898,-7.0821,-7.0802,-6.7669,-6.7669,-6.7669,-6.7669,-6.7669,-6.7669,-6.7669,-6.7669,-6.7669,-6.7669,-6.7669,-6.7669,-6.7669,-6.7669,-6.7669,-6.7669,-6.7669,-6.7669,-6.7792,-6.8161,-6.8784,-6.8728,-6.8416,-6.8714,-6.9089,-6.9365,-6.9116,-6.9452,-6.9929,-6.936,-6.8975,-6.8859,-6.859,-6.8398,-6.8321,-6.8398,-6.8417,-6.8436,-6.8725,-6.8956,-6.8936,-6.9302,-6.9456,-6.9456,-6.9456,-6.9744,-7.0244,-7.0648,-7.0648,-7.0283,-7.0244,-7.0429,-7.0841,-7.0898,-7.1052,-7.136,-7.1437,-7.1591,-7.1995,-7.2495,-7.2706,-7.2811,-7.3273,-7.3437,-7.3447,-7.3486,-7.3178,-7.2841,-7.2764,-7.2745,-7.2745,-7.2745,-7.2956,-7.3215,-7.2572,-7.1841,-7.1495,-7.1475,-7.1264,-7.1052,-7.0898,-7.0898,-7.0898,-7.0918,-7.0898,-7.0898,-7.0898,-7.0898,-7.0898,-7.0898,-7.0898,-7.0898,-7.0898,-7.0898,-7.0898,-7.0898,-7.0898,-7.0898,-7.0898,-7.0898,-7.0898,-7.0898,-7.0898,-7.0898,-7.0898,-7.0898,-7.0898,-7.0898,-7.0898,-7.0898,-7.0898,-7.0898,-7.0898,-7.0898,-7.0898,-6.7669,-6.7669,-6.7669,-6.7669,-6.7669,-6.7669,-6.7669,-6.7669,-6.7669,-6.7669,-6.7669,-6.7669,-6.7669,-6.7669,-6.7669,-6.7669,-6.7669,-6.781,-6.8259,-6.8821,-6.9531,-6.9714,-6.9524,-6.9817,-7.0049,-7.017,-7.0687,-7.0717,-7.061,-7.0071,-6.984,-6.9687,-6.9109,-6.8783,-6.8956,-6.884,-6.8706,-6.8975,-6.9513,-6.9802,-6.9898,-7.0321,-7.0552,-7.0571,-7.0591,-7.0629,-7.0802,-7.1014,-7.1052,-7.1052,-7.0956,-7.0956,-7.1014,-7.1071,-7.1495,-7.2149,-7.236,-7.2629,-7.3303,-7.3437,-7.363,-7.3649,-7.3745,-7.3755,-7.3957,-7.4034,-7.3947,-7.3649,-7.363,-7.361,-7.3649,-7.3659,-7.3918,-7.4034,-7.3822,-7.336,-7.2696,-7.2407,-7.2033,-7.1321,-7.1225,-7.1168,-7.1052,-7.1033,-7.1033,-7.0898,-7.0898,-7.0898,-7.0898,-7.0898,-7.0898,-7.0898,-7.0898,-7.0898,-7.0898,-7.0898,-7.0898,-7.0898,-7.0898,-7.0898,-7.0898,-7.0898,-7.0898,-7.0898,-7.0898,-7.0898,-7.0898,-7.0898,-7.0898,-7.0898,-7.0898,-7.0898,-7.0898,-7.0898,-7.0898,-6.7669,-6.7669,-6.7669,-6.7669,-6.7669,-6.7669,-6.7669,-6.7669,-6.7669,-6.7669,-6.7669,-6.7669,-6.7669,-6.7669,-6.7741,-6.7669,-6.781,-6.8179,-6.8821,-6.9738,-6.9938,-7.0311,-7.0428,-7.0633,-7.07,-7.0744,-7.0821,-7.0898,-7.0802,-7.0706,-7.0629,-7.0533,-7.0302,-7.0341,-7.0244,-7.0129,-7.036,-7.0379,-7.0533,-7.0552,-7.0552,-7.0744,-7.0898,-7.0898,-7.0956,-7.0937,-7.1052,-7.1572,-7.1898,-7.1772,-7.1398,-7.1379,-7.1794,-7.1937,-7.2341,-7.2976,-7.3226,-7.3322,-7.3591,-7.413,-7.4457,-7.4524,-7.4938,-7.5457,-7.5476,-7.5351,-7.5043,-7.4649,-7.4457,-7.4457,-7.4476,-7.5091,-7.5226,-7.5245,-7.5265,-7.5014,-7.4274,-7.361,-7.3129,-7.2918,-7.2803,-7.2687,-7.2014,-7.186,-7.161,-7.1091,-7.0898,-7.0898,-7.0898,-7.0898,-7.0898,-7.0898,-7.0898,-7.0898,-7.0898,-7.0898,-7.0898,-7.0898,-7.0898,-7.0898,-7.0898,-7.0898,-7.0898,-7.0898,-7.0898,-7.0898,-7.0898,-7.0898,-7.0898,-7.0898,-7.0898,-7.0898,-7.0898,-7.0898,-7.0898,-6.7669,-6.7669,-6.7669,-6.7669,-6.7669,-6.7669,-6.7669,-6.7669,-6.7669,-6.7669,-6.7669,-6.7669,-6.7669,-6.7722,-6.793,-6.8097,-6.8259,-6.8891,-6.9531,-7.0095,-7.033,-7.0622,-7.0805,-7.0898,-7.0898,-7.0898,-7.0898,-7.0898,-7.0898,-7.0898,-7.086,-7.0898,-7.0898,-7.0783,-7.0898,-7.0898,-7.0841,-7.0821,-7.0898,-7.0898,-7.0898,-7.0898,-7.0898,-7.1033,-7.1264,-7.1514,-7.1591,-7.2379,-7.2745,-7.2687,-7.2379,-7.2302,-7.2678,-7.2822,-7.3245,-7.388,-7.4072,-7.4322,-7.4687,-7.5034,-7.5303,-7.5284,-7.5765,-7.5899,-7.5995,-7.5995,-7.5822,-7.5438,-7.5303,-7.5303,-7.5322,-7.5592,-7.5957,-7.5995,-7.5995,-7.5784,-7.5303,-7.4591,-7.388,-7.3649,-7.338,-7.3226,-7.2937,-7.2668,-7.2206,-7.1706,-7.0994,-7.0956,-7.0898,-7.0898,-7.0898,-7.0898,-7.0898,-7.0898,-7.0898,-7.0898,-7.0898,-7.0898,-7.0898,-7.0898,-7.0898,-7.0898,-7.0898,-7.0898,-7.0898,-7.0898,-7.0898,-7.0898,-7.0898,-7.0898,-7.0898,-7.0898,-7.0898,-7.0898,-7.0898,-6.7669,-6.7669,-6.7669,-6.7669,-6.7669,-6.7669,-6.7669,-6.7669,-6.7669,-6.7669,-6.7669,-6.7669,-6.7669,-6.781,-6.8259,-6.8539,-6.8978,-6.9531,-7.0095,-7.033,-7.0652,-7.0824,-7.0898,-7.0898,-7.0898,-7.0898,-7.0898,-7.0898,-7.0898,-7.0898,-7.0898,-7.0898,-7.0898,-7.0898,-7.0898,-7.0898,-7.0898,-7.0898,-7.0898,-7.0898,-7.0898,-7.0918,-7.0956,-7.1321,-7.1706,-7.2225,-7.2476,-7.3168,-7.3687,-7.3687,-7.3822,-7.388,-7.3841,-7.3764,-7.4053,-7.4803,-7.4899,-7.5149,-7.5553,-7.5842,-7.5899,-7.5995,-7.5995,-7.5995,-7.5995,-7.5995,-7.5938,-7.5957,-7.5861,-7.5861,-7.5995,-7.5976,-7.5976,-7.5995,-7.5995,-7.5995,-7.5861,-7.5322,-7.4687,-7.4226,-7.4264,-7.4207,-7.3726,-7.3341,-7.2822,-7.2283,-7.1572,-7.1091,-7.1091,-7.0956,-7.0994,-7.0918,-7.0898,-7.0898,-7.0898,-7.0898,-7.0898,-7.0898,-7.0898,-7.0898,-7.0898,-7.0898,-7.0898,-7.0898,-7.0898,-7.0898,-7.0898,-7.0898,-7.0898,-7.0898,-7.0898,-7.0898,-7.0898,-7.0898,-7.0898,-6.7669,-6.7669,-6.7669,-6.7669,-6.7669,-6.7669,-6.7669,-6.7669,-6.7669,-6.7669,-6.7669,-6.7669,-6.7669,-6.7844,-6.8278,-6.8935,-6.9682,-7.0129,-7.0381,-7.0652,-7.0871,-7.0898,-7.0898,-7.0898,-7.0898,-7.0898,-7.0898,-7.0898,-7.0898,-7.0898,-7.0898,-7.0898,-7.0898,-7.0898,-7.0898,-7.0898,-7.0898,-7.0898,-7.0898,-7.0898,-7.0898,-7.1033,-7.1302,-7.1822,-7.2264,-7.2706,-7.3341,-7.4034,-7.4514,-7.4581,-7.5188,-7.5457,-7.5303,-7.4822,-7.4957,-7.5438,-7.5649,-7.5765,-7.5957,-7.5995,-7.5995,-7.5995,-7.5995,-7.5995,-7.5995,-7.5995,-7.5995,-7.5995,-7.5995,-7.5995,-7.5995,-7.5995,-7.5995,-7.5995,-7.5995,-7.5995,-7.5957,-7.5784,-7.5592,-7.5265,-7.5284,-7.5207,-7.463,-7.411,-7.3668,-7.3129,-7.2456,-7.2072,-7.1975,-7.1591,-7.1206,-7.1071,-7.0898,-7.0898,-7.0898,-7.0898,-7.0898,-7.0898,-7.0898,-7.0898,-7.0898,-7.0898,-7.0898,-7.0898,-7.0898,-7.0898,-7.0898,-7.0898,-7.0898,-7.0898,-7.0898,-7.0898,-7.0898,-7.0898,-7.0898,-6.732,-6.7669,-6.7669,-6.7669,-6.7669,-6.7669,-6.7669,-6.7669,-6.7669,-6.7669,-6.7669,-6.7669,-6.7669,-6.793,-6.8567,-6.9492,-7.0247,-7.0524,-7.0671,-7.0898,-7.0898,-7.0898,-7.0898,-7.0898,-7.0898,-7.0898,-7.0898,-7.0898,-7.0898,-7.0898,-7.0898,-7.0898,-7.0898,-7.0898,-7.0898,-7.0898,-7.0898,-7.0898,-7.0918,-7.0937,-7.0994,-7.1302,-7.186,-7.2225,-7.3053,-7.3687,-7.413,-7.4938,-7.5361,-7.5438,-7.5745,-7.5938,-7.5861,-7.5726,-7.5534,-7.5899,-7.5995,-7.5995,-7.5995,-7.5995,-7.5995,-7.5995,-7.5995,-7.5995,-7.5995,-7.5995,-7.5995,-7.5995,-7.5995,-7.5995,-7.5995,-7.5995,-7.5995,-7.5995,-7.5995,-7.5995,-7.5995,-7.5995,-7.5995,-7.5995,-7.5803,-7.5592,-7.5457,-7.4976,-7.4553,-7.3976,-7.3341,-7.3053,-7.2879,-7.2418,-7.1898,-7.1822,-7.1668,-7.1225,-7.1129,-7.0937,-7.0918,-7.0898,-7.0898,-7.0898,-7.0898,-7.0898,-7.0898,-7.0898,-7.0898,-7.0898,-7.0898,-7.0898,-7.0898,-7.0898,-7.0898,-7.0898,-7.0898,-7.0898,-7.0898,-6.71,-6.7669,-6.7669,-6.7669,-6.7669,-6.7669,-6.7669,-6.7669,-6.7669,-6.7669,-6.7669,-6.7669,-6.7757,-6.8129,-6.8997,-6.9992,-7.0852,-7.0871,-7.0898,-7.0898,-7.0898,-7.0898,-7.0898,-7.0898,-7.0898,-7.0898,-7.0898,-7.0898,-7.0898,-7.0898,-7.0898,-7.0898,-7.0898,-7.0898,-7.0898,-7.0898,-7.0898,-7.0956,-7.1129,-7.1206,-7.1572,-7.2072,-7.2572,-7.2726,-7.4014,-7.4707,-7.5034,-7.5534,-7.5842,-7.5899,-7.5957,-7.5995,-7.5995,-7.5995,-7.5995,-7.5995,-7.5995,-7.5995,-7.5995,-7.5995,-7.5995,-7.5995,-7.5995,-7.5995,-7.5995,-7.5995,-7.5995,-7.5995,-7.5995,-7.5995,-7.5995,-7.5995,-7.5995,-7.5995,-7.5995,-7.5995,-7.5995,-7.5995,-7.5995,-7.5995,-7.5995,-7.5899,-7.5726,-7.5649,-7.5188,-7.488,-7.4245,-7.388,-7.3668,-7.3332,-7.2947,-7.2899,-7.2591,-7.1841,-7.1437,-7.1033,-7.0956,-7.0898,-7.0898,-7.0898,-7.0898,-7.0898,-7.0898,-7.0898,-7.0898,-7.0898,-7.0898,-7.0898,-7.0898,-7.0898,-7.0898,-7.0898,-7.0898,-7.0898,-7.0898,-6.7595,-6.7669,-6.7669,-6.7669,-6.7669,-6.7669,-6.7669,-6.7669,-6.7669,-6.7669,-6.7776,-6.7776,-6.8014,-6.8614,-6.9511,-7.0298,-7.0748,-7.0898,-7.0898,-7.0898,-7.0898,-7.0898,-7.0898,-7.0898,-7.0898,-7.0956,-7.0956,-7.0898,-7.0975,-7.0975,-7.1014,-7.1052,-7.1014,-7.0937,-7.1091,-7.0956,-7.0898,-7.1052,-7.164,-7.2351,-7.2976,-7.3245,-7.3687,-7.4168,-7.463,-7.5072,-7.5611,-7.5918,-7.5976,-7.5995,-7.5995,-7.5995,-7.5995,-7.5995,-7.5995,-7.5995,-7.5995,-7.5995,-7.5995,-7.5995,-7.5995,-7.5995,-7.5995,-7.5995,-7.5995,-7.5995,-7.5995,-7.5995,-7.5995,-7.5995,-7.5995,-7.5995,-7.5995,-7.5995,-7.5995,-7.5995,-7.5995,-7.5995,-7.5995,-7.5995,-7.5995,-7.5995,-7.5899,-7.5899,-7.5822,-7.5534,-7.5207,-7.4803,-7.4514,-7.4216,-7.3793,-7.3668,-7.336,-7.2668,-7.1841,-7.1418,-7.1091,-7.0975,-7.0898,-7.0898,-7.0898,-7.0898,-7.0898,-7.0898,-7.0898,-7.0898,-7.0898,-7.0898,-7.0898,-7.0898,-7.0898,-7.0898,-7.0898,-7.0898,-7.0898,-6.7669,-6.7669,-6.7669,-6.7669,-6.7669,-6.7669,-6.7669,-6.7669,-6.7669,-6.7897,-6.8097,-6.8129,-6.8614,-6.9374,-6.9973,-7.0381,-7.0824,-7.0898,-7.0898,-7.0898,-7.0898,-7.0898,-7.0898,-7.0898,-7.0898,-7.1014,-7.136,-7.1687,-7.1514,-7.1245,-7.1245,-7.211,-7.1437,-7.1225,-7.1398,-7.111,-7.0956,-7.1121,-7.1727,-7.2611,-7.339,-7.3957,-7.4341,-7.4726,-7.5149,-7.5592,-7.5861,-7.5995,-7.5995,-7.5995,-7.5995,-7.5995,-7.5995,-7.5995,-7.5995,-7.5995,-7.5995,-7.5995,-7.5995,-7.5995,-7.5995,-7.5995,-7.5995,-7.5995,-7.5995,-7.5995,-7.5995,-7.5995,-7.5995,-7.5995,-7.5995,-7.5995,-7.5995,-7.5995,-7.5995,-7.5995,-7.5995,-7.5995,-7.5995,-7.5995,-7.5995,-7.5995,-7.5995,-7.5976,-7.5938,-7.5803,-7.5649,-7.5476,-7.5361,-7.5341,-7.4822,-7.4264,-7.3918,-7.3456,-7.2552,-7.186,-7.1398,-7.1187,-7.0918,-7.0918,-7.0898,-7.0898,-7.0898,-7.0918,-7.0937,-7.0918,-7.0918,-7.0898,-7.0898,-7.0898,-7.0898,-7.0898,-7.0898,-7.0898,-7.0898,-6.7504,-6.7669,-6.7669,-6.7669,-6.7669,-6.7669,-6.7669,-6.7687,-6.7863,-6.8121,-6.8517,-6.8772,-6.9372,-6.9973,-7.0247,-7.0573,-7.0898,-7.0898,-7.0898,-7.0898,-7.0898,-7.0898,-7.0898,-7.0898,-7.0898,-7.0898,-7.1341,-7.1783,-7.1879,-7.1764,-7.2072,-7.336,-7.1629,-7.1475,-7.1745,-7.1437,-7.1071,-7.186,-7.2592,-7.3418,-7.4178,-7.4764,-7.4976,-7.5245,-7.5611,-7.5995,-7.5995,-7.5995,-7.5995,-7.5995,-7.5995,-7.5995,-7.5995,-7.5995,-7.5995,-7.5995,-7.5995,-7.5995,-7.5995,-7.5995,-7.5995,-7.5995,-7.5995,-7.5995,-7.5995,-7.5995,-7.5995,-7.5995,-7.5995,-7.5995,-7.5995,-7.5995,-7.5995,-7.5995,-7.5995,-7.5995,-7.5995,-7.5995,-7.5995,-7.5995,-7.5995,-7.5995,-7.5995,-7.5995,-7.5995,-7.5995,-7.5995,-7.5995,-7.5976,-7.5938,-7.5611,-7.4938,-7.4476,-7.4091,-7.3476,-7.2649,-7.2072,-7.1418,-7.1148,-7.0994,-7.1033,-7.0956,-7.0898,-7.0918,-7.111,-7.1014,-7.1052,-7.0975,-7.0898,-7.0898,-7.0898,-7.0898,-7.0898,-7.0898,-7.111,-6.7026,-6.7669,-6.7632,-6.7632,-6.7669,-6.7669,-6.7687,-6.7792,-6.821,-6.8451,-6.8772,-6.9487,-6.9997,-7.02,-7.0573,-7.0777,-7.0898,-7.0898,-7.0898,-7.0898,-7.0898,-7.0898,-7.0898,-7.0898,-7.0898,-7.0937,-7.1456,-7.1879,-7.2072,-7.2302,-7.2706,-7.3149,-7.1918,-7.1745,-7.1668,-7.1418,-7.1802,-7.2659,-7.3611,-7.4582,-7.5284,-7.5726,-7.5765,-7.5822,-7.5918,-7.5995,-7.5995,-7.5995,-7.5995,-7.5995,-7.5995,-7.5995,-7.5995,-7.5995,-7.5995,-7.5995,-7.5995,-7.5995,-7.5995,-7.5995,-7.5995,-7.5995,-7.5995,-7.5995,-7.5995,-7.5995,-7.5995,-7.5995,-7.5995,-7.5995,-7.5995,-7.5995,-7.5995,-7.5995,-7.5995,-7.5995,-7.5995,-7.5995,-7.5995,-7.5995,-7.5995,-7.5995,-7.5995,-7.5995,-7.5995,-7.5995,-7.5995,-7.5995,-7.5995,-7.5976,-7.5976,-7.5592,-7.5072,-7.4687,-7.4418,-7.3649,-7.261,-7.1879,-7.1456,-7.1302,-7.1245,-7.1129,-7.1206,-7.1552,-7.1802,-7.1495,-7.1302,-7.1552,-7.1572,-7.1091,-7.0898,-7.0898,-7.0898,-7.0898,-7.1313,-6.5944,-6.6219,-6.6219,-6.6788,-6.7669,-6.7669,-6.7897,-6.8161,-6.8416,-6.8896,-6.9514,-7.0228,-7.0601,-7.0671,-7.0729,-7.0898,-7.0898,-7.0898,-7.0898,-7.0898,-7.0898,-7.0898,-7.0898,-7.0898,-7.0898,-7.1129,-7.1802,-7.2572,-7.2995,-7.2899,-7.3514,-7.3495,-7.2476,-7.2072,-7.186,-7.1572,-7.2101,-7.3101,-7.3928,-7.4582,-7.5765,-7.5995,-7.5995,-7.5995,-7.5995,-7.5995,-7.5995,-7.5995,-7.5995,-7.5995,-7.5995,-7.5995,-7.5995,-7.5995,-7.5995,-7.5995,-7.5995,-7.5995,-7.5995,-7.5995,-7.5995,-7.5995,-7.5995,-7.5995,-7.5995,-7.5995,-7.5995,-7.5995,-7.5995,-7.5995,-7.5995,-7.5995,-7.5995,-7.5995,-7.5995,-7.5995,-7.5995,-7.5995,-7.5995,-7.5995,-7.5995,-7.5995,-7.5995,-7.5995,-7.5995,-7.5995,-7.5995,-7.5995,-7.5995,-7.5995,-7.5995,-7.5995,-7.5515,-7.513,-7.4861,-7.3995,-7.3033,-7.2495,-7.1918,-7.1764,-7.1734,-7.1794,-7.1928,-7.2255,-7.2591,-7.2552,-7.2514,-7.2514,-7.2225,-7.1629,-7.1168,-7.0898,-7.0898,-7.1052,-7.1678,-6.5081,-6.5301,-6.5319,-6.5944,-6.6935,-6.7126,-6.7555,-6.812,-6.8453,-6.9264,-7.0362,-7.0729,-7.0898,-7.0898,-7.0898,-7.0898,-7.0898,-7.0898,-7.0898,-7.0898,-7.0898,-7.0898,-7.0898,-7.0898,-7.0918,-7.1225,-7.1898,-7.2629,-7.2937,-7.3322,-7.3707,-7.3764,-7.3456,-7.2937,-7.211,-7.2033,-7.2313,-7.3236,-7.4197,-7.4668,-7.5938,-7.5995,-7.5995,-7.5995,-7.5995,-7.5995,-7.5995,-7.5995,-7.5995,-7.5995,-7.5995,-7.5995,-7.5995,-7.5995,-7.5995,-7.5995,-7.5995,-7.5995,-7.5995,-7.5995,-7.5995,-7.5995,-7.5995,-7.5995,-7.5995,-7.5995,-7.5995,-7.5995,-7.5995,-7.5995,-7.5995,-7.5995,-7.5995,-7.5995,-7.5995,-7.5995,-7.5995,-7.5995,-7.5995,-7.5995,-7.5995,-7.5995,-7.5995,-7.5995,-7.5995,-7.5995,-7.5995,-7.5995,-7.5995,-7.5995,-7.5995,-7.5995,-7.588,-7.5553,-7.5207,-7.4437,-7.3764,-7.3572,-7.3014,-7.2465,-7.2369,-7.2467,-7.24,-7.24,-7.2784,-7.3447,-7.3572,-7.338,-7.2783,-7.2072,-7.186,-7.1802,-7.1984,-7.2272,-7.2533,-6.4549,-6.5283,-6.5228,-6.5264,-6.5441,-6.5885,-6.6611,-6.7691,-6.8546,-6.9649,-7.0738,-7.0898,-7.0898,-7.0898,-7.0898,-7.0898,-7.0898,-7.0898,-7.0898,-7.0898,-7.0898,-7.0898,-7.0898,-7.0898,-7.0898,-7.0898,-7.1456,-7.2014,-7.2341,-7.2937,-7.3399,-7.3783,-7.3783,-7.3553,-7.2418,-7.3033,-7.3437,-7.3726,-7.5072,-7.5592,-7.5938,-7.5995,-7.5995,-7.5995,-7.5995,-7.5995,-7.5995,-7.5995,-7.5995,-7.5995,-7.5995,-7.5995,-7.5995,-7.5995,-7.5995,-7.5995,-7.5995,-7.5995,-7.5995,-7.5995,-7.5995,-7.5995,-7.5995,-7.5995,-7.5995,-7.5995,-7.5995,-7.5995,-7.5995,-7.5995,-7.5995,-7.5995,-7.5995,-7.5995,-7.5995,-7.5995,-7.5995,-7.5995,-7.5995,-7.5995,-7.5995,-7.5995,-7.5995,-7.5995,-7.5995,-7.5995,-7.5995,-7.5995,-7.5995,-7.5995,-7.5995,-7.5995,-7.5995,-7.588,-7.5515,-7.4995,-7.4534,-7.4399,-7.4034,-7.336,-7.3168,-7.3332,-7.3149,-7.2794,-7.3438,-7.4476,-7.438,-7.4149,-7.3783,-7.3514,-7.3168,-7.311,-7.3273,-7.3292,-7.338,-6.3392,-6.3649,-6.3649,-6.3861,-6.4336,-6.5487,-6.6842,-6.8375,-6.9591,-7.0479,-7.0813,-7.0898,-7.0898,-7.0898,-7.0898,-7.0898,-7.0898,-7.0898,-7.0898,-7.0898,-7.0898,-7.0898,-7.0898,-7.0898,-7.0898,-7.1052,-7.136,-7.1725,-7.2245,-7.2629,-7.3053,-7.3456,-7.3957,-7.3591,-7.3226,-7.3476,-7.3707,-7.4255,-7.4938,-7.5361,-7.5899,-7.5995,-7.5995,-7.5995,-7.5995,-7.5995,-7.5995,-7.5995,-7.5995,-7.5995,-7.5995,-7.5995,-7.5995,-7.5995,-7.5995,-7.5995,-7.5995,-7.5995,-7.5995,-7.5995,-7.5995,-7.5995,-7.5995,-7.5995,-7.5995,-7.5995,-7.5995,-7.5995,-7.5995,-7.5995,-7.5995,-7.5995,-7.5995,-7.5995,-7.5995,-7.5995,-7.5995,-7.5995,-7.5995,-7.5995,-7.5995,-7.5995,-7.5995,-7.5995,-7.5995,-7.5995,-7.5995,-7.5995,-7.5995,-7.5995,-7.5995,-7.5995,-7.5995,-7.5995,-7.5784,-7.5303,-7.5207,-7.5207,-7.4745,-7.4091,-7.4024,-7.4159,-7.4351,-7.4206,-7.487,-7.5495,-7.5207,-7.5034,-7.5265,-7.513,-7.4476,-7.3937,-7.3803,-7.3745,-7.3707,-6.2823,-6.2823,-6.2823,-6.3091,-6.3736,-6.4948,-6.6654,-6.8655,-7.0191,-7.0898,-7.0898,-7.0898,-7.0898,-7.0898,-7.0898,-7.0898,-7.0898,-7.0898,-7.0898,-7.0898,-7.0898,-7.0898,-7.0898,-7.0898,-7.0898,-7.1071,-7.1379,-7.1802,-7.2187,-7.2206,-7.2899,-7.3803,-7.4187,-7.4514,-7.4361,-7.4322,-7.4159,-7.4678,-7.5082,-7.5553,-7.588,-7.5995,-7.5995,-7.5995,-7.5995,-7.5995,-7.5995,-7.5995,-7.5995,-7.5995,-7.5995,-7.5995,-7.5995,-7.5995,-7.5995,-7.5995,-7.5995,-7.5995,-7.5995,-7.5995,-7.5995,-7.5995,-7.5995,-7.5995,-7.5995,-7.5995,-7.5995,-7.5995,-7.5995,-7.5995,-7.5995,-7.5995,-7.5995,-7.5995,-7.5995,-7.5995,-7.5995,-7.5995,-7.5995,-7.5995,-7.5995,-7.5995,-7.5995,-7.5995,-7.5995,-7.5995,-7.5995,-7.5995,-7.5995,-7.5995,-7.5995,-7.5995,-7.5995,-7.5995,-7.5899,-7.563,-7.5649,-7.5938,-7.5438,-7.4764,-7.4716,-7.4832,-7.5235,-7.5553,-7.563,-7.5726,-7.588,-7.5918,-7.5803,-7.5611,-7.5226,-7.4764,-7.4399,-7.4361,-7.4399,-6.2823,-6.2823,-6.2823,-6.3121,-6.3718,-6.4594,-6.626,-6.8525,-7.0187,-7.0898,-7.0898,-7.0898,-7.0898,-7.0898,-7.0898,-7.0898,-7.0898,-7.0898,-7.0898,-7.0898,-7.0898,-7.0898,-7.0898,-7.0898,-7.0898,-7.0898,-7.1071,-7.1475,-7.2072,-7.2206,-7.3033,-7.4207,-7.4861,-7.513,-7.5091,-7.5034,-7.4822,-7.5101,-7.5476,-7.5803,-7.5976,-7.5995,-7.5995,-7.5995,-7.5995,-7.5995,-7.5995,-7.5995,-7.5995,-7.5995,-7.5995,-7.5995,-7.5995,-7.5995,-7.5995,-7.5995,-7.5995,-7.5995,-7.5995,-7.5995,-7.5995,-7.5995,-7.5995,-7.5995,-7.5995,-7.5995,-7.5995,-7.5995,-7.5995,-7.5995,-7.5995,-7.5995,-7.5995,-7.5995,-7.5995,-7.5995,-7.5995,-7.5995,-7.5995,-7.5995,-7.5995,-7.5995,-7.5995,-7.5995,-7.5995,-7.5995,-7.5995,-7.5995,-7.5995,-7.5995,-7.5995,-7.5995,-7.5995,-7.5995,-7.588,-7.5765,-7.5803,-7.5995,-7.5957,-7.5495,-7.5515,-7.5389,-7.5572,-7.5707,-7.5784,-7.588,-7.5957,-7.5995,-7.5957,-7.5765,-7.5572,-7.5534,-7.5149,-7.5361,-7.5457,-6.2823,-6.2823,-6.2823,-6.3335,-6.4386,-6.6344,-6.7726,-6.8602,-7.0167,-7.0898,-7.0898,-7.0898,-7.0898,-7.0898,-7.0898,-7.0898,-7.0898,-7.0898,-7.0898,-7.0898,-7.0898,-7.0898,-7.0898,-7.0898,-7.0898,-7.0898,-7.0956,-7.1052,-7.1398,-7.1783,-7.2264,-7.2956,-7.4437,-7.4918,-7.5188,-7.5418,-7.5457,-7.5553,-7.5803,-7.5938,-7.5995,-7.5995,-7.5995,-7.5995,-7.5995,-7.5995,-7.5995,-7.5995,-7.5995,-7.5995,-7.5995,-7.5995,-7.5995,-7.5995,-7.5995,-7.5995,-7.5995,-7.5995,-7.5995,-7.5995,-7.5995,-7.5995,-7.5995,-7.5995,-7.5995,-7.5995,-7.5995,-7.5995,-7.5995,-7.5995,-7.5995,-7.5995,-7.5995,-7.5995,-7.5995,-7.5995,-7.5995,-7.5995,-7.5995,-7.5995,-7.5995,-7.5995,-7.5995,-7.5995,-7.5995,-7.5995,-7.5995,-7.5995,-7.5995,-7.5995,-7.5995,-7.5995,-7.5995,-7.5995,-7.5995,-7.5899,-7.5938,-7.5976,-7.5957,-7.5957,-7.5842,-7.5745,-7.5803,-7.5842,-7.5899,-7.5938,-7.5976,-7.5995,-7.5995,-7.5995,-7.5861,-7.5918,-7.5995,-7.5995,-7.5995,-6.2917,-6.3091,-6.3139,-6.3705,-6.4907,-6.6762,-6.7705,-6.8218,-7.0014,-7.0898,-7.0898,-7.0898,-7.0898,-7.0898,-7.0898,-7.0898,-7.0898,-7.0898,-7.0898,-7.0898,-7.0898,-7.0898,-7.0898,-7.0898,-7.0898,-7.0898,-7.0898,-7.0937,-7.111,-7.1706,-7.2245,-7.2399,-7.3668,-7.4072,-7.4437,-7.4899,-7.5341,-7.5515,-7.5726,-7.5938,-7.5995,-7.5995,-7.5995,-7.5995,-7.5995,-7.5995,-7.5995,-7.5995,-7.5995,-7.5995,-7.5995,-7.5995,-7.5995,-7.5995,-7.5995,-7.5995,-7.5995,-7.5995,-7.5995,-7.5995,-7.5995,-7.5995,-7.5995,-7.5995,-7.5995,-7.5995,-7.5995,-7.5995,-7.5995,-7.5995,-7.5995,-7.5995,-7.5995,-7.5995,-7.5995,-7.5995,-7.5995,-7.5995,-7.5995,-7.5995,-7.5995,-7.5995,-7.5995,-7.5995,-7.5995,-7.5995,-7.5995,-7.5995,-7.5995,-7.5995,-7.5995,-7.5995,-7.5995,-7.5995,-7.5995,-7.5995,-7.5995,-7.5995,-7.5976,-7.5976,-7.5995,-7.5976,-7.5918,-7.5938,-7.5976,-7.5995,-7.5995,-7.5995,-7.5995,-7.5995,-7.5995,-7.5995,-7.5995,-7.5995,-7.5995,-6.3121,-6.3612,-6.368,-6.4237,-6.5131,-6.6185,-6.6797,-6.7378,-6.9571,-7.0725,-7.0725,-7.086,-7.0898,-7.0898,-7.0898,-7.0898,-7.0898,-7.0898,-7.0898,-7.0898,-7.0898,-7.0898,-7.0898,-7.0898,-7.0898,-7.0898,-7.0898,-7.0898,-7.1091,-7.1514,-7.1898,-7.2168,-7.2956,-7.338,-7.3514,-7.4457,-7.4938,-7.5072,-7.5572,-7.5995,-7.5995,-7.5995,-7.5995,-7.5995,-7.5995,-7.5995,-7.5995,-7.5995,-7.5995,-7.5995,-7.5995,-7.5995,-7.5995,-7.5995,-7.5995,-7.5995,-7.5995,-7.5995,-7.5995,-7.5995,-7.5995,-7.5995,-7.5995,-7.5995,-7.5995,-7.5995,-7.5995,-7.5995,-7.5995,-7.5995,-7.5995,-7.5995,-7.5995,-7.5995,-7.5995,-7.5995,-7.5995,-7.5995,-7.5995,-7.5995,-7.5995,-7.5995,-7.5995,-7.5995,-7.5995,-7.5995,-7.5995,-7.5995,-7.5995,-7.5995,-7.5995,-7.5995,-7.5995,-7.5995,-7.5995,-7.5995,-7.5995,-7.5995,-7.5995,-7.5995,-7.5995,-7.5995,-7.5995,-7.5995,-7.5995,-7.5995,-7.5995,-7.5995,-7.5995,-7.5995,-7.5995,-7.5995,-7.5995,-7.5995,-7.5995,-6.3479,-6.368,-6.4426,-6.49,-6.5226,-6.6404,-6.6953,-6.7205,-6.8417,-6.9379,-7.0014,-7.0552,-7.0898,-7.0898,-7.0898,-7.0898,-7.0898,-7.0898,-7.0898,-7.0898,-7.0898,-7.0898,-7.0898,-7.0898,-7.0898,-7.0898,-7.0898,-7.0898,-7.0975,-7.1168,-7.1283,-7.1341,-7.2072,-7.2495,-7.2591,-7.3707,-7.4437,-7.4437,-7.5322,-7.5803,-7.5861,-7.5938,-7.5995,-7.5995,-7.5995,-7.5995,-7.5995,-7.5995,-7.5995,-7.5995,-7.5995,-7.5995,-7.5995,-7.5995,-7.5995,-7.5995,-7.5995,-7.5995,-7.5995,-7.5995,-7.5995,-7.5995,-7.5995,-7.5995,-7.5995,-7.5995,-7.5995,-7.5995,-7.5995,-7.5995,-7.5995,-7.5995,-7.5995,-7.5995,-7.5995,-7.5995,-7.5995,-7.5995,-7.5995,-7.5995,-7.5995,-7.5995,-7.5995,-7.5995,-7.5995,-7.5995,-7.5995,-7.5995,-7.5995,-7.5995,-7.5995,-7.5995,-7.5995,-7.5995,-7.5995,-7.5995,-7.5995,-7.5995,-7.5995,-7.5995,-7.5995,-7.5995,-7.5995,-7.5995,-7.5995,-7.5995,-7.5995,-7.5995,-7.5995,-7.5995,-7.5995,-7.5995,-7.5995,-7.5995,-7.5995,-6.343,-6.4059,-6.5035,-6.5446,-6.5618,-6.6262,-6.6571,-6.6724,-6.7475,-6.809,-6.8725,-6.9763,-7.0552,-7.0821,-7.0898,-7.0898,-7.0898,-7.0898,-7.0898,-7.0898,-7.0898,-7.0898,-7.0898,-7.0898,-7.0898,-7.0898,-7.0898,-7.0898,-7.0898,-7.0918,-7.0975,-7.0956,-7.1475,-7.1706,-7.1841,-7.2918,-7.3668,-7.3591,-7.4803,-7.5361,-7.5553,-7.5745,-7.5957,-7.5995,-7.5995,-7.5995,-7.5995,-7.5995,-7.5995,-7.5995,-7.5995,-7.5995,-7.5995,-7.5995,-7.5995,-7.5995,-7.5995,-7.5995,-7.5995,-7.5995,-7.5995,-7.5995,-7.5995,-7.5995,-7.5995,-7.5995,-7.5995,-7.5995,-7.5995,-7.5995,-7.5995,-7.5995,-7.5995,-7.5995,-7.5995,-7.5995,-7.5995,-7.5995,-7.5995,-7.5995,-7.5995,-7.5995,-7.5995,-7.5995,-7.5995,-7.5995,-7.5995,-7.5995,-7.5995,-7.5995,-7.5995,-7.5995,-7.5995,-7.5995,-7.5995,-7.5995,-7.5995,-7.5995,-7.5995,-7.5995,-7.5995,-7.5995,-7.5995,-7.5995,-7.5995,-7.5995,-7.5995,-7.5995,-7.5995,-7.5995,-7.5995,-7.5995,-7.5995,-7.5995,-7.5995,-6.3345,-6.4642,-6.5513,-6.5878,-6.5878,-6.5897,-6.5917,-6.6051,-6.6647,-6.7032,-6.7378,-6.8725,-6.9821,-7.0514,-7.0898,-7.0898,-7.0898,-7.0898,-7.0898,-7.0898,-7.0898,-7.0898,-7.0898,-7.0898,-7.0898,-7.0898,-7.0898,-7.0898,-7.0898,-7.0898,-7.0898,-7.0898,-7.0898,-7.0918,-7.1168,-7.1725,-7.2456,-7.2879,-7.3707,-7.4514,-7.5014,-7.5534,-7.5861,-7.5995,-7.5995,-7.5995,-7.5995,-7.5995,-7.5995,-7.5995,-7.5995,-7.5995,-7.5995,-7.5995,-7.5995,-7.5995,-7.5995,-7.5995,-7.5995,-7.5995,-7.5995,-7.5995,-7.5995,-7.5995,-7.5995,-7.5995,-7.5995,-7.5995,-7.5995,-7.5995,-7.5995,-7.5995,-7.5995,-7.5995,-7.5995,-7.5995,-7.5995,-7.5995,-7.5995,-7.5995,-7.5995,-7.5995,-7.5995,-7.5995,-7.5995,-7.5995,-7.5995,-7.5995,-7.5995,-7.5995,-7.5995,-7.5995,-7.5995,-7.5995,-7.5995,-7.5995,-7.5995,-7.5995,-7.5995,-7.5995,-7.5995,-7.5995,-7.5995,-7.5995,-7.5995,-7.5995,-7.5995,-7.5995,-7.5995,-7.5995,-7.5995,-7.5995,-7.5995,-7.5995,-7.5995,-6.4006,-6.5616,-6.5827,-6.5878,-6.5878,-6.5878,-6.5878,-6.5897,-6.6051,-6.6455,-6.7013,-6.7385,-6.8385,-6.9937,-7.0648,-7.0821,-7.0706,-7.0821,-7.0898,-7.0898,-7.0898,-7.0898,-7.0898,-7.0898,-7.0898,-7.0898,-7.0898,-7.0898,-7.0898,-7.0898,-7.0898,-7.0898,-7.0898,-7.0937,-7.1033,-7.1572,-7.211,-7.2437,-7.2995,-7.3899,-7.4707,-7.5284,-7.5861,-7.5995,-7.5995,-7.5995,-7.5995,-7.5995,-7.5995,-7.5995,-7.5995,-7.5995,-7.5995,-7.5995,-7.5995,-7.5995,-7.5995,-7.5995,-7.5995,-7.5995,-7.5995,-7.5995,-7.5995,-7.5995,-7.5995,-7.5995,-7.5995,-7.5995,-7.5995,-7.5995,-7.5995,-7.5995,-7.5995,-7.5995,-7.5995,-7.5995,-7.5995,-7.5995,-7.5995,-7.5995,-7.5995,-7.5995,-7.5995,-7.5995,-7.5995,-7.5995,-7.5995,-7.5995,-7.5995,-7.5995,-7.5995,-7.5995,-7.5995,-7.5995,-7.5995,-7.5995,-7.5995,-7.5995,-7.5995,-7.5995,-7.5995,-7.5995,-7.5995,-7.5995,-7.5995,-7.5995,-7.5995,-7.5995,-7.5995,-7.5995,-7.5995,-7.5995,-7.5995,-7.5995,-7.5995]}]]